[[{"header":{"parameterUnit":"m.s-1","parameterCategory":1,"la1":31.0,"la2":29.5877,"lo1":-88.7671,"lo2":-86.6584,"dy":0.0162,"dx":0.0185,"nx":115,"ny":88,"refTime":"2023-04-16T06:00:00:Z","depth":0,"parameterNumber":2,"parameterNumberName":"U-component_of_WINDS"},"data":[0.0,0.0,0.0,0.0,0.0,0.0,0.0,0.0,0.0,0.0,0.0,0.0,0.0,0.0,0.0,0.0,0.0,0.0,0.0,0.0,0.0,0.0,0.0,0.0,0.0,0.0,0.0,0.0,0.0,0.0,0.0,0.0,0.0,0.0,0.0,0.0,0.0,0.0,0.0,0.0,0.0,0.0,0.0,0.0,0.0,0.0,0.0,0.0,0.0,0.0,0.0,0.0,0.0,0.0,0.0,0.0,0.0,0.0,0.0,0.0,0.0,0.0,0.0,0.0,0.0,0.0,0.0,0.0,0.0,0.0,0.0,0.0,0.0,0.0,0.0,0.0,0.0,0.0,0.0,0.0,0.0,0.0,0.0,0.0,0.0,0.0,0.0,0.0,0.0,0.0,0.0,0.0,0.0,0.0,0.0,0.0,0.0,0.0,0.0,0.0,0.0,0.0,0.0,0.0,0.0,0.0,0.0,0.0,0.0,0.0,0.0,0.0,0.0,0.0,0.0,0.0,0.0,0.0,0.0,0.0,0.0,0.0,0.0,0.0,0.0,0.0,0.0,0.0,0.0,0.0,0.0,0.0,0.0,0.0,0.0,0.0,0.0,0.0,0.0,0.0,0.0,0.0,0.0,0.0,0.0,0.0,0.0,0.0,0.0,0.0,0.0,0.0,0.0,0.0,0.0,0.0,0.0,0.0,0.0,0.0,0.0,0.0,0.0,0.0,0.0,0.0,0.0,0.0,0.0,0.0,0.0,0.0,0.0,0.0,0.0,0.0,0.0,0.0,0.0,0.0,0.0,0.0,0.0,0.0,0.0,0.0,0.0,0.0,0.0,0.0,0.0,0.0,0.0,0.0,0.0,0.0,0.0,0.0,0.0,0.0,0.0,0.0,0.0,0.0,0.0,0.0,0.0,0.0,0.0,0.0,0.0,0.0,0.0,0.0,0.0,0.0,0.0,0.0,0.0,0.0,0.0,0.0,0.0,0.0,0.0,0.0,0.0,0.0,0.0,0.0,0.0,0.0,0.0,0.0,0.0,0.0,0.0,0.0,0.0,0.0,0.0,0.0,0.0,0.0,0.0,0.0,0.0,0.0,0.0,0.0,0.0,0.0,0.0,0.0,0.0,0.0,0.0,0.0,0.0,0.0,0.0,0.0,0.0,0.0,0.0,0.0,0.0,0.0,0.0,0.0,0.0,0.0,0.0,0.0,0.0,0.0,0.0,0.0,0.0,0.0,0.0,0.0,0.0,0.0,0.0,0.0,0.0,0.0,0.0,0.0,0.0,0.0,0.0,0.0,0.0,0.0,0.0,0.0,0.0,0.0,0.0,0.0,0.0,0.0,0.0,0.0,0.0,0.0,0.0,0.0,0.0,0.0,0.0,0.0,0.0,0.0,0.0,0.0,0.0,0.0,0.0,0.0,0.0,0.0,0.0,0.0,0.0,0.0,0.0,0.0,0.0,0.0,0.0,0.0,0.0,0.0,0.0,0.0,0.0,0.0,0.0,0.0,0.0,0.0,0.0,0.0,0.0,0.0,0.0,0.0,0.0,0.0,0.0,0.0,0.0,0.0,0.0,0.0,0.0,0.0,0.0,0.0,0.0,0.0,0.0,0.0,0.0,0.0,0.0,0.0,0.0,0.0,0.0,0.0,0.0,0.0,0.0,0.0,0.0,0.0,0.0,0.0,0.0,0.0,0.0,0.0,0.0,0.0,0.0,0.0,0.0,0.0,0.0,0.0,0.0,0.0,0.0,0.0,0.0,0.0,0.0,0.0,0.0,0.0,0.0,0.0,0.0,0.0,0.0,0.0,0.0,0.0,0.0,0.0,0.0,0.0,0.0,0.0,0.0,0.0,0.0,0.0,0.0,0.0,0.0,0.0,0.0,0.0,0.0,0.0,0.0,0.0,0.0,0.0,0.0,0.0,0.0,0.0,0.0,0.0,0.0,0.0,0.0,0.0,0.0,0.0,0.0,0.0,0.0,0.0,0.0,0.0,0.0,0.0,0.0,0.0,0.0,0.0,0.0,0.0,0.0,0.0,0.0,0.0,0.0,0.0,0.0,0.0,0.0,0.0,0.0,0.0,0.0,0.0,0.0,0.0,0.0,0.0,0.0,0.0,0.0,0.0,0.0,0.0,0.0,0.0,0.0,0.0,0.0,0.0,0.0,0.0,0.0,0.0,0.0,0.0,0.0,0.0,0.0,0.0,0.0,0.0,0.0,0.0,0.0,0.0,0.0,0.0,0.0,0.0,0.0,0.0,0.0,0.0,0.0,0.0,0.0,0.0,0.0,0.0,0.0,0.0,0.0,0.0,0.0,0.0,0.0,0.0,0.0,0.0,0.0,0.0,0.0,0.0,0.0,0.0,0.0,0.0,0.0,0.0,0.0,0.0,0.0,0.0,0.0,0.0,0.0,0.0,0.0,0.0,0.0,0.0,0.0,0.0,0.0,0.0,0.0,0.0,0.0,0.0,0.0,0.0,0.0,0.0,0.0,0.0,0.0,0.0,0.0,0.0,0.0,0.0,0.0,0.0,0.0,0.0,0.0,0.0,0.0,0.0,0.0,0.0,0.0,0.0,0.0,0.0,0.0,0.0,0.0,0.0,0.0,0.0,0.0,0.0,0.0,0.0,0.0,0.0,0.0,0.0,0.0,0.0,0.0,0.0,0.0,0.0,0.0,0.0,0.0,0.0,0.0,0.0,0.0,0.0,0.0,0.0,0.0,0.0,0.0,0.0,0.0,0.0,0.0,0.0,0.0,0.0,0.0,0.0,0.0,0.0,0.0,0.0,0.0,0.0,0.0,0.0,0.0,0.0,0.0,0.0,0.0,0.0,0.0,0.0,0.0,0.0,0.0,0.0,0.0,0.0,0.0,0.0,0.0,0.0,0.0,0.0,0.0,0.0,0.0,0.0,0.0,0.0,0.0,0.0,0.0,0.0,0.0,0.0,0.0,0.0,0.0,0.0,0.0,0.0,0.0,0.0,0.0,0.0,0.0,0.0,0.0,0.0,0.0,0.0,0.0,0.0,0.0,0.0,0.0,0.0,0.0,0.0,0.0,0.0,0.0,0.0,0.0,0.0,0.0,0.0,0.0,0.0,0.0,0.0,0.0,0.0,0.0,0.0,0.0,0.0,0.0,0.0,0.0,0.0,0.0,0.0,0.0,0.0,0.0,0.0,0.0,0.0,0.0,0.0,0.0,0.0,0.0,0.0,0.0,0.0,0.0,0.0,0.0,0.0,0.0,0.0,0.0,0.0,0.0,0.0,0.0,0.0,0.0,0.0,0.0,0.0,0.0,0.0,0.0,0.0,0.0,0.0,0.0,0.0,0.0,0.0,0.0,0.0,0.0,0.0,0.0,0.0,0.0,0.0,0.0,0.0,0.0,0.0,0.0,0.0,0.0,0.0,0.0,0.0,0.0,0.0,0.0,0.0,0.0,0.0,0.0,0.0,0.0,0.0,0.0,0.0,0.0,0.0,0.0,0.0,0.0,0.0,0.0,0.0,0.0,0.0,0.0,0.0,0.0,0.0,0.0,0.0,0.0,0.0,0.0,0.0,0.0,0.0,0.0,0.0,0.0,0.0,0.0,0.0,0.0,0.0,0.0,0.0,0.0,0.0,0.0,0.0,0.0,0.0,0.0,0.0,0.0,0.0,0.0,0.0,0.0,0.0,0.0,0.0,0.0,0.0,0.0,0.0,0.0,0.0,0.0,0.0,0.0,0.0,0.0,0.0,0.0,0.0,0.0,0.0,0.0,0.0,0.0,0.0,0.0,0.0,0.0,0.0,0.0,0.0,0.0,0.0,0.0,0.0,0.0,0.0,0.0,0.0,0.0,0.0,0.0,0.0,0.0,0.0,0.0,0.0,0.0,0.0,0.0,0.0,0.0,0.0,0.0,0.0,0.0,0.0,0.0,0.0,0.0,0.0,0.0,0.0,0.0,0.0,0.0,0.0,0.0,0.0,0.0,0.0,0.0,0.0,0.0,0.0,0.0,0.0,0.0,0.0,0.0,0.0,0.0,0.0,0.0,0.0,0.0,0.0,0.0,0.0,0.0,0.0,0.0,0.0,0.0,0.0,0.0,0.0,0.0,0.0,0.0,0.0,0.0,0.0,0.0,0.0,0.0,0.0,0.0,0.0,0.0,0.0,0.0,0.0,0.0,0.0,0.0,0.0,0.0,0.0,0.0,0.0,0.0,0.0,0.0,0.0,0.0,0.0,0.0,0.0,0.0,0.0,0.0,0.0,0.0,0.0,0.0,0.0,1.0012,0.0,0.0,0.0,0.0,0.0,0.0,0.0,0.0,0.0,0.0,0.0,0.0,0.0,0.0,0.0,0.0,0.0,0.0,0.0,0.0,0.0,0.0,0.0,0.0,0.0,0.0,0.0,0.0,0.0,0.0,0.0,0.0,0.0,0.0,0.0,0.0,0.0,0.0,0.0,0.0,0.0,0.0,0.0,0.0,0.0,0.0,0.0,0.0,0.0,0.0,0.0,0.0,0.0,0.0,0.0,0.0,0.0,0.0,0.0,0.0,0.0,0.0,0.0,0.0,0.0,0.0,0.0,0.0,0.0,0.0,0.0,0.0,0.0,0.0,0.0,0.0,0.0,0.0,0.0,0.0,0.0,0.0,0.0,0.0,0.0,0.0,0.0,0.0,0.0,0.0,0.0,0.0,0.0,0.0,0.0,0.0,0.0,0.0,0.0,0.0,0.0,0.0,0.0,0.0,0.0,0.0,0.0,0.0,0.0,0.0,1.014,1.01,1.0035,0.9971,0.9959,0.0,0.0,0.0,0.0,0.0,0.0,0.0,0.0,0.0,0.0,0.0,0.0,0.0,0.0,0.0,0.0,0.0,0.0,0.0,0.0,0.0,0.0,0.0,0.0,0.0,0.0,0.0,0.0,0.0,0.0,0.0,0.0,0.0,0.0,0.0,0.0,0.0,0.0,0.0,0.0,0.0,0.0,0.0,0.0,0.0,0.0,0.0,0.0,0.0,0.0,0.0,0.0,0.0,0.0,0.0,0.0,0.0,0.0,0.0,0.0,0.0,0.0,0.0,0.0,0.0,0.0,0.0,0.0,0.0,0.0,0.0,0.0,0.0,0.0,0.0,0.0,0.0,0.0,0.0,0.0,0.0,0.0,0.0,0.0,0.0,0.0,0.0,0.0,0.0,0.0,0.0,0.0,0.0,0.0,0.0,0.0,0.0,0.0,0.0,0.0,0.0,0.0,0.0,0.0,0.0,0.0,0.0,0.0,0.0,0.0,0.0,0.0,1.0836,1.079,1.0784,0.0,0.0,0.0,0.0,0.0,0.0,0.0,0.0,0.0,0.0,0.0,0.0,0.0,0.0,0.0,0.0,0.0,0.0,0.0,0.0,0.0,0.0,0.0,0.0,0.0,0.0,0.0,0.0,0.0,0.0,0.0,0.0,0.0,0.0,0.0,0.0,0.0,0.0,0.0,0.0,0.0,0.0,0.0,0.0,0.0,0.0,0.0,0.0,0.0,0.0,0.0,0.0,0.0,0.0,0.0,0.0,0.0,0.0,0.0,0.0,0.0,0.0,0.0,0.0,0.0,0.0,0.0,0.0,0.0,0.0,0.0,0.0,0.0,0.0,0.0,0.0,0.0,0.0,0.0,0.0,0.0,0.0,0.0,0.0,0.0,0.0,0.0,0.0,0.0,0.0,0.0,0.0,0.0,0.0,0.0,0.0,0.0,0.0,0.0,0.0,0.0,0.0,0.0,0.0,0.0,0.0,0.0,0.0,0.0,0.0,1.1114,1.3214,1.3244,0.0,1.3238,0.0,0.0,0.0,0.0,0.0,0.0,0.0,0.0,0.0,0.0,0.0,0.0,0.0,0.0,0.0,0.0,0.0,0.0,0.0,0.0,0.0,0.0,0.0,0.0,0.0,0.0,0.0,0.0,0.0,0.0,0.0,0.0,0.0,0.0,0.0,0.0,0.0,0.0,0.0,0.0,0.0,0.0,0.0,0.0,0.0,0.0,0.0,0.0,0.0,0.0,0.0,0.0,0.0,0.0,0.0,0.0,0.0,0.0,0.0,0.0,0.0,0.0,0.0,0.0,0.0,0.0,0.0,0.0,0.0,0.0,0.0,0.0,0.0,0.0,0.0,0.0,0.0,0.0,0.0,0.0,0.0,0.0,0.0,0.0,0.0,0.0,0.0,0.0,0.0,0.0,0.0,0.0,0.0,0.0,0.0,0.0,0.0,0.0,0.0,0.0,0.0,0.0,0.0,0.0,0.0,0.0,0.0,0.0,0.0,0.0,1.1004,1.2901,1.287,1.2349,0.0,0.0,0.0,0.0,0.0,0.0,0.0,0.0,0.0,0.0,0.0,0.0,0.0,0.0,0.0,0.0,0.0,0.0,0.0,0.0,0.0,0.0,0.0,0.0,0.0,0.0,0.0,0.0,0.0,0.0,0.0,0.0,0.0,0.0,0.0,0.0,0.0,0.0,0.0,0.0,0.0,0.0,0.0,0.0,0.0,0.0,0.0,0.0,0.0,0.0,0.0,0.0,0.0,0.0,0.0,0.0,0.0,0.0,0.0,0.0,0.0,0.0,0.0,0.0,0.0,0.0,0.0,0.0,0.0,0.0,0.0,0.0,0.0,0.0,0.0,0.0,0.0,0.0,0.0,0.0,0.0,0.0,0.0,0.0,0.0,0.0,0.0,0.0,0.0,0.0,0.0,0.0,0.0,0.0,0.0,0.0,0.0,0.0,0.0,0.0,0.0,0.0,0.0,0.0,0.0,0.0,0.0,0.0,0.0,0.0,1.1158,1.1613,1.3273,1.2264,1.1364,1.0845,0.0,0.0,0.0,0.0,0.0,0.0,0.0,0.0,0.0,0.0,0.0,0.0,0.0,0.0,0.0,0.0,0.0,0.0,0.0,0.0,0.0,0.0,0.0,0.0,0.0,0.0,0.0,0.0,0.0,0.0,0.0,0.0,0.0,0.0,0.0,0.0,0.0,0.0,0.0,0.0,0.0,0.0,0.0,0.0,0.0,0.0,0.0,0.0,0.0,0.0,0.0,0.0,0.0,0.0,0.0,0.0,0.0,0.0,0.0,0.0,0.0,0.0,0.0,0.0,0.0,0.0,0.0,0.0,0.0,0.0,0.0,0.0,0.0,0.0,0.0,0.0,0.0,0.0,0.0,0.0,0.0,0.0,0.0,0.0,0.0,0.0,0.0,0.0,0.0,0.0,0.0,0.0,0.0,0.0,0.0,0.0,0.0,0.0,0.0,0.0,0.0,0.0,0.0,0.0,0.0,0.0,0.0,0.0,1.5741,1.3621,1.3474,1.5536,1.1996,1.0994,0.0,0.0,0.0,0.0,0.0,0.0,0.0,0.0,0.0,0.0,0.0,0.0,0.0,0.0,0.0,0.0,0.0,0.0,0.0,0.0,0.0,0.0,0.0,0.0,0.0,0.0,0.0,0.0,0.0,0.0,0.0,0.0,0.0,0.0,0.0,0.0,0.0,0.0,0.0,0.0,0.0,0.0,0.0,0.0,0.0,0.0,0.0,0.0,0.0,0.0,0.0,0.0,0.0,0.0,0.0,0.0,0.0,0.0,0.0,0.0,0.0,0.0,0.0,0.0,0.0,0.0,0.0,0.0,0.0,0.0,0.0,0.0,0.0,0.0,0.0,0.0,0.0,0.0,0.0,0.0,0.0,0.0,0.0,0.0,0.0,0.0,0.0,0.0,0.0,0.0,0.0,0.0,0.0,0.0,0.0,0.0,0.0,0.0,0.0,0.0,0.0,0.0,0.0,0.0,0.0,0.0,0.0,0.0,0.0,1.2276,1.2401,1.2553,1.2799,1.1887,1.1565,0.0,0.0,0.0,0.0,0.0,0.0,0.0,0.0,0.0,0.0,0.0,0.0,0.0,0.0,0.0,0.0,0.0,0.0,0.0,0.0,0.0,0.0,0.0,0.0,0.0,0.0,0.0,0.0,0.0,0.0,0.0,0.0,0.0,0.0,0.0,0.0,0.0,0.0,0.0,0.0,0.0,0.0,0.0,0.0,0.0,0.0,0.0,0.0,0.0,0.0,0.0,0.0,0.0,0.0,0.0,0.0,0.0,0.0,0.0,0.0,0.0,0.0,0.0,0.0,0.0,0.0,0.0,0.0,0.0,0.0,0.0,0.0,0.0,0.0,0.0,0.0,0.0,0.0,0.0,0.0,0.0,0.0,0.0,0.0,0.0,0.0,0.0,0.0,0.0,0.0,0.0,0.0,0.0,0.0,0.0,0.0,0.0,0.0,0.0,0.0,0.0,0.0,0.0,0.0,0.0,0.0,0.0,0.0,0.0,1.0842,0.0,1.2131,1.1517,1.1487,1.1203,0.0,0.0,0.0,0.0,0.0,0.0,0.0,0.0,0.0,0.0,0.0,0.0,0.0,0.0,0.0,0.0,0.0,0.0,0.0,0.0,0.0,0.0,0.0,0.0,0.0,0.0,0.0,0.0,0.0,0.0,0.0,0.0,0.0,0.0,0.0,0.0,0.0,0.0,0.0,0.0,0.0,0.0,0.0,0.0,0.0,0.0,0.0,0.0,0.0,0.0,0.0,0.0,0.0,0.0,0.0,0.0,0.0,0.0,0.0,0.0,0.0,0.0,0.0,0.0,0.0,0.0,0.0,0.0,0.0,0.0,0.0,0.0,0.0,0.0,0.0,0.0,0.0,0.0,0.0,0.0,0.0,0.0,0.0,0.0,0.0,0.0,0.0,0.0,0.0,0.0,0.0,0.0,0.0,0.0,0.0,0.0,0.0,0.0,0.0,0.0,0.0,0.0,0.0,0.0,0.0,0.0,0.0,0.0,1.0838,1.2267,1.2401,1.2423,1.2277,1.0744,0.9859,0.0,0.0,0.0,0.0,0.0,0.0,0.0,0.0,0.0,0.0,0.0,0.0,0.0,0.0,0.0,0.0,0.0,0.0,0.0,0.0,0.0,0.0,0.0,0.0,0.0,0.0,0.0,0.0,0.0,0.0,0.0,0.0,0.0,0.0,0.0,0.0,0.0,0.0,0.0,0.0,0.0,0.0,0.0,0.0,0.0,0.0,0.0,0.0,0.0,0.0,0.0,0.0,0.0,0.0,0.0,0.0,0.0,0.0,0.0,0.0,0.0,0.0,0.0,0.0,0.0,0.0,0.0,0.0,0.0,0.0,0.0,0.0,0.0,0.0,0.0,0.0,0.0,0.0,0.0,0.0,0.0,0.0,0.0,0.0,0.0,0.0,0.0,0.0,0.0,0.0,0.0,0.0,0.0,0.0,0.0,0.0,0.0,0.0,0.0,0.0,0.0,0.0,0.0,0.0,0.0,0.0,0.0,0.0,0.0,1.0766,1.1817,1.2627,1.3038,1.0956,1.0867,0.0,0.0,0.0,0.0,0.0,0.0,0.0,0.0,0.0,0.0,0.0,0.0,0.0,0.0,0.0,0.0,0.0,0.0,0.0,0.0,0.0,0.0,0.0,0.0,0.0,0.0,0.0,0.0,0.0,0.0,0.0,0.0,0.0,0.0,0.0,0.0,0.0,0.0,0.0,0.0,0.0,0.0,0.0,0.0,0.0,0.0,0.0,0.0,0.0,0.0,0.0,0.0,0.0,0.0,0.0,0.0,0.0,0.0,0.0,0.0,0.0,0.0,0.0,0.0,0.0,0.0,0.0,0.0,0.0,0.0,0.0,0.0,0.0,0.0,0.0,0.0,0.0,0.0,0.0,0.0,0.0,0.0,0.0,0.0,0.0,0.0,0.0,0.0,0.0,0.0,0.0,0.0,0.0,0.0,0.0,0.0,0.0,0.0,0.0,0.0,0.0,0.0,0.0,0.0,0.0,0.0,0.0,0.0,0.0,1.1397,1.198,1.2539,1.3061,1.1546,1.1535,1.3198,0.0,0.0,0.0,0.0,0.0,0.0,0.0,0.0,0.0,0.0,0.0,0.0,0.0,0.0,0.0,0.0,0.0,0.0,0.0,0.0,0.0,0.0,0.0,0.0,0.0,0.0,0.0,0.0,0.0,0.0,0.0,0.0,0.0,0.0,0.0,0.0,0.0,0.0,0.0,0.0,0.0,0.0,0.0,0.0,0.0,0.0,0.0,0.0,0.0,0.0,0.0,0.0,0.0,0.0,0.0,0.0,0.0,0.0,0.0,0.0,0.0,0.0,0.0,0.0,0.0,0.0,0.0,0.0,0.0,0.0,0.0,0.0,0.0,0.0,0.0,0.0,0.0,0.0,0.0,0.0,0.0,0.0,0.0,0.0,0.0,0.0,0.0,0.0,0.0,0.0,0.0,0.0,0.0,0.0,0.0,0.0,0.0,0.0,0.0,0.0,0.0,0.0,0.0,0.0,0.0,0.0,0.0,0.0,1.3764,1.2991,1.2624,1.2645,1.2461,1.2017,0.0,0.0,0.0,0.0,0.0,0.0,0.0,0.0,0.0,0.0,0.0,0.0,0.0,0.0,0.0,0.0,0.0,0.0,0.0,0.0,0.0,0.0,0.0,0.0,0.0,0.0,0.0,0.0,0.0,0.0,0.0,0.0,0.0,0.0,0.0,0.0,0.0,0.0,0.0,0.0,0.0,0.0,0.0,0.0,0.0,0.0,0.0,0.0,0.0,0.0,0.0,0.0,0.0,0.0,0.0,0.0,0.0,0.0,0.0,0.0,0.0,0.0,0.0,0.0,0.0,0.0,0.0,0.0,0.0,0.0,0.0,0.0,0.0,0.0,0.0,0.0,0.0,0.0,0.0,0.0,0.0,0.0,0.0,0.0,0.0,0.0,0.0,0.0,0.0,0.0,0.0,0.0,0.0,0.0,0.0,0.0,0.0,0.0,0.0,0.0,0.0,0.0,0.0,0.0,0.0,0.0,0.0,0.0,0.0,1.5422,1.5744,1.5902,1.5881,1.4148,1.3653,0.0,0.0,0.0,0.0,0.0,0.0,0.0,0.0,0.0,0.0,0.0,0.0,0.0,0.0,0.0,0.0,0.0,0.0,0.0,0.0,0.0,0.0,0.0,0.0,0.0,0.0,0.0,0.0,0.0,0.0,0.0,0.0,0.0,0.0,0.0,0.0,0.0,0.0,0.0,0.0,0.0,0.0,0.0,0.0,0.0,0.0,0.0,0.0,0.0,0.0,0.0,0.0,0.0,0.0,0.0,0.0,0.0,0.0,0.0,0.0,0.0,0.0,0.0,0.0,0.0,0.0,0.0,0.0,0.0,0.0,0.0,0.0,0.0,0.0,0.0,0.0,0.0,0.0,0.0,0.0,0.0,0.0,0.0,0.0,0.0,0.0,0.0,0.0,0.0,0.0,0.0,0.0,0.0,0.0,0.0,0.0,0.0,0.0,0.0,0.0,0.0,0.0,0.0,0.0,0.0,0.0,0.0,0.0,1.4976,1.6578,1.7681,1.8415,1.8732,1.6329,1.4961,0.0,0.0,0.0,0.0,0.0,0.0,0.0,0.0,0.0,0.0,0.0,0.0,0.0,0.0,0.0,0.0,0.0,0.0,0.0,0.0,0.0,0.0,0.0,0.0,0.0,0.0,0.0,0.0,0.0,0.0,0.0,0.0,0.0,0.0,0.0,0.0,0.0,0.0,0.0,0.0,0.0,0.0,0.0,0.0,0.0,0.0,0.0,0.0,0.0,0.0,0.0,0.0,0.0,0.0,0.0,0.0,0.0,0.0,0.0,0.0,0.0,0.0,0.0,0.0,0.0,0.0,0.0,0.0,0.0,0.0,0.0,0.0,0.0,0.0,0.0,0.0,0.0,0.0,0.0,0.0,0.0,0.0,0.0,0.0,0.0,0.0,0.0,0.0,0.0,0.0,0.0,0.0,0.0,0.0,0.0,0.0,0.0,0.0,0.0,0.0,0.0,0.0,0.0,0.0,0.0,0.0,0.0,0.0,1.5676,1.7264,1.8854,2.0033,2.0674,1.84,1.6093,0.0,0.0,0.0,0.0,0.0,0.0,0.0,0.0,0.0,0.0,0.0,0.0,0.0,0.0,0.0,0.0,0.0,0.0,0.0,0.0,0.0,0.0,0.0,0.0,0.0,0.0,0.0,0.0,0.0,0.0,0.0,0.0,0.0,0.0,0.0,0.0,0.0,0.0,0.0,0.0,0.0,0.0,0.0,0.0,0.0,0.0,0.0,0.0,0.0,0.0,0.0,0.0,0.0,0.0,0.0,0.0,0.0,0.0,0.0,0.0,0.0,0.0,0.0,0.0,0.0,0.0,0.0,0.0,0.0,0.0,0.0,0.0,0.0,0.0,0.0,0.0,0.0,0.0,0.0,0.0,0.0,0.0,0.0,0.0,0.0,0.0,0.0,0.0,0.0,0.0,0.0,0.0,0.0,0.0,0.0,0.0,0.0,0.0,0.0,0.0,0.0,0.0,0.0,0.0,0.0,0.0,0.0,0.0,1.5677,1.7267,1.8858,1.9774,1.9873,1.8118,1.6927,0.0,0.0,0.0,0.0,0.0,0.0,0.0,0.0,0.0,0.0,0.0,0.0,0.0,0.0,0.0,0.0,0.0,0.0,0.0,0.0,0.0,0.0,0.0,0.0,0.0,0.0,0.0,0.0,0.0,0.0,0.0,0.0,0.0,0.0,0.0,0.0,0.0,0.0,0.0,0.0,0.0,0.0,0.0,0.0,0.0,0.0,0.0,0.0,1.1118,0.0,0.0,0.0,0.0,0.0,0.0,0.0,0.0,0.0,0.0,0.0,0.0,0.0,0.0,0.0,0.0,0.0,0.0,0.0,0.0,0.0,0.0,0.0,0.0,0.0,0.0,0.0,0.0,0.0,0.0,0.0,0.0,0.0,0.0,0.0,0.0,0.0,0.0,0.0,0.0,0.0,0.0,0.0,0.0,0.0,0.0,0.0,0.0,0.0,0.0,0.0,0.0,0.0,0.0,0.0,0.0,0.0,0.0,0.0,1.5066,1.6651,1.794,1.8721,1.8952,1.7471,1.6611,0.0,0.0,0.0,0.0,0.0,0.0,0.0,0.0,0.0,0.0,0.0,0.0,0.0,0.0,0.0,0.0,0.0,0.0,0.0,0.0,0.0,0.0,0.0,0.0,0.0,0.0,0.0,0.0,0.0,0.0,0.0,0.0,0.0,0.0,0.0,0.0,0.0,0.0,0.0,0.0,0.0,0.0,0.0,0.0,0.0,0.0,0.0,0.0,0.0,0.0,0.0,0.0,0.0,0.0,0.0,0.0,0.0,0.0,0.0,0.0,0.0,0.0,0.0,0.0,0.0,0.0,0.0,0.0,0.0,0.0,0.0,0.0,0.0,0.0,0.0,0.0,0.0,0.0,0.0,0.0,0.0,0.0,0.0,0.0,0.0,0.0,0.0,0.0,0.0,0.0,0.0,0.0,0.0,0.0,0.0,0.0,0.0,0.0,0.0,0.0,0.0,0.0,0.0,0.0,0.0,0.0,0.0,1.3297,1.4325,1.5778,1.679,1.7524,1.7981,1.6701,1.596,1.5903,0.0,0.0,0.0,0.0,0.0,0.0,0.0,0.0,0.0,0.0,0.0,0.0,0.0,0.0,0.0,0.0,0.0,0.0,0.0,0.0,0.0,0.0,0.0,0.0,0.0,0.0,0.0,0.0,0.0,0.0,0.0,0.0,0.0,0.0,0.0,0.0,0.0,0.0,1.2096,1.3189,0.0,0.0,0.0,0.0,0.0,0.0,0.0,0.0,1.2064,0.0,0.0,0.0,0.0,0.0,0.0,0.0,0.0,0.0,0.0,0.0,0.0,0.0,0.0,0.0,0.0,0.0,0.0,0.0,0.0,0.0,0.0,0.0,0.0,0.0,0.0,0.0,0.0,0.0,0.0,0.0,0.0,0.0,0.0,0.0,0.0,0.0,0.0,0.0,0.0,0.0,0.0,0.0,0.0,0.0,0.0,0.0,0.0,0.0,0.0,0.0,0.0,0.0,0.0,0.0,0.0,1.3551,1.3652,1.4133,1.5,1.6498,1.6971,1.6343,1.6057,1.5904,1.5866,0.0,0.0,0.0,0.0,0.0,0.0,0.0,0.0,0.0,0.0,0.0,0.0,0.0,0.0,0.0,0.0,0.0,0.0,0.0,0.0,0.0,0.0,0.0,0.0,0.0,0.0,0.0,0.0,0.0,0.0,0.0,0.0,0.0,0.0,0.0,0.0,0.0,0.0,0.0,1.3349,1.3986,0.0,0.0,0.0,0.0,0.0,0.0,0.0,0.0,1.3782,0.0,0.0,0.0,0.0,0.0,0.0,0.0,0.0,0.0,0.0,0.0,0.0,0.0,0.0,0.0,0.0,0.0,0.0,0.0,0.0,0.0,0.0,0.0,0.0,0.0,0.0,0.0,0.0,0.0,0.0,0.0,0.0,0.0,0.0,0.0,0.0,0.0,0.0,0.0,0.0,0.0,0.0,0.0,0.0,0.0,0.0,0.0,0.0,0.0,0.0,0.0,0.0,0.0,0.0,0.0,1.3685,1.3285,1.34,1.4176,1.5385,1.5589,1.4727,1.4173,1.4524,0.0,0.0,0.0,0.0,0.0,0.0,0.0,0.0,0.0,0.0,0.0,0.0,0.0,0.0,0.0,0.0,0.0,0.0,0.0,0.0,0.0,0.0,0.0,0.0,0.0,0.0,0.0,0.0,0.0,0.0,0.0,0.0,0.0,0.0,0.0,0.0,0.0,0.0,0.0,0.0,1.3386,1.3923,1.3947,0.0,0.0,0.0,0.0,0.0,0.0,1.4756,1.4762,0.0,0.0,0.0,0.0,0.0,0.0,0.0,0.0,0.0,0.0,0.0,0.0,0.0,0.0,0.0,0.0,0.0,0.0,0.0,0.0,0.0,0.0,0.0,0.0,0.0,0.0,0.0,0.0,0.0,0.0,0.0,0.0,0.0,0.0,0.0,0.0,0.0,0.0,0.0,0.0,0.0,0.0,0.0,0.0,0.0,0.0,0.0,0.0,0.0,0.0,0.0,0.0,0.0,0.0,0.0,1.3717,1.3036,1.2884,1.3368,1.4317,1.4345,1.3371,1.2844,1.3611,0.0,0.0,0.0,0.0,0.0,0.0,0.0,0.0,0.0,0.0,0.0,0.0,0.0,0.0,0.0,0.0,0.0,0.0,0.0,0.0,0.0,0.0,0.0,0.0,0.0,0.0,0.0,0.0,0.0,0.0,0.0,0.0,0.0,0.0,0.0,0.0,0.0,0.0,0.0,0.0,0.0,1.4536,1.4232,1.5056,0.0,0.0,0.0,0.0,1.5549,1.5952,0.0,0.0,0.0,0.0,0.0,0.0,0.0,0.0,0.0,0.0,0.0,0.0,0.0,0.0,0.0,0.0,0.0,0.0,0.0,0.0,0.0,0.0,0.0,0.0,0.0,0.0,0.0,0.0,0.0,0.0,0.0,0.0,0.0,0.0,0.0,0.0,0.0,0.0,0.0,0.0,0.0,0.0,0.0,0.0,0.0,0.0,0.0,0.0,0.0,0.0,0.0,0.0,0.0,0.0,0.0,0.0,1.38,1.364,1.3233,1.2632,1.4016,1.4054,1.252,1.3766,1.4929,0.0,0.0,0.0,0.0,0.0,0.0,0.0,0.0,0.0,0.0,0.0,0.0,0.0,0.0,0.0,0.0,0.0,0.0,0.0,0.0,0.0,0.0,0.0,0.0,0.0,0.0,0.0,0.0,0.0,0.0,0.0,0.0,0.0,0.0,0.0,0.0,0.0,0.0,0.0,0.0,0.0,1.6723,1.525,1.64,1.717,0.0,0.0,1.811,1.7488,1.8632,0.0,0.0,0.0,0.0,0.0,0.0,0.0,0.0,0.0,0.0,0.0,0.0,0.0,0.0,0.0,0.0,0.0,0.0,0.0,0.0,0.0,0.0,0.0,0.0,0.0,0.0,0.0,0.0,0.0,0.0,0.0,0.0,0.0,0.0,0.0,0.0,0.0,0.0,0.0,0.0,0.0,0.0,0.0,0.0,0.0,0.0,0.0,0.0,0.0,0.0,0.0,0.0,0.0,0.0,0.0,1.408,1.4474,1.3493,1.2994,1.3094,1.3762,1.3772,1.3069,1.2346,1.3449,0.0,0.0,0.0,0.0,0.0,0.0,0.0,0.0,0.0,0.0,0.0,0.0,0.0,0.0,0.0,0.0,0.0,0.0,0.0,0.0,0.0,0.0,0.0,0.0,0.0,0.0,0.0,0.0,0.0,0.0,0.0,0.0,0.0,0.0,0.0,0.0,0.0,0.0,0.0,0.0,0.0,0.0,1.5978,1.6912,0.0,0.0,0.0,1.9161,1.9933,0.0,0.0,0.0,0.0,0.0,0.0,0.0,0.0,0.0,0.0,0.0,0.0,0.0,0.0,0.0,0.0,0.0,0.0,0.0,0.0,0.0,0.0,0.0,0.0,0.0,0.0,0.0,0.0,0.0,0.0,0.0,0.0,0.0,0.0,0.0,0.0,0.0,0.0,0.0,0.0,0.0,0.0,0.0,0.0,0.0,0.0,0.0,0.0,0.0,0.0,0.0,0.0,0.0,0.0,0.0,0.0,0.0,1.5054,1.355,1.2997,1.3593,1.3612,1.3411,1.3018,1.1357,0.0,0.0,0.0,0.0,0.0,0.0,0.0,0.0,0.0,0.0,0.0,0.0,0.0,0.0,0.0,0.0,0.0,0.0,0.0,0.0,0.0,0.0,0.0,0.0,0.0,0.0,0.0,1.4935,0.0,0.0,0.0,0.0,0.0,0.0,0.0,0.0,0.0,0.0,0.0,0.0,0.0,0.0,1.76,1.7386,1.8256,1.906,0.0,0.0,2.043,2.1235,2.1378,2.1282,0.0,0.0,0.0,0.0,0.0,0.0,0.0,0.0,0.0,0.0,0.0,0.0,0.0,0.0,0.0,0.0,0.0,0.0,0.0,0.0,0.0,0.0,0.0,0.0,0.0,0.0,0.0,0.0,0.0,0.0,0.0,0.0,0.0,0.0,0.0,0.0,0.0,0.0,0.0,0.0,0.0,0.0,0.0,0.0,0.0,0.0,0.0,0.0,0.0,0.0,0.0,0.0,0.0,0.0,0.0,1.5073,1.4125,1.358,1.3612,1.3612,1.2913,1.1541,1.2014,1.3167,0.0,0.0,0.0,0.0,0.0,0.0,0.0,0.0,0.0,0.0,0.0,0.0,0.0,0.0,0.0,0.0,0.0,0.0,0.0,0.0,0.0,0.0,0.0,0.0,0.0,0.0,0.0,0.0,0.0,0.0,0.0,0.0,0.0,0.0,0.0,0.0,0.0,0.0,0.0,0.0,0.0,2.0839,2.0057,2.1292,2.2018,0.0,0.0,2.2792,2.0575,2.283,2.3452,1.94,0.0,0.0,0.0,0.0,0.0,0.0,0.0,0.0,0.0,0.0,0.0,0.0,0.0,0.0,0.0,0.0,0.0,0.0,0.0,0.0,0.0,0.0,0.0,0.0,0.0,0.0,0.0,0.0,0.0,0.0,0.0,0.0,0.0,0.0,0.0,0.0,0.0,0.0,0.0,0.0,0.0,0.0,0.0,0.0,0.0,0.0,0.0,0.0,0.0,0.0,0.0,0.0,0.0,1.512,1.5092,1.3652,1.3352,1.4269,1.3368,1.3058,1.3443,1.1971,1.2115,0.0,0.0,0.0,0.0,0.0,0.0,0.0,0.0,0.0,0.0,0.0,0.0,0.0,0.0,0.0,0.0,0.0,0.0,0.0,0.0,0.0,0.0,0.0,0.0,0.0,0.0,0.0,0.0,1.2761,1.3364,1.5016,0.0,0.0,0.0,0.0,0.0,0.0,0.0,0.0,0.0,0.0,2.0922,2.1589,2.222,0.0,0.0,2.2371,2.3135,2.3242,2.3422,2.2677,1.9926,2.0202,0.0,0.0,0.0,0.0,0.0,0.0,0.0,0.0,0.0,0.0,0.0,0.0,0.0,0.0,0.0,0.0,0.0,0.0,0.0,0.0,0.0,0.0,0.0,0.0,0.0,0.0,0.0,0.0,0.0,0.0,0.0,0.0,0.0,0.0,0.0,0.0,0.0,0.0,0.0,0.0,0.0,0.0,0.0,0.0,0.0,0.0,0.0,0.0,0.0,0.0,0.0,0.0,1.5369,1.5092,1.3349,1.3212,1.4766,1.3217,1.2734,1.3374,1.1404,1.0977,0.0,0.0,0.0,0.0,0.0,0.0,0.0,0.0,0.0,0.0,0.0,0.0,0.0,0.0,0.0,0.0,0.0,0.0,0.0,0.0,0.0,0.0,0.0,0.0,0.0,0.0,0.0,0.0,1.3682,1.4372,1.5475,0.0,0.0,0.0,0.0,0.0,0.0,0.0,0.0,0.0,0.0,2.132,2.2439,2.304,2.3097,2.2267,2.283,2.3632,2.4312,2.3823,2.2811,2.1129,0.0,0.0,0.0,0.0,0.0,0.0,0.0,0.0,0.0,0.0,0.0,0.0,0.0,0.0,0.0,0.0,0.0,0.0,0.0,0.0,0.0,0.0,0.0,0.0,0.0,0.0,0.0,0.0,0.0,0.0,1.472,0.0,0.0,0.0,0.0,0.0,0.0,0.0,0.0,0.0,0.0,0.0,0.0,0.0,0.0,0.0,0.0,0.0,0.0,0.0,0.0,0.0,0.0,1.5926,1.5112,1.3417,1.3274,1.4691,1.3244,1.183,1.0617,1.0346,1.0043,0.952,0.0,0.0,0.0,0.0,0.0,0.0,0.0,0.0,0.0,0.0,0.0,0.0,0.0,0.0,0.0,0.0,0.0,0.0,0.0,0.0,0.0,0.0,0.0,0.0,0.0,0.0,1.7514,1.7086,1.6651,0.0,0.0,0.0,0.0,0.0,0.0,0.0,0.0,0.0,0.0,2.2325,2.2543,2.262,2.4064,2.4771,2.3919,2.456,2.456,2.2963,2.4025,2.456,0.0,0.0,0.0,0.0,0.0,0.0,0.0,0.0,0.0,0.0,0.0,0.0,0.0,0.0,0.0,0.0,0.0,0.0,0.0,0.0,0.0,0.0,0.0,0.0,0.0,0.0,0.0,1.5481,1.5499,0.0,0.0,0.0,0.0,0.0,0.0,0.0,0.0,0.0,0.0,0.0,1.6476,1.7814,0.0,0.0,0.0,0.0,0.0,0.0,0.0,0.0,0.0,0.0,0.0,0.0,1.5696,1.5807,1.4171,1.3777,1.4729,1.3762,1.3233,1.3262,1.2328,1.2476,1.3806,0.0,0.0,0.0,0.0,0.0,0.0,0.0,0.0,0.0,0.0,0.0,0.0,0.0,0.0,0.0,0.0,0.0,0.0,0.0,0.0,0.0,0.0,0.0,0.0,0.0,1.8645,0.0,0.0,0.0,0.0,0.0,0.0,0.0,0.0,0.0,0.0,0.0,2.0361,2.0696,2.1819,2.2811,2.3384,2.4454,2.4885,0.0,0.0,0.0,0.0,0.0,0.0,0.0,0.0,0.0,0.0,0.0,0.0,0.0,0.0,2.366,2.1357,2.1081,2.1608,2.2867,0.0,0.0,0.0,0.0,0.0,0.0,0.0,0.0,0.0,0.0,0.0,0.0,0.0,0.0,0.0,0.0,1.5878,0.0,0.0,0.0,0.0,0.0,0.0,0.0,0.0,1.73,1.757,1.6835,1.7922,1.8628,0.0,1.9658,2.0095,0.0,0.0,0.0,0.0,0.0,0.0,0.0,0.0,1.6285,1.6655,1.5027,1.4619,1.5573,1.4579,1.4278,1.4829,1.3415,1.337,1.4939,1.2809,1.2879,0.0,0.0,0.0,0.0,0.0,0.0,0.0,0.0,0.0,0.0,0.0,0.0,0.0,0.0,0.0,0.0,0.0,0.0,0.0,0.0,0.0,0.0,0.0,1.8231,0.0,0.0,0.0,0.0,0.0,0.0,0.0,0.0,0.0,2.0301,2.0455,2.0774,2.1235,2.2314,2.325,2.3823,0.0,0.0,0.0,0.0,0.0,0.0,0.0,2.3643,2.4014,2.4713,2.4828,2.3703,2.373,2.3892,2.39,0.0,0.0,2.1532,2.1644,2.2321,2.3084,2.3765,2.4021,2.3358,2.2919,2.269,0.0,0.0,0.0,0.0,0.0,0.0,0.0,0.0,1.4659,1.5135,0.0,1.5991,0.0,0.0,0.0,0.0,0.0,1.8055,0.0,0.0,1.8295,1.8365,1.7757,1.7802,1.8255,1.9097,1.9154,1.9599,2.0354,2.0392,0.0,0.0,0.0,0.0,0.0,0.0,1.7675,1.7565,1.5893,1.5733,1.7149,1.5713,1.4968,1.5043,1.3609,1.2895,1.3053,1.4844,1.504,1.3246,1.7968,0.0,0.0,0.0,0.0,0.0,0.0,0.0,0.0,0.0,0.0,0.0,0.0,0.0,0.0,0.0,0.0,0.0,0.0,0.0,0.0,1.7285,0.0,0.0,0.0,0.0,0.0,0.0,0.0,0.0,0.0,0.0,2.0595,2.0996,2.1952,2.3288,0.0,0.0,0.0,0.0,2.4905,2.4072,2.4656,2.5191,2.5191,2.5172,2.5172,2.5172,0.0,0.0,2.5191,2.4503,2.3968,2.3938,2.3365,2.2677,2.2707,2.3845,2.4427,2.3146,2.4075,2.4862,2.4197,2.3378,2.2715,1.6384,0.0,0.0,0.0,0.0,1.6205,1.6698,1.7169,1.7109,1.7291,1.7634,1.7671,0.0,0.0,0.0,0.0,0.0,0.0,1.8106,1.7418,1.8861,1.9101,1.8295,1.9049,1.9523,1.9744,1.9835,1.9981,2.0184,2.0242,2.0313,2.0379,0.0,0.0,0.0,0.0,1.7944,1.8357,1.7281,1.6876,1.7281,1.683,1.6593,1.6639,1.515,1.5384,1.7589,1.5102,1.5466,1.9182,1.9273,0.0,0.0,0.0,0.0,0.0,0.0,0.0,0.0,0.0,0.0,0.0,0.0,0.0,0.0,0.0,0.0,0.0,0.0,0.0,2.1167,2.1064,2.1157,0.0,0.0,0.0,0.0,0.0,0.0,0.0,0.0,0.0,2.3643,2.2859,2.2573,0.0,0.0,2.39,2.39,2.4656,2.5115,2.4866,0.0,0.0,0.0,2.521,2.521,2.521,2.521,2.521,2.521,2.5,2.4828,2.4828,2.4606,2.4465,2.4408,2.3777,2.3651,2.4274,2.4885,2.5145,2.4889,2.4599,2.4381,1.806,1.7712,1.7039,1.6717,1.6711,1.7006,1.7355,1.7688,1.7605,1.7845,1.8302,1.8273,1.8453,1.8803,1.8302,0.0,0.0,0.0,1.8768,1.8338,1.9371,1.9564,1.913,1.9703,2.0011,2.0059,2.015,2.0172,2.0131,2.0172,2.0231,2.0301,0.0,0.0,2.0308,1.8943,1.8547,1.9173,1.8364,1.8027,1.8286,1.8294,1.8125,1.7757,1.7179,1.7756,1.9574,1.6987,1.694,2.0039,2.0082,1.914,0.0,0.0,0.0,0.0,0.0,0.0,0.0,0.0,0.0,0.0,0.0,2.2527,0.0,0.0,0.0,0.0,1.9625,1.9976,2.0276,2.0992,0.0,0.0,0.0,0.0,0.0,0.0,0.0,2.4156,2.3886,2.4075,2.5038,2.4293,2.3594,2.3518,2.4033,2.4415,2.4415,0.0,2.521,2.521,2.521,2.521,2.521,2.521,2.521,2.521,2.521,2.521,2.521,2.521,2.521,2.521,2.521,2.521,2.521,2.4331,2.39,2.4962,2.521,2.521,2.521,2.5144,2.5076,2.0158,2.0565,1.9113,1.8368,1.819,1.8111,1.7742,1.7209,1.7136,1.7599,1.8393,1.8361,1.8879,1.9801,1.9727,0.0,1.9794,1.9731,1.9725,1.9795,1.9795,1.9849,1.9896,1.9907,1.996,2.0079,2.0159,2.0142,2.0084,2.0161,2.0161,2.0111,2.0352,2.0417,2.025,1.9469,1.9351,1.988,1.9166,1.9111,1.977,1.9795,1.9401,1.8643,1.9313,1.9701,1.9699,1.9699,1.9077,1.7859,2.0505,2.0083,1.5973,0.0,0.0,0.0,0.0,0.0,0.0,0.0,0.0,0.0,0.0,0.0,0.0,0.0,0.0,0.0,1.7029,0.0,1.7092,1.8963,0.0,0.0,0.0,2.4485,2.5207,2.5243,2.5212,2.5201,0.0,0.0,2.521,0.0,2.4828,2.3766,2.456,2.521,2.521,2.5191,2.521,2.521,2.521,2.521,2.521,2.521,2.521,2.521,2.521,2.521,2.521,2.521,2.521,2.521,2.521,2.521,2.521,2.5103,2.518,2.5149,2.5199,2.518,2.5168,2.5044,2.4947,2.1555,2.1467,2.1097,2.0551,1.9945,2.0354,2.0587,2.0668,2.0556,2.0446,2.0377,2.0951,2.1328,2.1477,2.0858,2.0606,2.0597,1.9969,1.9732,1.9795,1.9795,1.9801,1.9825,1.9862,1.9909,1.996,2.006,1.9781,1.9179,1.98,1.9771,1.9224,2.0439,2.0784,2.0153,1.9879,1.9791,1.9907,1.9665,1.9613,1.9807,1.9795,1.9682,1.9507,1.9682,1.9763,1.9782,1.9712,2.0085,2.0923,2.1631,2.1004,1.8853,2.2372,0.0,0.0,0.0,0.0,0.0,0.0,0.0,0.0,0.0,2.4285,2.4473,0.0,2.2739,0.0,1.8253,1.9364,2.273,2.3512,0.0,0.0,2.4725,2.5062,2.5214,2.5203,2.522,2.5214,2.5203,2.521,2.521,2.521,2.5115,2.4847,2.5019,2.521,2.521,2.521,2.521,2.521,2.521,2.521,2.521,2.521,2.521,2.521,2.521,2.521,2.521,2.521,2.521,2.521,2.521,2.521,2.5191,2.5175,2.5076,2.4987,2.5,2.5057,2.5025,2.4974,2.4888,2.2768,2.2936,2.255,2.2056,2.1602,2.1571,2.1494,2.1424,2.1631,2.1435,2.097,2.173,2.2009,2.1893,2.157,2.147,2.1498,2.103,2.0632,2.0333,2.0314,2.0145,1.9807,1.983,2.0035,2.0387,2.0139,2.0143,2.0361,2.0212,2.0184,2.0401,2.0972,2.1206,2.1104,2.1066,2.1032,2.0979,2.0954,2.0727,2.037,2.0708,2.0746,2.0352,2.0727,2.0902,2.087,2.0856,2.1396,2.2551,2.2632,2.1766,1.9982,2.2777,2.1514,0.0,0.0,0.0,0.0,0.0,0.0,0.0,0.0,0.0,0.0,0.0,2.4015,0.0,1.9983,2.0689,2.4801,2.5182,2.5222,2.5302,2.5312,2.5273,2.5212,2.5201,2.5198,2.5214,2.5203,2.521,2.521,2.521,2.521,2.521,2.521,2.521,2.521,2.521,2.521,2.521,2.521,2.521,2.521,2.521,2.521,2.521,2.521,2.521,2.521,2.521,2.518,2.5175,2.5144,2.5144,2.5113,2.5044,2.4966,2.4865,2.4865,2.4921,2.4961,2.4902,2.4851,2.3462,2.4023,2.3266,2.2918,2.2793,2.2025,2.1482,2.1165,2.1717,2.1602,2.1022,2.1662,2.1863,2.1778,2.1891,2.2023,2.2121,2.1981,2.1512,2.0859,2.084,2.0483,1.9814,1.9795,2.0176,2.0809,2.0202,2.0645,2.204,2.0819,2.0934,2.2192,2.1775,2.1847,2.2458,2.2627,2.2577,2.2304,2.2304,2.1929,2.1197,2.191,2.1929,2.1234,2.1891,2.229,2.221,2.2257,2.2603,2.326,2.3353,2.2477,2.059,2.2997,2.329,0.0,2.2997,0.0,0.0,0.0,0.0,0.0,0.0,0.0,0.0,2.4753,2.4921,2.5201,2.1999,2.1382,2.4922,2.5253,2.5283,2.5292,2.5292,2.5262,2.5212,2.5209,2.5217,2.5206,2.5203,2.5229,2.5421,2.5382,2.5363,2.5593,2.5497,2.5509,2.5535,2.5485,2.5428,2.5344,2.5249,2.521,2.521,2.521,2.521,2.521,2.5199,2.5199,2.5187,2.5168,2.5144,2.5082,2.507,2.5038,2.4987,2.4934,2.4865,2.4719,2.4749,2.4808,2.4847,2.4837,2.4783,2.2356,2.2425,2.221,2.2087,2.2001,2.1855,2.2173,2.2828,2.2836,2.2548,2.2,2.1995,2.2039,2.2062,2.148,2.1207,2.1213,2.0551,2.017,2.0032,2.0032,1.9957,1.9795,1.9795,1.9912,2.01,1.9952,2.0082,2.0449,2.0826,2.1179,2.1537,2.2657,2.3297,2.3474,0.0,0.0,0.0,2.2304,2.2229,2.206,2.221,2.2229,2.206,2.2192,0.0,2.2271,2.2257,2.2574,2.3332,2.3353,0.0,0.0,0.0,0.0,0.0,0.0,0.0,0.0,0.0,0.0,0.0,2.4534,2.4532,2.4532,2.4749,2.4879,2.4804,2.4181,2.411,2.4892,2.508,2.5171,2.5293,2.5303,2.5283,2.5222,2.5201,2.5209,2.5203,2.521,2.5554,2.6326,2.6307,2.644,2.7014,2.6618,2.6496,2.709,2.6549,2.6174,2.6135,2.5688,2.5229,2.521,2.5229,2.521,2.5199,2.5132,2.5107,2.5114,2.5038,2.4974,2.4934,2.4947,2.4934,2.4931,2.4851,2.4794,2.4723,2.4723,2.4704,2.4734,2.4738,2.4723,2.2103,0.0,2.2012,2.1705,0.0,2.1683,2.1993,2.2168,2.2498,2.2473,2.2248,2.2036,2.2021,2.214,2.1789,2.1634,2.162,2.1202,2.0802,2.0389,2.0389,2.0183,1.9795,1.9795,2.0039,2.0432,2.0054,2.0285,2.1088,2.074,2.0967,2.1782,2.2267,2.2628,2.3016,2.3803,2.3969,2.3487,2.3487,2.3299,2.2938,2.3281,2.3299,2.2919,0.0,0.0,0.0,0.0,0.0,0.0,0.0,0.0,0.0,0.0,0.0,2.45,2.45,2.45,2.45,2.45,2.45,2.45,2.4549,2.4599,2.4599,2.4768,2.4865,2.4902,2.5031,2.5091,2.5103,2.5149,2.5233,2.5302,2.5302,2.5273,2.5261,2.5584,2.5876,2.5994,2.6242,2.667,2.7186,2.7128,2.7338,2.7931,2.7485,2.7191,2.751,2.6937,2.66,2.723,2.6058,2.5421,2.5822,2.5478,2.5199,2.5144,2.5126,2.507,2.5012,2.4947,2.4902,2.4847,2.4847,2.4851,2.4798,2.4768,2.4753,2.4707,2.4673,2.4673,2.4673,2.4673,2.4673,2.1811,2.1868,2.1719,2.1209,2.0541,2.1195,2.1235,2.0854,0.0,0.0,0.0,2.1757,2.1723,2.1723,2.1835,2.1867,2.1886,2.1872,2.1492,2.0828,2.0796,2.0521,2.0032,2.0014,2.037,2.0934,2.0346,2.0815,2.221,2.0965,2.1178,2.2588,2.2167,2.2174,2.2759,2.3389,2.4031,2.467,2.4673,2.4369,2.3761,2.4366,2.4369,2.3723,2.4332,2.4673,2.4673,2.4673,2.4676,2.4682,2.4631,2.4564,2.4495,2.4498,2.45,2.45,2.45,2.45,2.45,2.45,2.4572,2.4718,2.5,2.5008,2.4729,2.4911,2.5091,2.5228,2.5371,2.5493,2.5611,2.5477,2.5497,2.5631,2.5658,2.5646,2.5646,2.6197,2.6727,2.6975,2.7338,2.7759,2.7892,2.7931,2.816,2.858,2.83,2.7918,2.7841,2.7395,2.7433,2.8376,2.7472,2.644,2.6479,2.5867,2.5232,2.5126,2.507,2.5025,2.4902,2.4874,2.4832,2.4794,2.4779,2.4749,2.4704,2.4707,2.4673,2.4673,2.4673,2.4673,2.4673,2.4673,2.4673,2.0455,2.0998,2.0321,1.9913,1.9685,1.9847,1.994,2.012,2.1595,2.1519,2.0358,2.0903,2.0783,2.0231,2.0231,2.0231,2.0231,2.0189,2.0114,0.0,1.9982,2.0277,2.0821,2.0821,2.0877,2.1003,2.0929,2.1399,2.2187,2.2111,2.2942,2.4453,2.453,2.4448,2.4534,2.4538,2.4595,2.4673,2.4673,2.4651,2.452,2.4651,2.4651,2.4557,2.4632,2.4673,2.4673,2.4673,2.4692,2.4682,2.4631,2.4564,2.4512,2.4515,2.45,2.45,2.45,2.45,2.45,2.45,2.4847,2.5668,2.6414,2.6263,2.4876,2.5459,2.587,2.581,2.5911,2.6236,2.6691,2.6211,2.6136,2.6868,2.7009,2.7062,2.7075,2.7214,2.738,2.7574,2.7644,2.8032,2.8624,2.8739,2.9039,2.9612,2.9121,2.8712,2.8712,2.8649,2.8949,2.9707,2.9726,2.8752,2.73,2.5925,2.5385,2.5114,2.505,2.4996,2.4856,2.4798,2.4734,2.4723,2.4704,2.4704,2.4673,2.4673,2.4673,2.4673,2.4673,2.4673,2.4673,2.4673,2.4673,2.0225,2.0816,2.0062,1.9655,1.9574,1.9628,1.9701,1.9856,2.0668,2.0679,2.0124,2.0285,2.0198,2.0004,2.0418,2.0358,1.9987,2.0864,2.1015,2.066,2.1035,2.1406,2.1732,2.173,2.173,2.1764,2.179,2.1997,2.2343,2.2462,2.289,2.3556,2.3555,2.3515,2.3493,2.3869,2.405,2.405,2.4482,2.4673,2.4673,2.4673,2.4673,2.4673,2.4673,2.4673,2.4673,2.4673,2.4692,2.4676,2.4663,2.4615,2.4564,2.4513,2.4498,2.45,2.45,2.45,2.45,2.4974,2.5604,2.6391,2.6973,2.6946,2.608,2.6371,2.6615,2.6551,2.6681,2.6864,2.7172,2.6887,2.6827,2.7248,2.7399,2.7495,2.7608,2.803,2.83,2.8421,2.8804,2.9192,2.9555,2.9593,2.9707,3.007,2.9464,2.9069,2.947,2.9178,2.9178,2.9994,3.0185,2.9593,2.816,2.7166,2.6416,2.5876,2.5677,2.5367,2.4959,2.4734,2.4689,2.4673,2.4673,2.4673,2.4673,2.4673,2.4673,2.4673,2.4673,2.4673,2.4673,2.4673,2.4673,2.042,2.0931,2.0069,1.9675,1.9628,1.9649,1.9726,1.9823,1.9915,2.0124,2.0327,2.0026,1.992,2.0077,2.0834,2.088,2.0546,2.1817,2.2121,2.162,2.2117,2.2495,2.2671,2.2604,2.2636,2.2671,2.271,2.271,2.2691,2.2829,2.289,2.2895,2.29,2.2905,2.2849,2.3449,2.375,2.3806,2.4388,2.4673,2.4673,2.4673,2.4673,2.4673,2.4673,2.4673,2.4673,2.4673,2.4673,2.4673,2.4679,2.4666,2.4615,2.4564,2.4588,2.4759,2.4796,2.487,2.5093,2.5937,2.6683,2.7214,2.7631,2.7827,2.7693,2.7641,2.7529,2.7414,2.7426,2.7552,2.7759,2.7619,2.7614,2.7784,2.7998,2.8065,2.7979,2.8657,2.9117,2.9117,2.9563,2.9917,3.0089,2.986,2.9555,2.9407,2.9025,2.8962,2.9402,2.902,2.9,2.9459,2.9917,2.9555,2.8643,2.7969,2.716,2.6262,2.5937,2.5494,2.4974,2.4749,2.4723,2.4707,2.4673,2.4673,2.4673,2.4673,2.4673,2.4673,2.4673,2.4673,2.4673,2.4673,2.482,2.0939,2.0875,2.0195,1.9738,1.9711,1.9592,1.9694,1.9881,1.9832,2.0386,2.1091,2.0432,2.0088,2.0125,2.0953,2.1314,2.1246,2.2106,2.2524,2.2452,2.2413,2.2765,2.3464,2.3488,2.3488,2.3515,2.3619,2.3619,2.3528,2.3674,2.4067,2.4598,2.4733,2.459,2.4494,2.452,2.4576,2.4576,2.467,2.4673,2.4673,2.4673,2.4673,2.4673,2.4673,2.4673,2.4673,2.4673,2.4707,2.4673,2.4714,2.4682,2.4701,2.4634,2.4918,2.5575,2.5668,2.5948,2.6637,2.7604,2.8124,2.8312,2.8894,2.9307,2.9289,2.9211,2.8892,2.8372,2.811,2.8389,2.904,2.8671,2.8572,2.9154,2.9368,2.9352,2.8917,2.9345,2.9626,2.9059,2.909,2.9312,2.9803,2.9,2.8147,2.8324,2.8032,2.7892,2.8128,2.7963,2.7816,2.8198,2.9115,2.902,2.751,2.7319,2.695,2.5685,2.5273,2.5151,2.4946,2.4794,2.4764,2.4707,2.4673,2.4673,2.4673,2.4673,2.4673,2.4673,2.4673,2.4673,2.4673,2.4673,2.4933,2.206,2.2384,2.1582,2.0872,2.0392,2.0284,2.0143,1.993,2.0422,2.0674,2.0795,2.135,2.1598,2.1577,2.2435,2.2569,2.2187,2.3473,2.3816,2.3454,2.3783,2.4189,2.4454,2.4401,2.4433,2.4473,2.4544,2.4563,2.4505,2.4493,2.4651,2.4877,2.4929,2.4874,2.4764,2.4768,2.4768,2.4749,2.4723,2.4673,2.4673,2.4673,2.4673,2.4673,2.4673,2.4673,2.4673,2.4673,2.4951,2.5364,2.4973,2.4904,2.5375,2.5344,2.5441,2.5798,2.6228,2.6581,2.6897,2.7848,2.8351,2.8241,2.9083,2.957,2.9492,2.9492,2.9382,2.9139,2.9045,2.9195,2.9457,2.9361,2.9427,2.9746,2.9899,2.9855,2.9637,2.9464,2.9308,2.9034,2.8983,2.8976,2.9077,2.8618,2.8267,2.8196,2.7675,2.7198,2.7567,2.7275,2.6937,2.7033,2.7682,2.7912,2.7186,2.709,2.6753,2.6136,2.5831,2.5671,2.5002,2.4823,2.4798,2.4723,2.4707,2.4673,2.4673,2.4673,2.4673,2.4673,2.4673,2.4673,2.4673,2.4673,2.5211,2.2135,2.2361,2.1793,2.1237,2.0825,2.0577,2.0268,2.0006,2.0577,2.0733,2.0718,2.1847,2.2459,2.2677,2.3269,2.3174,2.2811,2.39,2.4435,2.4251,2.4624,2.4854,2.5063,2.4993,2.4993,2.5044,2.4828,2.4764,2.479,2.4949,2.4929,2.4915,2.4947,2.4893,2.4827,2.4813,2.4813,2.4794,2.4734,2.4738,2.4738,2.4719,2.4704,2.4689,2.4673,2.4673,2.4673,2.4673,2.5102,2.5925,2.5383,2.5424,2.6197,2.6201,2.6278,2.6543,2.7177,2.7585,2.7604,2.8278,2.8615,2.8516,2.9156,2.9531,2.9491,2.9551,2.9644,2.9661,2.9801,2.9832,2.9715,2.9853,2.9965,2.9946,3.0052,3.0051,2.9811,2.9481,2.927,2.8964,2.8951,2.8811,2.8427,2.837,2.8485,2.8324,2.7536,2.6759,2.7172,2.6797,2.6421,2.6383,2.6421,2.6498,2.6899,2.6612,2.6269,2.6154,2.5907,2.5609,2.5075,2.4917,2.4813,2.4768,2.4723,2.4673,2.4673,2.4673,2.4673,2.4673,2.4726,2.4745,2.4673,2.4707,2.5452,2.0633,2.0076,1.9894,2.034,2.0849,2.0071,1.98,1.9907,2.002,2.0515,2.1263,2.1569,2.1953,2.2486,2.2581,2.2639,2.2601,2.2811,2.3689,2.4836,2.43,2.434,2.5063,2.5082,2.5101,2.5038,2.44,2.4022,2.4049,2.4726,2.5025,2.4902,2.5025,2.5004,2.4842,2.4827,2.4813,2.4808,2.4779,2.4779,2.4779,2.4798,2.4749,2.4707,2.4689,2.4707,2.4745,2.4692,2.512,2.6,2.5944,2.6282,2.7035,2.7148,2.7434,2.811,2.8817,2.9206,2.9128,2.9223,2.926,2.9277,2.9336,2.9471,2.9551,2.9662,2.9767,2.9888,3.0128,3.0188,2.9965,2.9992,3.0066,3.0066,3.0095,2.9838,2.9279,2.9666,2.9543,2.89,2.8791,2.8696,2.7969,2.8192,2.8326,2.8083,2.7714,2.7421,2.6823,2.6555,2.6517,2.6383,2.5982,2.5344,2.5382,2.5593,2.5478,2.5409,2.5461,2.5258,2.5089,2.4934,2.487,2.4817,2.4738,2.4707,2.4707,2.4673,2.4673,2.4745,2.4858,2.4858,2.5023,2.482,2.5618,2.1652,2.1344,2.1251,2.1092,2.0788,2.0503,2.0193,1.9963,2.0497,2.0678,2.087,2.1817,2.1847,2.1034,2.1579,2.2114,2.2639,2.3155,2.3785,2.4377,2.4583,2.487,2.5137,2.5156,2.5156,2.5041,2.4309,2.39,2.3995,2.4736,2.5076,2.4942,2.5057,2.5063,2.4907,2.4861,2.4861,2.4847,2.4779,2.4768,2.4737,2.4768,2.4753,2.4749,2.4723,2.497,2.5496,2.5008,2.5571,2.7448,2.6601,2.662,2.7788,2.7958,2.8296,2.8988,2.9283,2.9187,2.8778,2.9109,2.9147,2.8682,2.9193,2.9551,2.9626,2.9817,2.9992,3.0071,3.0241,3.0318,3.0247,3.0155,3.0066,2.9992,3.0032,3.0008,2.9774,2.9583,2.9225,2.8732,2.8434,2.8383,2.9148,2.9473,2.9287,2.8592,2.8051,2.7644,2.7364,2.723,2.7224,2.7205,2.6995,2.6651,2.6242,2.5593,2.5199,2.5156,2.5151,2.519,2.5107,2.5148,2.5116,2.5156,2.5017,2.4782,2.4801,2.4673,2.4692,2.4745,2.4876,2.5155,2.5528,2.549,2.6456,2.1615,2.1756,2.1456,2.1148,2.0835,2.056,2.0264,1.9993,2.0568,2.0613,2.0485,2.1451,2.1262,2.0346,2.0776,2.1283,2.1855,2.2677,2.3537,2.4301,2.4645,2.5065,2.5497,2.5325,2.5344,2.544,2.4721,2.4205,2.4014,2.4778,2.5094,2.4993,2.5113,2.5113,2.4974,2.4915,2.4807,2.4553,2.4431,2.427,2.4106,2.4327,2.4426,2.4483,2.4628,2.4998,2.5549,2.4989,2.5571,2.7186,2.681,2.7129,2.8613,2.882,2.9027,2.9437,2.9453,2.9208,2.8741,2.9111,2.9167,2.8668,2.9195,2.9626,2.9748,2.9973,3.0109,3.0215,3.0241,3.0299,3.0273,3.0142,3.0056,3.0041,3.008,3.0136,3.0163,2.9749,2.9436,2.9245,2.8925,2.9186,2.9917,3.0128,2.9904,2.9374,2.8815,2.8471,2.8153,2.8089,2.8083,2.8064,2.7797,2.7612,2.7383,2.6848,2.6149,2.599,2.6003,2.5811,2.5606,2.5603,2.5565,2.5529,2.5333,2.5058,2.4839,2.4726,2.4726,2.4764,2.4895,2.5155,2.5694,2.6309,2.7223,2.0314,2.0827,2.0081,2.0311,2.0806,2.0144,1.9873,2.0082,2.0145,2.0202,2.0241,2.0345,2.0397,2.0239,2.0421,2.0355,2.0728,2.1473,2.2879,2.4637,2.4339,2.4893,2.6078,2.5497,2.5535,2.6097,2.5516,2.474,2.4091,2.4874,2.5258,2.5145,2.5068,2.4972,2.5032,2.4739,2.4371,2.3846,2.365,2.3328,2.2678,2.3491,2.3947,2.3941,2.4547,2.4856,2.4764,2.4726,2.5233,2.6244,2.6829,2.7955,2.9307,2.9589,2.9608,2.9513,2.9492,2.9471,2.9372,2.937,2.9433,2.942,2.9589,2.975,2.9958,3.0075,3.0163,3.0241,3.0215,3.0122,3.0109,3.0041,3.0026,3.0286,3.0182,3.0182,3.0267,3.0202,3.0099,3.006,2.9964,3.0147,3.0204,3.0204,3.0109,3.0051,2.9937,2.9669,2.9044,2.8911,2.8911,2.8777,2.8599,2.8414,2.8363,2.8202,2.7578,2.7089,2.7119,2.7053,2.684,2.6759,2.6639,2.6559,2.5894,2.5562,2.4801,2.4726,2.4858,2.4948,2.5061,2.5562,2.6422,2.7204,2.7617,1.9957,2.0114,1.9845,2.0206,2.0856,2.012,2.0141,2.0739,2.0346,2.0134,2.0203,2.0238,2.0252,2.0363,2.0803,2.134,2.1817,2.2142,2.2677,2.3498,2.4339,2.5038,2.5478,2.5344,2.5344,2.5516,2.5325,2.5077,2.4981,2.5581,2.5735,2.5133,2.4529,2.4231,2.4207,2.3537,2.3006,2.2861,2.2752,2.2865,2.324,2.3588,2.3974,2.4485,2.4788,2.4832,2.4723,2.4673,2.5649,2.7448,2.7355,2.7955,2.9326,2.9701,2.9664,2.9588,2.9512,2.9472,2.9392,2.939,2.9451,2.9608,2.9734,2.9834,2.9962,3.0188,3.0202,3.0133,3.0085,3.0089,3.0095,3.008,3.0071,3.0056,3.0066,3.0122,3.0196,3.0221,3.0245,3.0259,3.0232,3.0204,3.0204,3.0204,3.0204,3.0204,3.0204,3.0013,2.986,2.9688,2.9784,2.9726,2.9478,2.9235,2.9193,2.9108,2.8717,2.8118,2.8008,2.8051,2.7907,2.7816,2.7714,2.7195,2.6547,2.5822,2.5061,2.4745,2.4876,2.5449,2.586,2.6607,2.756,2.8086,2.8385,2.0258,2.0277,2.0538,2.095,2.1414,2.0903,2.1054,2.1509,2.1221,2.1053,2.1061,2.0845,2.0894,2.1119,2.1406,2.1905,2.2581,2.2925,2.3078,2.3212,2.4091,2.5141,2.5879,2.5765,2.544,2.5229,2.521,2.521,2.5229,2.5669,2.5683,2.5094,2.4579,2.4159,2.3831,2.3233,2.2703,2.2085,2.1897,2.2206,2.274,2.316,2.3736,2.446,2.4841,2.4904,2.4813,2.5167,2.6091,2.7361,2.7625,2.8418,2.9551,2.9701,2.9664,2.9569,2.9531,2.9472,2.9411,2.9388,2.9451,2.9589,2.9767,2.9902,2.995,3.0161,3.0142,2.9981,3.0203,3.03,3.0176,3.0361,3.0327,3.0123,3.0155,3.0196,3.0196,3.0247,3.0286,3.0291,3.0232,3.0218,3.0204,3.0204,3.0204,3.0204,3.0204,3.0204,3.0204,3.0185,3.0185,3.0166,3.0032,2.9928,3.0003,2.9916,2.9775,2.927,2.8783,2.8821,2.8783,2.873,2.8641,2.7629,2.6849,2.5992,2.5246,2.4858,2.4839,2.5656,2.655,2.7447,2.8215,2.8553,2.889,2.1065,2.1159,2.1868,2.2201,2.2323,2.2214,2.2235,2.2401,2.2426,2.2437,2.2364,2.1835,2.194,2.2364,2.2067,2.2269,2.2745,2.3441,2.3881,2.39,2.4186,2.5027,2.667,2.6154,2.5638,2.544,2.5268,2.5249,2.5401,2.5478,2.5249,2.518,2.4969,2.4683,2.3915,2.3755,2.2695,2.1673,2.1327,2.1381,2.1729,2.2316,2.3247,2.4139,2.4818,2.513,2.5219,2.6189,2.6697,2.6674,2.8029,2.903,2.9569,2.9701,2.9645,2.9512,2.9511,2.9471,2.9409,2.9388,2.9451,2.9608,2.975,2.9978,3.0162,3.0293,3.0236,3.0082,3.0469,3.0617,3.043,3.0693,3.0856,3.0657,3.0508,3.0374,3.0304,3.0311,3.0305,3.0286,3.0232,3.0204,3.0204,3.0204,3.0204,3.0204,3.0204,3.0204,3.0147,3.0109,3.0089,3.0013,2.986,2.9699,2.947,2.8869,2.8787,2.9045,2.8711,2.8749,2.9014,2.9074,2.9039,2.8045,2.7016,2.6177,2.5637,2.5302,2.5396,2.6158,2.7091,2.8045,2.8682,2.9061,2.9266,2.1948,2.1985,2.2178,2.2609,2.3051,2.2585,2.276,2.3278,2.2821,2.2774,2.269,2.2553,2.2564,2.2805,2.3179,2.3447,2.3569,2.3766,2.4301,2.4664,2.4167,2.4587,2.5447,2.5027,2.516,2.581,2.5459,2.5497,2.6039,2.5975,2.5726,2.5172,2.4583,2.4171,2.3782,2.2685,2.2076,2.1964,2.1424,2.1862,2.2863,2.2726,2.3389,2.4763,2.5083,2.5406,2.5896,2.7431,2.8245,2.8135,2.8995,2.9595,2.9682,2.9701,2.9645,2.955,2.9511,2.9471,2.9409,2.9388,2.9472,2.9644,2.9756,3.0145,3.1143,3.0956,3.0729,3.0565,3.081,3.0992,3.0918,3.1131,3.1513,3.2007,3.1212,3.0533,3.0482,3.0336,3.0311,3.0299,3.0272,3.0327,3.0218,3.0338,3.028,3.0242,3.0261,3.0223,3.0166,2.9803,2.9688,2.9287,2.9063,2.8921,2.8608,2.7899,2.7761,2.829,2.8256,2.8104,2.8446,2.8749,2.8698,2.8345,2.7198,2.6264,2.612,2.5935,2.6381,2.6755,2.8045,2.9153,2.938,2.9699,2.9661,2.2821,2.2844,2.3168,2.3562,2.3938,2.3487,2.3649,2.4068,2.3783,2.3629,2.3601,2.3034,2.3207,2.3813,2.3573,2.3638,2.3856,2.3892,2.4167,2.453,2.4511,2.4809,2.5019,2.4626,2.4989,2.5726,2.5459,2.5478,2.5803,2.5898,2.5612,2.5199,2.466,2.424,2.385,2.2962,2.2265,2.2312,2.1903,2.2357,2.3572,2.3373,2.3917,2.509,2.5611,2.6371,2.7758,2.8561,2.8992,2.9284,2.9734,2.9937,2.9808,2.9719,2.9645,2.955,2.9531,2.9471,2.9411,2.9388,2.9599,2.9962,3.0076,3.0659,3.1431,3.1563,3.1391,3.1225,3.1594,3.1713,3.158,3.168,3.2038,3.2344,3.1823,3.1354,3.1417,3.1501,3.1034,3.074,3.0854,3.0915,3.0428,3.0796,3.0777,3.051,3.0586,3.0452,3.0261,2.9746,2.944,2.9363,2.8987,2.8864,2.8608,2.7956,2.7172,2.757,2.7744,2.7574,2.7953,2.8332,2.8282,2.8039,2.7176,2.6654,2.6657,2.6698,2.6924,2.7654,2.9061,2.9756,2.9851,2.9907,2.9907,2.3672,2.3675,2.4407,2.4673,2.4654,2.461,2.4572,2.478,2.4769,2.4854,2.4736,2.366,2.3986,2.5177,2.3735,2.3283,2.3905,2.3911,2.4033,2.4396,2.4759,2.521,2.5421,2.5382,2.5306,2.5421,2.5344,2.5516,2.565,2.5497,2.5401,2.5363,2.5268,2.479,2.4232,2.3824,2.3365,2.2943,2.2634,2.2981,2.3776,2.3858,2.4251,2.5157,2.609,2.7426,2.8779,2.9296,2.918,2.9931,3.0065,2.9992,2.9891,2.9756,2.9664,2.9607,2.9549,2.951,2.958,2.9669,2.9872,3.0453,3.0764,3.1289,3.1971,3.2262,3.2091,3.1953,3.2604,3.2636,3.2426,3.2392,3.2615,3.2836,3.2784,3.2764,3.3037,3.3006,3.2314,3.1027,3.2043,3.1842,3.1651,3.1637,3.2248,3.2134,3.1847,3.1312,3.1045,3.0605,3.0395,3.03,2.9732,2.8998,2.8627,2.8127,2.7305,2.6921,2.7077,2.7153,2.7517,2.7801,2.7805,2.7585,2.7418,2.733,2.7333,2.7447,2.7579,2.8064,2.9153,2.9623,2.9907,2.9907,2.9907,2.452,2.4463,2.4632,2.4673,2.4692,2.4629,2.4734,2.4942,2.4896,2.5012,2.5107,2.486,2.4899,2.5197,2.408,2.3781,2.3868,2.3922,2.4243,2.4924,2.5077,2.5612,2.6001,2.6135,2.581,2.5726,2.6618,2.6752,2.6319,2.6159,2.6151,2.6109,2.5669,2.5115,2.4912,2.4354,2.4167,2.4258,2.3784,2.3821,2.4366,2.4159,2.4323,2.5201,2.5933,2.6873,2.7969,2.8645,2.9028,2.9353,2.9729,2.9897,2.9787,2.9682,2.9626,2.9626,2.9587,2.979,3.0269,3.0358,3.0501,3.0965,3.1436,3.2203,3.3478,3.3073,3.2854,3.2813,3.3056,3.3224,3.3201,3.3126,3.345,3.3884,3.3658,3.3562,3.42,3.3623,3.2919,3.2843,3.2804,3.3106,3.3796,3.2879,3.3223,3.3643,3.3223,3.2477,3.1904,3.1408,3.1236,3.1064,3.0261,2.9546,2.9222,2.8793,2.8126,2.738,2.7252,2.7399,2.7744,2.7767,2.796,2.8058,2.8077,2.8042,2.8064,2.8102,2.8215,2.872,2.9153,2.9569,2.9907,2.9907,3.0118,2.4794,2.4707,2.4673,2.4673,2.4692,2.4629,2.4719,2.4888,2.4902,2.5019,2.5086,2.4887,2.4686,2.458,2.3772,2.3311,2.3424,2.3758,2.4129,2.4702,2.5275,2.602,2.6555,2.7128,2.7186,2.6632,2.7179,2.7332,2.7103,2.7019,2.7007,2.7014,2.6536,2.6192,2.581,2.5232,2.5038,2.4828,2.4553,2.4633,2.521,2.4803,2.4805,2.5497,2.6041,2.665,2.7612,2.8007,2.8294,2.8549,2.9084,2.9646,2.9653,2.9381,2.927,2.957,2.996,3.0182,3.0623,3.1027,3.1374,3.1894,3.221,3.299,3.3807,3.377,3.3621,3.3589,3.3682,3.3777,3.3867,3.3805,3.4191,3.4406,3.4256,3.4239,3.4605,3.4251,3.3976,3.4213,3.4094,3.4366,3.4429,3.3881,3.3551,3.3742,3.3818,3.3112,3.2306,3.1885,3.1847,3.1522,3.0701,3.0114,2.9865,2.9502,2.9118,2.854,2.8206,2.8411,2.8749,2.8566,2.8361,2.8455,2.8566,2.8793,2.8834,2.8853,2.8909,2.9304,2.9623,2.9832,3.0061,3.0328,3.0557,2.4762,2.4538,2.452,2.4463,2.4354,2.4351,2.4354,2.4389,2.462,2.4664,2.4721,2.4109,2.384,2.3772,2.312,2.2696,2.2988,2.3495,2.411,2.4817,2.6039,2.6708,2.7262,2.8217,2.8714,2.8122,2.8255,2.8141,2.795,2.7892,2.7854,2.7854,2.7663,2.7014,2.6505,2.6295,2.5882,2.5321,2.5163,2.5431,2.6054,2.5779,2.597,2.6352,2.5996,2.6397,2.7122,2.7549,2.7676,2.7676,2.8389,2.9131,2.9488,2.9226,2.8951,2.9738,3.0334,3.0835,3.1331,3.1753,3.2302,3.3083,3.3175,3.3454,3.3993,3.4141,3.4104,3.4123,3.4134,3.4134,3.4179,3.4134,3.4176,3.4321,3.4476,3.4483,3.4417,3.4562,3.4547,3.5002,3.4478,3.4371,3.4636,3.4464,3.4096,3.3786,3.384,3.3688,3.2867,3.2477,3.2497,3.263,3.2019,3.1637,3.1382,3.0833,3.0385,2.9412,2.9042,2.9172,2.9453,2.9282,2.902,2.8944,2.9074,2.9282,2.9453,2.9472,2.9604,2.9888,3.0175,3.0442,3.0652,3.0823,3.1146,2.4422,2.3708,2.3708,2.3318,2.2853,2.3359,2.3345,2.296,2.354,2.3878,2.3938,2.3201,2.3339,2.3514,2.2995,2.2963,2.3354,2.3869,2.4664,2.5734,2.6918,2.7587,2.8389,2.9249,2.9726,2.9841,2.9631,2.9268,2.8829,2.8695,2.8714,2.8567,2.8128,2.7415,2.6823,2.6409,2.6473,2.6089,2.6001,2.6344,2.6877,2.7096,2.7033,2.7141,2.6199,2.6028,2.6626,2.7275,2.7649,2.7835,2.8492,2.9198,2.9604,2.951,2.9814,3.0374,3.0801,3.1392,3.2259,3.2697,3.3213,3.377,3.3918,3.39,3.4104,3.4197,3.4216,3.4216,3.4216,3.4216,3.4216,3.4216,3.4335,3.4409,3.4325,3.4083,3.369,3.3674,3.3902,3.447,3.4225,3.3923,3.4073,3.4092,3.358,3.3256,3.3365,3.3458,3.3116,3.3048,3.328,3.349,3.3643,3.3356,3.3127,3.2482,3.1789,3.0307,2.972,2.955,2.9737,2.9775,2.968,2.9472,2.9472,2.9661,2.9813,2.9907,3.0078,3.0194,3.0631,3.1088,3.1278,3.1487,3.2185,2.3968,2.352,2.3487,2.3036,2.2468,2.306,2.2948,2.244,2.3112,2.3364,2.3201,2.3134,2.3141,2.3052,2.2383,2.2467,2.3269,2.4301,2.5237,2.6421,2.73,2.8122,2.8949,2.9822,3.0128,3.0185,3.0147,3.0013,2.9612,2.9574,2.9535,2.9497,2.9134,2.8561,2.7912,2.7765,2.7331,2.702,2.6868,2.7191,2.7832,2.8103,2.8038,2.7408,2.6886,2.6606,2.6969,2.781,2.8045,2.8032,2.8849,2.925,2.9311,2.9569,3.0001,3.071,3.1416,3.2117,3.298,3.3348,3.3826,3.4086,3.4197,3.3956,3.3826,3.3881,3.4179,3.4216,3.4216,3.4216,3.4216,3.4216,3.4269,3.4316,3.4269,3.386,3.3463,3.3469,3.3608,3.3754,3.3205,3.2993,3.3129,3.3034,3.275,3.2732,3.2882,3.2957,3.3032,3.302,3.3077,3.3146,3.3165,3.3105,3.2855,3.2421,3.2298,3.1143,3.0272,3.012,3.0061,3.0082,2.9967,2.9794,2.9888,3.0059,2.9926,2.9926,3.0213,3.0593,3.1069,3.1524,3.1827,3.2241,3.2918,2.3269,2.2994,2.2999,2.2515,2.1896,2.254,2.2361,2.1913,2.2495,2.2604,2.2286,2.2619,2.262,2.2361,2.2133,2.2305,2.3365,2.4969,2.5982,2.7033,2.7701,2.8395,2.9192,2.9746,3.0204,3.0204,3.0204,3.0204,3.0109,3.0089,3.0166,3.007,3.0147,2.9765,2.893,2.8624,2.8256,2.778,2.765,2.8007,2.8609,2.8719,2.8616,2.8051,2.7816,2.7574,2.7879,2.8453,2.8542,2.8568,2.9096,2.9673,2.9002,2.9401,3.0075,3.0779,3.1952,3.256,3.3087,3.3157,3.3454,3.3788,3.39,3.3584,3.3473,3.3733,3.4216,3.4216,3.4216,3.4216,3.4216,3.4216,3.4197,3.4221,3.4184,3.3937,3.3441,3.3217,3.3032,3.2817,3.2229,3.2524,3.3122,3.2716,3.259,3.237,3.2487,3.2128,3.2165,3.1944,3.1952,3.2098,3.2158,3.2229,3.1979,3.1537,3.1595,3.1463,3.0785,3.0468,3.0428,3.0407,3.0368,3.0463,3.0307,3.0402,3.0175,3.0288,3.0916,3.141,3.1675,3.2015,3.2392,3.2955,3.3629,2.2061,2.1309,2.132,2.08,2.0244,2.0905,2.0695,2.0136,2.0923,2.1226,2.1294,2.0766,2.1026,2.1627,2.2354,2.3747,2.5218,2.5886,2.6765,2.7956,2.8395,2.9,2.9879,3.007,3.0204,3.0147,3.0147,3.0204,3.0128,3.0109,3.0204,3.0204,3.0147,2.9803,2.9159,2.9088,2.8412,2.7813,2.8158,2.8894,2.9536,2.9076,2.914,2.9117,2.8586,2.807,2.8637,2.9079,2.909,2.907,2.9652,2.9931,2.9782,3.0208,3.0505,3.0702,3.1033,3.157,3.2567,3.26,3.2623,3.3027,3.3138,3.3064,3.3064,3.338,3.3863,3.4216,3.4197,3.4216,3.4216,3.4216,3.4216,3.4216,3.4197,3.377,3.3287,3.3417,3.3175,3.2632,3.2269,3.3063,3.3811,3.3101,3.2471,3.2251,3.1992,3.1693,3.1468,3.139,3.1339,3.1558,3.1485,3.15,3.172,3.1187,3.1424,3.1654,3.1299,3.0923,3.1017,3.1092,3.1318,3.1336,3.1147,3.0935,3.0822,3.1145,3.1826,3.2185,3.2355,3.2656,3.2994,3.365,3.4414,2.1431,2.1061,2.102,2.0506,1.9843,2.0518,2.0364,1.9871,2.0433,2.0661,2.0543,2.0587,2.0899,2.1617,2.2707,2.3861,2.495,2.5573,2.6651,2.7975,2.8389,2.8962,2.9937,3.0204,3.0204,2.9975,2.9726,2.9421,2.9574,2.9937,3.0204,3.0147,3.0185,3.0089,2.9445,2.957,2.9036,2.8514,2.8477,2.9039,2.9604,2.9592,2.952,2.995,2.9231,2.9184,2.9464,3.0047,3.0016,2.9939,3.0333,3.0354,2.9905,2.9889,2.9998,2.9954,2.9969,3.0748,3.1972,3.1875,3.2005,3.2195,3.2321,3.2302,3.234,3.2432,3.2897,3.3454,3.3956,3.4179,3.4216,3.4216,3.4216,3.4216,3.4216,3.377,3.3436,3.364,3.3547,3.2929,3.2516,3.338,3.3868,3.3062,3.2299,3.1823,3.1738,3.1669,3.1478,3.1405,3.1337,3.1317,3.1128,3.0864,3.1235,3.1248,3.1845,3.2051,3.1761,3.1532,3.1728,3.1899,3.2049,3.2277,3.2298,3.2034,3.1675,3.1751,3.2166,3.258,3.2994,3.3406,3.3832,3.4658,3.5383,2.1098,2.1067,2.0808,2.0292,1.9761,2.0336,2.0201,1.9713,2.0214,2.0255,2.0153,2.0558,2.1103,2.1835,2.2963,2.3881,2.4683,2.5199,2.6479,2.7491,2.7969,2.858,2.9306,2.9688,2.9478,2.9593,2.8886,2.8637,2.879,2.9096,2.9402,2.9593,2.9603,2.9718,2.9742,2.936,2.881,2.8641,2.8225,2.8747,2.9637,2.9834,2.9832,2.9902,2.9918,2.9934,3.0122,3.046,3.0452,3.0259,3.043,3.029,2.9739,2.9606,2.9583,2.9541,2.9518,3.0095,3.0987,3.1247,3.1318,3.1485,3.1857,3.2098,3.2507,3.1819,3.1838,3.3361,3.3844,3.416,3.4216,3.4216,3.4216,3.4216,3.4197,3.3788,3.351,3.377,3.3937,3.3621,3.3369,3.3599,3.371,3.2915,3.2175,3.1496,3.1384,3.1582,3.1613,3.1622,3.1496,3.1474,3.1388,3.1239,3.1562,3.1864,3.2364,3.2524,3.2244,3.2422,3.2758,3.2683,3.2643,3.2891,3.3236,3.3116,3.2756,3.2577,3.2505,3.322,3.3855,3.4236,3.4791,3.5614,3.6264,2.1098,2.101,2.0182,1.9812,1.9705,1.968,1.969,1.9602,1.9694,1.9825,1.9922,2.025,2.1139,2.2238,2.283,2.4014,2.6078,2.6269,2.7128,2.7854,2.8198,2.8294,2.8657,2.8504,2.8103,2.8083,2.7835,2.7797,2.7797,2.7879,2.7956,2.7937,2.8736,2.8865,2.8836,2.8601,2.8733,2.8577,2.8192,2.8563,2.95,2.9882,2.9828,2.9931,2.9926,2.9924,2.9959,3.019,3.0316,3.0067,3.0165,3.0086,2.9626,2.953,2.9488,2.9595,2.9593,3.015,3.0764,3.0448,3.0169,3.0671,3.1414,3.2247,3.2953,3.2321,3.2637,3.364,3.3974,3.416,3.4216,3.4216,3.4216,3.4216,3.4216,3.4104,3.39,3.3974,3.4123,3.4123,3.4117,3.4124,3.4049,3.337,3.2804,3.2182,3.2075,3.2259,3.2103,3.207,3.1826,3.1745,3.1834,3.1976,3.2459,3.2776,3.2963,3.3096,3.3012,3.3463,3.4041,3.3811,3.3224,3.3615,3.3942,3.3923,3.3846,3.3545,3.3559,3.4148,3.4708,3.5165,3.569,3.6393,3.6976,2.1838,2.173,2.0875,2.018,1.9686,1.9625,1.9583,1.9583,1.9583,1.9662,1.9843,2.0116,2.1063,2.2238,2.2696,2.3689,2.5573,2.623,2.6842,2.73,2.7549,2.7854,2.7969,2.7873,2.774,2.7529,2.7205,2.6918,2.6899,2.6861,2.6454,2.6727,2.7918,2.8622,2.8612,2.8392,2.8862,2.9284,2.8854,2.887,3.0018,2.9982,2.9964,3.049,2.9906,3.0486,3.1085,3.0311,3.0326,3.0345,3.0067,2.9757,2.9587,2.9566,2.9766,3.002,3.0095,3.0578,3.0913,3.0299,2.9816,3.0559,3.1359,3.2177,3.3064,3.2414,3.2618,3.3324,3.3974,3.4197,3.4216,3.4216,3.4216,3.4216,3.4216,3.4216,3.4216,3.4216,3.4197,3.416,3.4154,3.4142,3.4067,3.3943,3.3445,3.298,3.2948,3.2887,3.2742,3.2679,3.2537,3.2474,3.2594,3.273,3.3136,3.3337,3.3459,3.3543,3.364,3.3998,3.4379,3.42,3.382,3.4265,3.467,3.4705,3.4624,3.4396,3.4389,3.4481,3.5219,3.6107,3.6676,3.7153,3.7569,2.2436,2.2511,2.1424,2.0479,1.978,1.9899,1.982,1.9602,1.9606,1.9719,1.9866,2.0097,2.1034,2.2238,2.2658,2.3575,2.5,2.5746,2.6116,2.646,2.6765,2.709,2.7166,2.7033,2.6708,2.6784,2.6479,2.6058,2.6022,2.5984,2.5907,2.6298,2.7239,2.8078,2.8332,2.8612,2.9248,2.9851,2.9701,2.9626,3.0923,3.0565,3.049,3.1015,3.0546,3.0829,3.1393,3.096,3.0527,3.0489,3.0245,2.9683,2.9661,2.9787,3.0155,3.0504,3.0891,3.1318,3.1541,3.1117,3.0541,3.1448,3.1857,3.2302,3.2525,3.2841,3.3343,3.3454,3.3956,3.4216,3.4216,3.4216,3.4216,3.4216,3.4216,3.4216,3.4216,3.4216,3.4216,3.4197,3.4191,3.4167,3.406,3.4002,3.381,3.3462,3.3407,3.3382,3.3405,3.3382,3.3448,3.3456,3.3552,3.3674,3.3831,3.3707,3.3617,3.364,3.3792,3.3938,3.413,3.4134,3.4444,3.487,3.52,3.5473,3.5395,3.5183,3.4806,3.4467,3.5597,3.6956,3.7032,3.7448,3.7882,2.2736,2.3224,2.1616,2.0452,1.9873,2.0537,2.0331,1.9583,1.9649,1.98,1.9985,2.0126,2.1062,2.2342,2.2705,2.3736,2.4901,2.5371,2.5707,2.6109,2.6058,2.602,2.5982,2.5937,2.5784,2.5363,2.5485,2.5614,2.5247,2.5507,2.5639,2.6195,2.7119,2.7786,2.7528,2.8103,2.8894,2.9626,2.9777,3.0622,3.1542,3.1297,3.1391,3.1729,3.1297,3.1448,3.2144,3.1505,3.1129,3.1185,3.0414,2.9961,2.9939,3.0639,3.0931,3.0872,3.1467,3.2135,3.2767,3.2139,3.2154,3.2507,3.273,3.3157,3.3826,3.4067,3.3956,3.39,3.4141,3.4216,3.4216,3.4216,3.4216,3.4216,3.4216,3.4216,3.4216,3.4216,3.4216,3.4216,3.4191,3.4167,3.4053,3.396,3.3981,3.387,3.3834,3.3825,3.3862,3.3862,3.3862,3.4036,3.4089,3.4081,3.4072,3.3862,3.3778,3.3807,3.3989,3.4249,3.4567,3.4874,3.518,3.5498,3.5866,3.6205,3.6124,3.5976,3.586,3.5908,3.6734,3.763,3.7666,3.771,3.8054,2.2759,2.3293,2.1644,2.076,2.0485,2.0703,2.0307,1.962,1.9688,1.9811,2.0044,2.0582,2.146,2.238,2.3214,2.3988,2.4911,2.5836,2.6173,2.5593,2.5715,2.5726,2.5631,2.5409,2.5199,2.5363,2.5562,2.5583,2.5139,2.5563,2.5835,2.6367,2.7476,2.831,2.8798,2.9307,2.987,3.0941,3.0997,3.1221,3.2629,3.2216,3.2105,3.2854,3.2122,3.233,3.3362,3.2367,3.1934,3.2044,3.1254,3.0725,3.0942,3.1675,3.2005,3.208,3.2562,3.2953,3.3528,3.3436,3.3213,3.3305,3.3473,3.3826,3.4197,3.4216,3.4197,3.4216,3.4216,3.4216,3.4216,3.4216,3.4216,3.4216,3.4216,3.4216,3.4216,3.4216,3.4216,3.4216,3.4216,3.4272,3.4238,3.4512,3.4587,3.4486,3.4431,3.4156,3.41,3.4009,3.399,3.4266,3.4376,3.4376,3.4339,3.4394,3.4266,3.4229,3.4504,3.4805,3.5153,3.5541,3.5872,3.62,3.6546,3.69,3.6894,3.6947,3.7321,3.7657,3.7827,3.799,3.7962,3.7958,3.8111,2.2248,2.2795,2.155,2.0909,2.0825,2.0829,2.0336,1.9694,1.9713,1.9907,2.0313,2.0994,2.1867,2.2716,2.348,2.4245,2.4947,2.5558,2.586,2.5287,2.5669,2.555,2.5309,2.5156,2.512,2.5361,2.5812,2.5964,2.5579,2.6252,2.6726,2.7288,2.8161,2.8987,2.9495,2.9758,3.0603,3.1635,3.1954,3.2122,3.3079,3.321,3.2985,3.3342,3.3248,3.3175,3.3794,3.3529,3.2699,3.277,3.2334,3.1619,3.1961,3.24,3.2785,3.2953,3.3361,3.364,3.3993,3.4123,3.3788,3.3566,3.3974,3.416,3.4216,3.4216,3.4216,3.4216,3.4216,3.4216,3.4216,3.4216,3.4216,3.4216,3.4216,3.4216,3.4271,3.429,3.4531,3.4494,3.4631,3.4611,3.4737,3.4999,3.5293,3.5183,3.5055,3.4789,3.4614,3.4559,3.4633,3.4926,3.5147,3.522,3.5238,3.5183,3.5,3.4706,3.5055,3.5515,3.5828,3.6233,3.6537,3.6897,3.7276,3.7613,3.7721,3.7895,3.794,3.7893,3.7896,3.8026,3.8156,3.8192,3.8192,2.1367,2.2009,2.1251,2.0886,2.0947,2.0914,2.0425,1.9705,1.9713,2.0132,2.0864,2.1079,2.1997,2.3197,2.3661,2.4219,2.4815,2.5177,2.5244,2.5229,2.5352,2.5182,2.5145,2.5101,2.5184,2.5378,2.5844,2.6475,2.6239,2.6943,2.7648,2.8255,2.8988,2.9608,2.9814,3.0002,3.0922,3.1842,3.2105,3.2461,3.3269,3.34,3.3325,3.3435,3.3381,3.3381,3.3623,3.3377,3.309,3.286,3.2422,3.2098,3.2203,3.2641,3.2897,3.325,3.3807,3.403,3.416,3.4197,3.4197,3.3974,3.4123,3.4216,3.4216,3.4216,3.4216,3.4216,3.4216,3.4216,3.4216,3.4216,3.4216,3.4216,3.4216,3.4271,3.4364,3.4569,3.4903,3.5119,3.5366,3.5528,3.5827,3.6048,3.634,3.6266,3.6285,3.6457,3.6182,3.5716,3.5807,3.6046,3.6193,3.6229,3.6193,3.6064,3.5771,3.5495,3.5936,3.6368,3.6662,3.6883,3.7169,3.7537,3.8016,3.8253,3.8222,3.8232,3.8245,3.818,3.8023,3.8044,3.8225,3.8192,3.8228,2.1334,2.198,2.0629,2.0662,2.1525,2.1016,2.0321,1.9697,1.9682,2.0138,2.0939,2.1708,2.2388,2.33,2.4153,2.4554,2.478,2.5025,2.5139,2.5144,2.5168,2.5088,2.507,2.512,2.5359,2.5939,2.6483,2.6927,2.7075,2.7704,2.8084,2.8481,2.9307,2.9889,3.0077,2.9964,3.0734,3.1297,3.141,3.2123,3.2705,3.2724,3.2837,3.2818,3.2818,3.2854,3.2814,3.2735,3.2486,3.2272,3.262,3.2691,3.2734,3.3403,3.3844,3.3863,3.4104,3.4197,3.4216,3.4216,3.4216,3.4216,3.4216,3.4216,3.4216,3.4216,3.4216,3.4216,3.4216,3.4234,3.429,3.4309,3.4457,3.4606,3.4606,3.4661,3.481,3.5182,3.5553,3.6033,3.6258,3.65,3.6813,3.7353,3.7569,3.7459,3.7477,3.7649,3.7594,3.7055,3.6872,3.7074,3.7092,3.7074,3.7037,3.6945,3.6597,3.6376,3.6835,3.7165,3.736,3.7581,3.7808,3.801,3.8181,3.8401,3.8566,3.8528,3.8401,3.8303,3.8216,3.8204,3.8225,3.8262,3.8464,2.061,2.098,2.0092,2.0378,2.1223,2.0569,2.0096,1.9978,1.9748,2.0196,2.1235,2.155,2.2245,2.3167,2.3904,2.4261,2.4241,2.4905,2.5175,2.512,2.5151,2.5025,2.4991,2.5286,2.5693,2.6325,2.6824,2.7188,2.7497,2.8028,2.8463,2.9007,2.9532,2.9908,3.0096,2.9927,2.9964,3.0434,3.0828,3.1354,3.1729,3.2029,3.2086,3.2048,3.2047,3.2045,3.2042,3.2021,3.1939,3.1893,3.2467,3.2739,3.2953,3.3714,3.416,3.416,3.4179,3.4216,3.4216,3.4216,3.4216,3.4216,3.4216,3.4216,3.4216,3.4216,3.4216,3.4216,3.4234,3.4271,3.4364,3.4494,3.4829,3.5144,3.5144,3.5144,3.5497,3.5887,3.6393,3.6924,3.7221,3.7423,3.7845,3.8419,3.8634,3.8267,3.8138,3.8267,3.8248,3.7936,3.7808,3.7936,3.79,3.7863,3.7808,3.7734,3.7551,3.7422,3.7716,3.7991,3.8065,3.8065,3.8175,3.8138,3.8102,3.8358,3.8603,3.8541,3.8428,3.8382,3.8394,3.8492,3.8477,3.8389,3.8751,1.9526,1.9748,1.9689,2.0084,2.0477,2.0037,2.0159,2.0556,1.994,2.0344,2.1371,2.11,2.1729,2.2805,2.3587,2.3794,2.4073,2.4696,2.5132,2.5051,2.5095,2.5056,2.5328,2.5676,2.6054,2.6352,2.677,2.7349,2.7578,2.8237,2.9082,2.9664,2.9683,2.9814,2.9814,2.9795,2.9814,2.9945,3.0396,3.0922,3.1447,3.1804,3.1954,3.1917,3.1839,3.178,3.1834,3.1808,3.1725,3.1722,3.1939,3.2251,3.3175,3.3751,3.4104,3.4216,3.4216,3.4216,3.4216,3.4216,3.4216,3.4216,3.4216,3.4216,3.4216,3.4216,3.4216,3.4216,3.4234,3.4606,3.4791,3.4866,3.5107,3.559,3.585,3.6092,3.6519,3.692,3.7359,3.784,3.7995,3.8188,3.8228,3.8707,3.8707,3.8615,3.8615,3.8689,3.8597,3.8432,3.8377,3.8432,3.8414,3.8322,3.8377,3.834,3.8487,3.8542,3.8505,3.8303,3.801,3.8175,3.8469,3.834,3.8193,3.8414,3.8585,3.8572,3.8541,3.8478,3.8547,3.8758,3.8764,3.8712,3.9331,1.9446,1.962,2.0181,2.0226,1.9944,2.0836,2.0915,2.0549,2.0365,2.0538,2.0988,2.1445,2.184,2.2399,2.3468,2.3754,2.3785,2.4258,2.4892,2.493,2.493,2.5134,2.5608,2.5853,2.6312,2.6825,2.7204,2.7467,2.7937,2.8725,2.9401,2.9664,2.9701,2.9701,2.9701,2.9701,2.9701,2.9739,2.9945,3.0208,3.0452,3.0471,3.0471,3.0733,3.0844,3.0803,3.0764,3.0497,3.0583,3.0767,3.1507,3.2488,3.3826,3.4067,3.4197,3.4216,3.4216,3.4216,3.4216,3.4216,3.4216,3.4216,3.4216,3.4216,3.4216,3.4216,3.4216,3.4216,3.4476,3.494,3.5256,3.5312,3.5572,3.6129,3.6612,3.7058,3.7522,3.7951,3.8368,3.8551,3.8722,3.8725,3.8719,3.8707,3.8707,3.8689,3.8689,3.8689,3.8597,3.8469,3.8248,3.8322,3.8597,3.8615,3.8707,3.8505,3.8414,3.8469,3.8395,3.8175,3.7955,3.7991,3.812,3.8285,3.8322,3.8487,3.8615,3.867,3.8609,3.8559,3.8556,3.8751,3.9127,3.9202,4.0039,1.9357,1.9541,1.9967,2.0137,2.0148,2.0562,2.0827,2.0996,2.0668,2.077,2.1016,2.105,2.1348,2.1974,2.2893,2.3311,2.3135,2.3626,2.3986,2.4238,2.4585,2.4823,2.5273,2.5863,2.6164,2.6639,2.7073,2.7505,2.803,2.865,2.9119,2.9589,2.9701,2.9701,2.9701,2.9664,2.9664,2.9701,2.9664,2.9664,2.9683,2.9776,3.0057,3.0319,3.0242,3.0256,3.0646,3.0493,3.0562,3.1136,3.1972,3.2525,3.351,3.3956,3.416,3.4216,3.4216,3.4216,3.4216,3.4216,3.4216,3.4216,3.4216,3.4216,3.4148,3.4148,3.4173,3.4284,3.5386,3.5943,3.5992,3.6066,3.6872,3.7541,3.7541,3.7671,3.8135,3.8591,3.8748,3.8726,3.8803,3.8732,3.8707,3.8707,3.8707,3.8707,3.8707,3.8414,3.8377,3.8469,3.8267,3.8212,3.8505,3.867,3.8689,3.834,3.7955,3.8046,3.8138,3.8267,3.8138,3.7826,3.7734,3.8175,3.8432,3.8469,3.8579,3.867,3.8689,3.8609,3.8638,3.8707,3.9155,3.9636,4.0309,1.9389,1.9504,1.9522,1.9863,2.0406,1.9899,2.0331,2.129,2.0849,2.107,2.1656,2.0296,2.1044,2.1782,2.1916,2.199,2.2327,2.3043,2.3307,2.3628,2.3879,2.4647,2.5261,2.5662,2.5981,2.6282,2.6641,2.7017,2.7392,2.8181,2.895,2.9532,2.9701,2.9701,2.9664,2.9645,2.9626,2.9645,2.9645,2.9682,2.97,2.9775,3.0298,3.037,3.0309,3.0623,3.1291,3.1455,3.1303,3.1935,3.2674,3.3138,3.3473,3.3937,3.4104,3.4216,3.4216,3.4216,3.4216,3.4216,3.4216,3.4216,3.4216,3.4228,3.4241,3.4358,3.4402,3.4995,3.6096,3.6615,3.6663,3.6941,3.7821,3.8498,3.8312,3.8201,3.8665,3.9055,3.8989,3.891,3.881,3.8689,3.8707,3.8707,3.8707,3.8707,3.8542,3.8193,3.8028,3.8248,3.8267,3.8248,3.8414,3.8542,3.8469,3.8193,3.7679,3.7386,3.7514,3.801,3.8285,3.79,3.79,3.8432,3.8634,3.8597,3.8597,3.8689,3.8689,3.8658,3.8682,3.8784,3.9272,3.9774,4.0306,1.9976,1.9583,1.9526,1.9608,1.9763,2.0073,2.0501,2.0703,2.0631,2.131,2.197,2.12,2.1101,2.2237,2.2621,2.2566,2.2082,2.2599,2.3172,2.362,2.3983,2.4844,2.5434,2.5552,2.5906,2.6075,2.6244,2.6585,2.7223,2.803,2.8838,2.9645,2.9701,2.9701,2.9701,2.9645,2.9588,2.9607,2.9662,2.9735,3.0368,3.0632,3.1044,3.1283,3.1576,3.2057,3.237,3.1976,3.2177,3.273,3.3398,3.3751,3.3918,3.403,3.416,3.4216,3.4216,3.4216,3.4216,3.4216,3.4216,3.4216,3.4327,3.4637,3.4821,3.5254,3.5438,3.5846,3.6667,3.7008,3.7109,3.7405,3.8081,3.8561,3.8654,3.8654,3.8857,3.8979,3.8968,3.8851,3.8762,3.8719,3.8707,3.8707,3.8707,3.8707,3.8707,3.8377,3.8157,3.8212,3.8248,3.8175,3.8193,3.79,3.7606,3.7808,3.7459,3.7074,3.7055,3.79,3.823,3.79,3.8028,3.8542,3.8707,3.867,3.8707,3.8707,3.8707,3.8689,3.8707,3.8847,3.9319,3.9655,3.9972]},{"header":{"parameterUnit":"m.s-1","parameterCategory":1,"la1":31.0,"la2":29.5877,"lo1":-88.7671,"lo2":-86.6584,"dy":0.0162,"dx":0.0185,"nx":115,"ny":88,"refTime":"2023-04-16T06:00:00:Z","depth":0,"parameterNumber":3,"parameterNumberName":"V-component_of_WINDS"},"data":[0.0,0.0,0.0,0.0,0.0,0.0,0.0,0.0,0.0,0.0,0.0,0.0,0.0,0.0,0.0,0.0,0.0,0.0,0.0,0.0,0.0,0.0,0.0,0.0,0.0,0.0,0.0,0.0,0.0,0.0,0.0,0.0,0.0,0.0,0.0,0.0,0.0,0.0,0.0,0.0,0.0,0.0,0.0,0.0,0.0,0.0,0.0,0.0,0.0,0.0,0.0,0.0,0.0,0.0,0.0,0.0,0.0,0.0,0.0,0.0,0.0,0.0,0.0,0.0,0.0,0.0,0.0,0.0,0.0,0.0,0.0,0.0,0.0,0.0,0.0,0.0,0.0,0.0,0.0,0.0,0.0,0.0,0.0,0.0,0.0,0.0,0.0,0.0,0.0,0.0,0.0,0.0,0.0,0.0,0.0,0.0,0.0,0.0,0.0,0.0,0.0,0.0,0.0,0.0,0.0,0.0,0.0,0.0,0.0,0.0,0.0,0.0,0.0,0.0,0.0,0.0,0.0,0.0,0.0,0.0,0.0,0.0,0.0,0.0,0.0,0.0,0.0,0.0,0.0,0.0,0.0,0.0,0.0,0.0,0.0,0.0,0.0,0.0,0.0,0.0,0.0,0.0,0.0,0.0,0.0,0.0,0.0,0.0,0.0,0.0,0.0,0.0,0.0,0.0,0.0,0.0,0.0,0.0,0.0,0.0,0.0,0.0,0.0,0.0,0.0,0.0,0.0,0.0,0.0,0.0,0.0,0.0,0.0,0.0,0.0,0.0,0.0,0.0,0.0,0.0,0.0,0.0,0.0,0.0,0.0,0.0,0.0,0.0,0.0,0.0,0.0,0.0,0.0,0.0,0.0,0.0,0.0,0.0,0.0,0.0,0.0,0.0,0.0,0.0,0.0,0.0,0.0,0.0,0.0,0.0,0.0,0.0,0.0,0.0,0.0,0.0,0.0,0.0,0.0,0.0,0.0,0.0,0.0,0.0,0.0,0.0,0.0,0.0,0.0,0.0,0.0,0.0,0.0,0.0,0.0,0.0,0.0,0.0,0.0,0.0,0.0,0.0,0.0,0.0,0.0,0.0,0.0,0.0,0.0,0.0,0.0,0.0,0.0,0.0,0.0,0.0,0.0,0.0,0.0,0.0,0.0,0.0,0.0,0.0,0.0,0.0,0.0,0.0,0.0,0.0,0.0,0.0,0.0,0.0,0.0,0.0,0.0,0.0,0.0,0.0,0.0,0.0,0.0,0.0,0.0,0.0,0.0,0.0,0.0,0.0,0.0,0.0,0.0,0.0,0.0,0.0,0.0,0.0,0.0,0.0,0.0,0.0,0.0,0.0,0.0,0.0,0.0,0.0,0.0,0.0,0.0,0.0,0.0,0.0,0.0,0.0,0.0,0.0,0.0,0.0,0.0,0.0,0.0,0.0,0.0,0.0,0.0,0.0,0.0,0.0,0.0,0.0,0.0,0.0,0.0,0.0,0.0,0.0,0.0,0.0,0.0,0.0,0.0,0.0,0.0,0.0,0.0,0.0,0.0,0.0,0.0,0.0,0.0,0.0,0.0,0.0,0.0,0.0,0.0,0.0,0.0,0.0,0.0,0.0,0.0,0.0,0.0,0.0,0.0,0.0,0.0,0.0,0.0,0.0,0.0,0.0,0.0,0.0,0.0,0.0,0.0,0.0,0.0,0.0,0.0,0.0,0.0,0.0,0.0,0.0,0.0,0.0,0.0,0.0,0.0,0.0,0.0,0.0,0.0,0.0,0.0,0.0,0.0,0.0,0.0,0.0,0.0,0.0,0.0,0.0,0.0,0.0,0.0,0.0,0.0,0.0,0.0,0.0,0.0,0.0,0.0,0.0,0.0,0.0,0.0,0.0,0.0,0.0,0.0,0.0,0.0,0.0,0.0,0.0,0.0,0.0,0.0,0.0,0.0,0.0,0.0,0.0,0.0,0.0,0.0,0.0,0.0,0.0,0.0,0.0,0.0,0.0,0.0,0.0,0.0,0.0,0.0,0.0,0.0,0.0,0.0,0.0,0.0,0.0,0.0,0.0,0.0,0.0,0.0,0.0,0.0,0.0,0.0,0.0,0.0,0.0,0.0,0.0,0.0,0.0,0.0,0.0,0.0,0.0,0.0,0.0,0.0,0.0,0.0,0.0,0.0,0.0,0.0,0.0,0.0,0.0,0.0,0.0,0.0,0.0,0.0,0.0,0.0,0.0,0.0,0.0,0.0,0.0,0.0,0.0,0.0,0.0,0.0,0.0,0.0,0.0,0.0,0.0,0.0,0.0,0.0,0.0,0.0,0.0,0.0,0.0,0.0,0.0,0.0,0.0,0.0,0.0,0.0,0.0,0.0,0.0,0.0,0.0,0.0,0.0,0.0,0.0,0.0,0.0,0.0,0.0,0.0,0.0,0.0,0.0,0.0,0.0,0.0,0.0,0.0,0.0,0.0,0.0,0.0,0.0,0.0,0.0,0.0,0.0,0.0,0.0,0.0,0.0,0.0,0.0,0.0,0.0,0.0,0.0,0.0,0.0,0.0,0.0,0.0,0.0,0.0,0.0,0.0,0.0,0.0,0.0,0.0,0.0,0.0,0.0,0.0,0.0,0.0,0.0,0.0,0.0,0.0,0.0,0.0,0.0,0.0,0.0,0.0,0.0,0.0,0.0,0.0,0.0,0.0,0.0,0.0,0.0,0.0,0.0,0.0,0.0,0.0,0.0,0.0,0.0,0.0,0.0,0.0,0.0,0.0,0.0,0.0,0.0,0.0,0.0,0.0,0.0,0.0,0.0,0.0,0.0,0.0,0.0,0.0,0.0,0.0,0.0,0.0,0.0,0.0,0.0,0.0,0.0,0.0,0.0,0.0,0.0,0.0,0.0,0.0,0.0,0.0,0.0,0.0,0.0,0.0,0.0,0.0,0.0,0.0,0.0,0.0,0.0,0.0,0.0,0.0,0.0,0.0,0.0,0.0,0.0,0.0,0.0,0.0,0.0,0.0,0.0,0.0,0.0,0.0,0.0,0.0,0.0,0.0,0.0,0.0,0.0,0.0,0.0,0.0,0.0,0.0,0.0,0.0,0.0,0.0,0.0,0.0,0.0,0.0,0.0,0.0,0.0,0.0,0.0,0.0,0.0,0.0,0.0,0.0,0.0,0.0,0.0,0.0,0.0,0.0,0.0,0.0,0.0,0.0,0.0,0.0,0.0,0.0,0.0,0.0,0.0,0.0,0.0,0.0,0.0,0.0,0.0,0.0,0.0,0.0,0.0,0.0,0.0,0.0,0.0,0.0,0.0,0.0,0.0,0.0,0.0,0.0,0.0,0.0,0.0,0.0,0.0,0.0,0.0,0.0,0.0,0.0,0.0,0.0,0.0,0.0,0.0,0.0,0.0,0.0,0.0,0.0,0.0,0.0,0.0,0.0,0.0,0.0,0.0,0.0,0.0,0.0,0.0,0.0,0.0,0.0,0.0,0.0,0.0,0.0,0.0,0.0,0.0,0.0,0.0,0.0,0.0,0.0,0.0,0.0,0.0,0.0,0.0,0.0,0.0,0.0,0.0,0.0,0.0,0.0,0.0,0.0,0.0,0.0,0.0,0.0,0.0,0.0,0.0,0.0,0.0,0.0,0.0,0.0,0.0,0.0,0.0,0.0,0.0,0.0,0.0,0.0,0.0,0.0,0.0,0.0,0.0,0.0,0.0,0.0,0.0,0.0,0.0,0.0,0.0,0.0,0.0,0.0,0.0,0.0,0.0,0.0,0.0,0.0,0.0,0.0,0.0,0.0,0.0,0.0,0.0,0.0,0.0,0.0,0.0,0.0,0.0,0.0,0.0,0.0,0.0,0.0,0.0,0.0,0.0,0.0,0.0,0.0,0.0,0.0,0.0,0.0,0.0,0.0,0.0,0.0,0.0,0.0,0.0,0.0,0.0,0.0,0.0,0.0,0.0,0.0,0.0,0.0,0.0,0.0,0.0,0.0,0.0,0.0,0.0,0.0,0.0,0.0,0.0,0.0,0.0,0.0,0.0,0.0,0.0,0.0,0.0,0.0,0.0,0.0,0.0,0.0,0.0,0.0,0.0,0.0,0.0,0.0,0.0,0.0,0.0,0.0,0.0,0.0,0.0,0.0,0.0,0.0,0.0,0.0,0.0,0.0,0.0,0.0,0.0,0.0,0.0,0.0,0.0,0.0,0.0,0.0,0.0,0.0,0.0,0.0,0.0,0.0,0.0,0.0,0.0,0.0,0.0,0.0,0.0,0.2473,0.0,0.0,0.0,0.0,0.0,0.0,0.0,0.0,0.0,0.0,0.0,0.0,0.0,0.0,0.0,0.0,0.0,0.0,0.0,0.0,0.0,0.0,0.0,0.0,0.0,0.0,0.0,0.0,0.0,0.0,0.0,0.0,0.0,0.0,0.0,0.0,0.0,0.0,0.0,0.0,0.0,0.0,0.0,0.0,0.0,0.0,0.0,0.0,0.0,0.0,0.0,0.0,0.0,0.0,0.0,0.0,0.0,0.0,0.0,0.0,0.0,0.0,0.0,0.0,0.0,0.0,0.0,0.0,0.0,0.0,0.0,0.0,0.0,0.0,0.0,0.0,0.0,0.0,0.0,0.0,0.0,0.0,0.0,0.0,0.0,0.0,0.0,0.0,0.0,0.0,0.0,0.0,0.0,0.0,0.0,0.0,0.0,0.0,0.0,0.0,0.0,0.0,0.0,0.0,0.0,0.0,0.0,0.0,0.0,0.0,0.1651,0.1986,0.2202,0.2394,0.2599,0.0,0.0,0.0,0.0,0.0,0.0,0.0,0.0,0.0,0.0,0.0,0.0,0.0,0.0,0.0,0.0,0.0,0.0,0.0,0.0,0.0,0.0,0.0,0.0,0.0,0.0,0.0,0.0,0.0,0.0,0.0,0.0,0.0,0.0,0.0,0.0,0.0,0.0,0.0,0.0,0.0,0.0,0.0,0.0,0.0,0.0,0.0,0.0,0.0,0.0,0.0,0.0,0.0,0.0,0.0,0.0,0.0,0.0,0.0,0.0,0.0,0.0,0.0,0.0,0.0,0.0,0.0,0.0,0.0,0.0,0.0,0.0,0.0,0.0,0.0,0.0,0.0,0.0,0.0,0.0,0.0,0.0,0.0,0.0,0.0,0.0,0.0,0.0,0.0,0.0,0.0,0.0,0.0,0.0,0.0,0.0,0.0,0.0,0.0,0.0,0.0,0.0,0.0,0.0,0.0,0.0,0.0,0.0,0.0,0.0,0.0,0.0,0.2552,0.274,0.2991,0.0,0.0,0.0,0.0,0.0,0.0,0.0,0.0,0.0,0.0,0.0,0.0,0.0,0.0,0.0,0.0,0.0,0.0,0.0,0.0,0.0,0.0,0.0,0.0,0.0,0.0,0.0,0.0,0.0,0.0,0.0,0.0,0.0,0.0,0.0,0.0,0.0,0.0,0.0,0.0,0.0,0.0,0.0,0.0,0.0,0.0,0.0,0.0,0.0,0.0,0.0,0.0,0.0,0.0,0.0,0.0,0.0,0.0,0.0,0.0,0.0,0.0,0.0,0.0,0.0,0.0,0.0,0.0,0.0,0.0,0.0,0.0,0.0,0.0,0.0,0.0,0.0,0.0,0.0,0.0,0.0,0.0,0.0,0.0,0.0,0.0,0.0,0.0,0.0,0.0,0.0,0.0,0.0,0.0,0.0,0.0,0.0,0.0,0.0,0.0,0.0,0.0,0.0,0.0,0.0,0.0,0.0,0.0,0.0,0.0,0.2388,0.351,0.3549,0.0,0.3859,0.0,0.0,0.0,0.0,0.0,0.0,0.0,0.0,0.0,0.0,0.0,0.0,0.0,0.0,0.0,0.0,0.0,0.0,0.0,0.0,0.0,0.0,0.0,0.0,0.0,0.0,0.0,0.0,0.0,0.0,0.0,0.0,0.0,0.0,0.0,0.0,0.0,0.0,0.0,0.0,0.0,0.0,0.0,0.0,0.0,0.0,0.0,0.0,0.0,0.0,0.0,0.0,0.0,0.0,0.0,0.0,0.0,0.0,0.0,0.0,0.0,0.0,0.0,0.0,0.0,0.0,0.0,0.0,0.0,0.0,0.0,0.0,0.0,0.0,0.0,0.0,0.0,0.0,0.0,0.0,0.0,0.0,0.0,0.0,0.0,0.0,0.0,0.0,0.0,0.0,0.0,0.0,0.0,0.0,0.0,0.0,0.0,0.0,0.0,0.0,0.0,0.0,0.0,0.0,0.0,0.0,0.0,0.0,0.0,0.0,0.2339,0.3157,0.3509,0.3629,0.0,0.0,0.0,0.0,0.0,0.0,0.0,0.0,0.0,0.0,0.0,0.0,0.0,0.0,0.0,0.0,0.0,0.0,0.0,0.0,0.0,0.0,0.0,0.0,0.0,0.0,0.0,0.0,0.0,0.0,0.0,0.0,0.0,0.0,0.0,0.0,0.0,0.0,0.0,0.0,0.0,0.0,0.0,0.0,0.0,0.0,0.0,0.0,0.0,0.0,0.0,0.0,0.0,0.0,0.0,0.0,0.0,0.0,0.0,0.0,0.0,0.0,0.0,0.0,0.0,0.0,0.0,0.0,0.0,0.0,0.0,0.0,0.0,0.0,0.0,0.0,0.0,0.0,0.0,0.0,0.0,0.0,0.0,0.0,0.0,0.0,0.0,0.0,0.0,0.0,0.0,0.0,0.0,0.0,0.0,0.0,0.0,0.0,0.0,0.0,0.0,0.0,0.0,0.0,0.0,0.0,0.0,0.0,0.0,0.0,0.2068,0.2574,0.3279,0.343,0.3447,0.3341,0.0,0.0,0.0,0.0,0.0,0.0,0.0,0.0,0.0,0.0,0.0,0.0,0.0,0.0,0.0,0.0,0.0,0.0,0.0,0.0,0.0,0.0,0.0,0.0,0.0,0.0,0.0,0.0,0.0,0.0,0.0,0.0,0.0,0.0,0.0,0.0,0.0,0.0,0.0,0.0,0.0,0.0,0.0,0.0,0.0,0.0,0.0,0.0,0.0,0.0,0.0,0.0,0.0,0.0,0.0,0.0,0.0,0.0,0.0,0.0,0.0,0.0,0.0,0.0,0.0,0.0,0.0,0.0,0.0,0.0,0.0,0.0,0.0,0.0,0.0,0.0,0.0,0.0,0.0,0.0,0.0,0.0,0.0,0.0,0.0,0.0,0.0,0.0,0.0,0.0,0.0,0.0,0.0,0.0,0.0,0.0,0.0,0.0,0.0,0.0,0.0,0.0,0.0,0.0,0.0,0.0,0.0,0.0,0.2846,0.2802,0.3359,0.4491,0.3582,0.3387,0.0,0.0,0.0,0.0,0.0,0.0,0.0,0.0,0.0,0.0,0.0,0.0,0.0,0.0,0.0,0.0,0.0,0.0,0.0,0.0,0.0,0.0,0.0,0.0,0.0,0.0,0.0,0.0,0.0,0.0,0.0,0.0,0.0,0.0,0.0,0.0,0.0,0.0,0.0,0.0,0.0,0.0,0.0,0.0,0.0,0.0,0.0,0.0,0.0,0.0,0.0,0.0,0.0,0.0,0.0,0.0,0.0,0.0,0.0,0.0,0.0,0.0,0.0,0.0,0.0,0.0,0.0,0.0,0.0,0.0,0.0,0.0,0.0,0.0,0.0,0.0,0.0,0.0,0.0,0.0,0.0,0.0,0.0,0.0,0.0,0.0,0.0,0.0,0.0,0.0,0.0,0.0,0.0,0.0,0.0,0.0,0.0,0.0,0.0,0.0,0.0,0.0,0.0,0.0,0.0,0.0,0.0,0.0,0.0,0.2248,0.2806,0.3334,0.3761,0.3606,0.3591,0.0,0.0,0.0,0.0,0.0,0.0,0.0,0.0,0.0,0.0,0.0,0.0,0.0,0.0,0.0,0.0,0.0,0.0,0.0,0.0,0.0,0.0,0.0,0.0,0.0,0.0,0.0,0.0,0.0,0.0,0.0,0.0,0.0,0.0,0.0,0.0,0.0,0.0,0.0,0.0,0.0,0.0,0.0,0.0,0.0,0.0,0.0,0.0,0.0,0.0,0.0,0.0,0.0,0.0,0.0,0.0,0.0,0.0,0.0,0.0,0.0,0.0,0.0,0.0,0.0,0.0,0.0,0.0,0.0,0.0,0.0,0.0,0.0,0.0,0.0,0.0,0.0,0.0,0.0,0.0,0.0,0.0,0.0,0.0,0.0,0.0,0.0,0.0,0.0,0.0,0.0,0.0,0.0,0.0,0.0,0.0,0.0,0.0,0.0,0.0,0.0,0.0,0.0,0.0,0.0,0.0,0.0,0.0,0.0,0.2255,0.0,0.325,0.3412,0.3512,0.3505,0.0,0.0,0.0,0.0,0.0,0.0,0.0,0.0,0.0,0.0,0.0,0.0,0.0,0.0,0.0,0.0,0.0,0.0,0.0,0.0,0.0,0.0,0.0,0.0,0.0,0.0,0.0,0.0,0.0,0.0,0.0,0.0,0.0,0.0,0.0,0.0,0.0,0.0,0.0,0.0,0.0,0.0,0.0,0.0,0.0,0.0,0.0,0.0,0.0,0.0,0.0,0.0,0.0,0.0,0.0,0.0,0.0,0.0,0.0,0.0,0.0,0.0,0.0,0.0,0.0,0.0,0.0,0.0,0.0,0.0,0.0,0.0,0.0,0.0,0.0,0.0,0.0,0.0,0.0,0.0,0.0,0.0,0.0,0.0,0.0,0.0,0.0,0.0,0.0,0.0,0.0,0.0,0.0,0.0,0.0,0.0,0.0,0.0,0.0,0.0,0.0,0.0,0.0,0.0,0.0,0.0,0.0,0.0,0.218,0.3115,0.2977,0.3213,0.3666,0.3336,0.3156,0.0,0.0,0.0,0.0,0.0,0.0,0.0,0.0,0.0,0.0,0.0,0.0,0.0,0.0,0.0,0.0,0.0,0.0,0.0,0.0,0.0,0.0,0.0,0.0,0.0,0.0,0.0,0.0,0.0,0.0,0.0,0.0,0.0,0.0,0.0,0.0,0.0,0.0,0.0,0.0,0.0,0.0,0.0,0.0,0.0,0.0,0.0,0.0,0.0,0.0,0.0,0.0,0.0,0.0,0.0,0.0,0.0,0.0,0.0,0.0,0.0,0.0,0.0,0.0,0.0,0.0,0.0,0.0,0.0,0.0,0.0,0.0,0.0,0.0,0.0,0.0,0.0,0.0,0.0,0.0,0.0,0.0,0.0,0.0,0.0,0.0,0.0,0.0,0.0,0.0,0.0,0.0,0.0,0.0,0.0,0.0,0.0,0.0,0.0,0.0,0.0,0.0,0.0,0.0,0.0,0.0,0.0,0.0,0.0,0.251,0.3139,0.3651,0.4048,0.3507,0.3531,0.0,0.0,0.0,0.0,0.0,0.0,0.0,0.0,0.0,0.0,0.0,0.0,0.0,0.0,0.0,0.0,0.0,0.0,0.0,0.0,0.0,0.0,0.0,0.0,0.0,0.0,0.0,0.0,0.0,0.0,0.0,0.0,0.0,0.0,0.0,0.0,0.0,0.0,0.0,0.0,0.0,0.0,0.0,0.0,0.0,0.0,0.0,0.0,0.0,0.0,0.0,0.0,0.0,0.0,0.0,0.0,0.0,0.0,0.0,0.0,0.0,0.0,0.0,0.0,0.0,0.0,0.0,0.0,0.0,0.0,0.0,0.0,0.0,0.0,0.0,0.0,0.0,0.0,0.0,0.0,0.0,0.0,0.0,0.0,0.0,0.0,0.0,0.0,0.0,0.0,0.0,0.0,0.0,0.0,0.0,0.0,0.0,0.0,0.0,0.0,0.0,0.0,0.0,0.0,0.0,0.0,0.0,0.0,0.0,0.2371,0.321,0.3744,0.3838,0.3585,0.3748,0.432,0.0,0.0,0.0,0.0,0.0,0.0,0.0,0.0,0.0,0.0,0.0,0.0,0.0,0.0,0.0,0.0,0.0,0.0,0.0,0.0,0.0,0.0,0.0,0.0,0.0,0.0,0.0,0.0,0.0,0.0,0.0,0.0,0.0,0.0,0.0,0.0,0.0,0.0,0.0,0.0,0.0,0.0,0.0,0.0,0.0,0.0,0.0,0.0,0.0,0.0,0.0,0.0,0.0,0.0,0.0,0.0,0.0,0.0,0.0,0.0,0.0,0.0,0.0,0.0,0.0,0.0,0.0,0.0,0.0,0.0,0.0,0.0,0.0,0.0,0.0,0.0,0.0,0.0,0.0,0.0,0.0,0.0,0.0,0.0,0.0,0.0,0.0,0.0,0.0,0.0,0.0,0.0,0.0,0.0,0.0,0.0,0.0,0.0,0.0,0.0,0.0,0.0,0.0,0.0,0.0,0.0,0.0,0.0,0.2582,0.336,0.359,0.3212,0.3662,0.3847,0.0,0.0,0.0,0.0,0.0,0.0,0.0,0.0,0.0,0.0,0.0,0.0,0.0,0.0,0.0,0.0,0.0,0.0,0.0,0.0,0.0,0.0,0.0,0.0,0.0,0.0,0.0,0.0,0.0,0.0,0.0,0.0,0.0,0.0,0.0,0.0,0.0,0.0,0.0,0.0,0.0,0.0,0.0,0.0,0.0,0.0,0.0,0.0,0.0,0.0,0.0,0.0,0.0,0.0,0.0,0.0,0.0,0.0,0.0,0.0,0.0,0.0,0.0,0.0,0.0,0.0,0.0,0.0,0.0,0.0,0.0,0.0,0.0,0.0,0.0,0.0,0.0,0.0,0.0,0.0,0.0,0.0,0.0,0.0,0.0,0.0,0.0,0.0,0.0,0.0,0.0,0.0,0.0,0.0,0.0,0.0,0.0,0.0,0.0,0.0,0.0,0.0,0.0,0.0,0.0,0.0,0.0,0.0,0.0,0.3348,0.4329,0.456,0.396,0.4157,0.4436,0.0,0.0,0.0,0.0,0.0,0.0,0.0,0.0,0.0,0.0,0.0,0.0,0.0,0.0,0.0,0.0,0.0,0.0,0.0,0.0,0.0,0.0,0.0,0.0,0.0,0.0,0.0,0.0,0.0,0.0,0.0,0.0,0.0,0.0,0.0,0.0,0.0,0.0,0.0,0.0,0.0,0.0,0.0,0.0,0.0,0.0,0.0,0.0,0.0,0.0,0.0,0.0,0.0,0.0,0.0,0.0,0.0,0.0,0.0,0.0,0.0,0.0,0.0,0.0,0.0,0.0,0.0,0.0,0.0,0.0,0.0,0.0,0.0,0.0,0.0,0.0,0.0,0.0,0.0,0.0,0.0,0.0,0.0,0.0,0.0,0.0,0.0,0.0,0.0,0.0,0.0,0.0,0.0,0.0,0.0,0.0,0.0,0.0,0.0,0.0,0.0,0.0,0.0,0.0,0.0,0.0,0.0,0.0,0.363,0.3904,0.4945,0.5499,0.546,0.5109,0.4897,0.0,0.0,0.0,0.0,0.0,0.0,0.0,0.0,0.0,0.0,0.0,0.0,0.0,0.0,0.0,0.0,0.0,0.0,0.0,0.0,0.0,0.0,0.0,0.0,0.0,0.0,0.0,0.0,0.0,0.0,0.0,0.0,0.0,0.0,0.0,0.0,0.0,0.0,0.0,0.0,0.0,0.0,0.0,0.0,0.0,0.0,0.0,0.0,0.0,0.0,0.0,0.0,0.0,0.0,0.0,0.0,0.0,0.0,0.0,0.0,0.0,0.0,0.0,0.0,0.0,0.0,0.0,0.0,0.0,0.0,0.0,0.0,0.0,0.0,0.0,0.0,0.0,0.0,0.0,0.0,0.0,0.0,0.0,0.0,0.0,0.0,0.0,0.0,0.0,0.0,0.0,0.0,0.0,0.0,0.0,0.0,0.0,0.0,0.0,0.0,0.0,0.0,0.0,0.0,0.0,0.0,0.0,0.0,0.4054,0.4385,0.5317,0.622,0.6968,0.6068,0.5268,0.0,0.0,0.0,0.0,0.0,0.0,0.0,0.0,0.0,0.0,0.0,0.0,0.0,0.0,0.0,0.0,0.0,0.0,0.0,0.0,0.0,0.0,0.0,0.0,0.0,0.0,0.0,0.0,0.0,0.0,0.0,0.0,0.0,0.0,0.0,0.0,0.0,0.0,0.0,0.0,0.0,0.0,0.0,0.0,0.0,0.0,0.0,0.0,0.0,0.0,0.0,0.0,0.0,0.0,0.0,0.0,0.0,0.0,0.0,0.0,0.0,0.0,0.0,0.0,0.0,0.0,0.0,0.0,0.0,0.0,0.0,0.0,0.0,0.0,0.0,0.0,0.0,0.0,0.0,0.0,0.0,0.0,0.0,0.0,0.0,0.0,0.0,0.0,0.0,0.0,0.0,0.0,0.0,0.0,0.0,0.0,0.0,0.0,0.0,0.0,0.0,0.0,0.0,0.0,0.0,0.0,0.0,0.0,0.4201,0.4829,0.5586,0.5998,0.6076,0.5669,0.5418,0.0,0.0,0.0,0.0,0.0,0.0,0.0,0.0,0.0,0.0,0.0,0.0,0.0,0.0,0.0,0.0,0.0,0.0,0.0,0.0,0.0,0.0,0.0,0.0,0.0,0.0,0.0,0.0,0.0,0.0,0.0,0.0,0.0,0.0,0.0,0.0,0.0,0.0,0.0,0.0,0.0,0.0,0.0,0.0,0.0,0.0,0.0,0.0,0.1439,0.0,0.0,0.0,0.0,0.0,0.0,0.0,0.0,0.0,0.0,0.0,0.0,0.0,0.0,0.0,0.0,0.0,0.0,0.0,0.0,0.0,0.0,0.0,0.0,0.0,0.0,0.0,0.0,0.0,0.0,0.0,0.0,0.0,0.0,0.0,0.0,0.0,0.0,0.0,0.0,0.0,0.0,0.0,0.0,0.0,0.0,0.0,0.0,0.0,0.0,0.0,0.0,0.0,0.0,0.0,0.0,0.0,0.0,0.0,0.4214,0.4853,0.5314,0.5634,0.5749,0.5383,0.5317,0.0,0.0,0.0,0.0,0.0,0.0,0.0,0.0,0.0,0.0,0.0,0.0,0.0,0.0,0.0,0.0,0.0,0.0,0.0,0.0,0.0,0.0,0.0,0.0,0.0,0.0,0.0,0.0,0.0,0.0,0.0,0.0,0.0,0.0,0.0,0.0,0.0,0.0,0.0,0.0,0.0,0.0,0.0,0.0,0.0,0.0,0.0,0.0,0.0,0.0,0.0,0.0,0.0,0.0,0.0,0.0,0.0,0.0,0.0,0.0,0.0,0.0,0.0,0.0,0.0,0.0,0.0,0.0,0.0,0.0,0.0,0.0,0.0,0.0,0.0,0.0,0.0,0.0,0.0,0.0,0.0,0.0,0.0,0.0,0.0,0.0,0.0,0.0,0.0,0.0,0.0,0.0,0.0,0.0,0.0,0.0,0.0,0.0,0.0,0.0,0.0,0.0,0.0,0.0,0.0,0.0,0.0,0.3501,0.4108,0.4636,0.4934,0.5274,0.5583,0.5226,0.5109,0.5283,0.0,0.0,0.0,0.0,0.0,0.0,0.0,0.0,0.0,0.0,0.0,0.0,0.0,0.0,0.0,0.0,0.0,0.0,0.0,0.0,0.0,0.0,0.0,0.0,0.0,0.0,0.0,0.0,0.0,0.0,0.0,0.0,0.0,0.0,0.0,0.0,0.0,0.0,0.0899,0.1386,0.0,0.0,0.0,0.0,0.0,0.0,0.0,0.0,0.1428,0.0,0.0,0.0,0.0,0.0,0.0,0.0,0.0,0.0,0.0,0.0,0.0,0.0,0.0,0.0,0.0,0.0,0.0,0.0,0.0,0.0,0.0,0.0,0.0,0.0,0.0,0.0,0.0,0.0,0.0,0.0,0.0,0.0,0.0,0.0,0.0,0.0,0.0,0.0,0.0,0.0,0.0,0.0,0.0,0.0,0.0,0.0,0.0,0.0,0.0,0.0,0.0,0.0,0.0,0.0,0.0,0.2942,0.3372,0.3853,0.4443,0.4887,0.5148,0.5192,0.5063,0.5091,0.527,0.0,0.0,0.0,0.0,0.0,0.0,0.0,0.0,0.0,0.0,0.0,0.0,0.0,0.0,0.0,0.0,0.0,0.0,0.0,0.0,0.0,0.0,0.0,0.0,0.0,0.0,0.0,0.0,0.0,0.0,0.0,0.0,0.0,0.0,0.0,0.0,0.0,0.0,0.0,0.1846,0.2215,0.0,0.0,0.0,0.0,0.0,0.0,0.0,0.0,0.1998,0.0,0.0,0.0,0.0,0.0,0.0,0.0,0.0,0.0,0.0,0.0,0.0,0.0,0.0,0.0,0.0,0.0,0.0,0.0,0.0,0.0,0.0,0.0,0.0,0.0,0.0,0.0,0.0,0.0,0.0,0.0,0.0,0.0,0.0,0.0,0.0,0.0,0.0,0.0,0.0,0.0,0.0,0.0,0.0,0.0,0.0,0.0,0.0,0.0,0.0,0.0,0.0,0.0,0.0,0.0,0.2971,0.3312,0.3716,0.4132,0.4521,0.4655,0.4538,0.5089,0.5322,0.0,0.0,0.0,0.0,0.0,0.0,0.0,0.0,0.0,0.0,0.0,0.0,0.0,0.0,0.0,0.0,0.0,0.0,0.0,0.0,0.0,0.0,0.0,0.0,0.0,0.0,0.0,0.0,0.0,0.0,0.0,0.0,0.0,0.0,0.0,0.0,0.0,0.0,0.0,0.0,0.2001,0.2236,0.2084,0.0,0.0,0.0,0.0,0.0,0.0,0.2469,0.2305,0.0,0.0,0.0,0.0,0.0,0.0,0.0,0.0,0.0,0.0,0.0,0.0,0.0,0.0,0.0,0.0,0.0,0.0,0.0,0.0,0.0,0.0,0.0,0.0,0.0,0.0,0.0,0.0,0.0,0.0,0.0,0.0,0.0,0.0,0.0,0.0,0.0,0.0,0.0,0.0,0.0,0.0,0.0,0.0,0.0,0.0,0.0,0.0,0.0,0.0,0.0,0.0,0.0,0.0,0.0,0.301,0.3341,0.3603,0.3833,0.4207,0.4249,0.3961,0.4963,0.5361,0.0,0.0,0.0,0.0,0.0,0.0,0.0,0.0,0.0,0.0,0.0,0.0,0.0,0.0,0.0,0.0,0.0,0.0,0.0,0.0,0.0,0.0,0.0,0.0,0.0,0.0,0.0,0.0,0.0,0.0,0.0,0.0,0.0,0.0,0.0,0.0,0.0,0.0,0.0,0.0,0.0,0.2237,0.2286,0.2452,0.0,0.0,0.0,0.0,0.2917,0.2885,0.0,0.0,0.0,0.0,0.0,0.0,0.0,0.0,0.0,0.0,0.0,0.0,0.0,0.0,0.0,0.0,0.0,0.0,0.0,0.0,0.0,0.0,0.0,0.0,0.0,0.0,0.0,0.0,0.0,0.0,0.0,0.0,0.0,0.0,0.0,0.0,0.0,0.0,0.0,0.0,0.0,0.0,0.0,0.0,0.0,0.0,0.0,0.0,0.0,0.0,0.0,0.0,0.0,0.0,0.0,0.0,0.2996,0.3338,0.3515,0.3563,0.4052,0.413,0.3738,0.434,0.4743,0.0,0.0,0.0,0.0,0.0,0.0,0.0,0.0,0.0,0.0,0.0,0.0,0.0,0.0,0.0,0.0,0.0,0.0,0.0,0.0,0.0,0.0,0.0,0.0,0.0,0.0,0.0,0.0,0.0,0.0,0.0,0.0,0.0,0.0,0.0,0.0,0.0,0.0,0.0,0.0,0.0,0.2537,0.2347,0.2818,0.3066,0.0,0.0,0.3356,0.3281,0.3537,0.0,0.0,0.0,0.0,0.0,0.0,0.0,0.0,0.0,0.0,0.0,0.0,0.0,0.0,0.0,0.0,0.0,0.0,0.0,0.0,0.0,0.0,0.0,0.0,0.0,0.0,0.0,0.0,0.0,0.0,0.0,0.0,0.0,0.0,0.0,0.0,0.0,0.0,0.0,0.0,0.0,0.0,0.0,0.0,0.0,0.0,0.0,0.0,0.0,0.0,0.0,0.0,0.0,0.0,0.0,0.2801,0.311,0.3364,0.3573,0.3724,0.3946,0.3982,0.3809,0.5594,0.6094,0.0,0.0,0.0,0.0,0.0,0.0,0.0,0.0,0.0,0.0,0.0,0.0,0.0,0.0,0.0,0.0,0.0,0.0,0.0,0.0,0.0,0.0,0.0,0.0,0.0,0.0,0.0,0.0,0.0,0.0,0.0,0.0,0.0,0.0,0.0,0.0,0.0,0.0,0.0,0.0,0.0,0.0,0.2961,0.3173,0.0,0.0,0.0,0.3681,0.401,0.0,0.0,0.0,0.0,0.0,0.0,0.0,0.0,0.0,0.0,0.0,0.0,0.0,0.0,0.0,0.0,0.0,0.0,0.0,0.0,0.0,0.0,0.0,0.0,0.0,0.0,0.0,0.0,0.0,0.0,0.0,0.0,0.0,0.0,0.0,0.0,0.0,0.0,0.0,0.0,0.0,0.0,0.0,0.0,0.0,0.0,0.0,0.0,0.0,0.0,0.0,0.0,0.0,0.0,0.0,0.0,0.0,0.32,0.3378,0.3635,0.3898,0.3903,0.41,0.4546,0.6656,0.0,0.0,0.0,0.0,0.0,0.0,0.0,0.0,0.0,0.0,0.0,0.0,0.0,0.0,0.0,0.0,0.0,0.0,0.0,0.0,0.0,0.0,0.0,0.0,0.0,0.0,0.0,0.3005,0.0,0.0,0.0,0.0,0.0,0.0,0.0,0.0,0.0,0.0,0.0,0.0,0.0,0.0,0.3103,0.3498,0.3631,0.3791,0.0,0.0,0.411,0.4465,0.4544,0.4524,0.0,0.0,0.0,0.0,0.0,0.0,0.0,0.0,0.0,0.0,0.0,0.0,0.0,0.0,0.0,0.0,0.0,0.0,0.0,0.0,0.0,0.0,0.0,0.0,0.0,0.0,0.0,0.0,0.0,0.0,0.0,0.0,0.0,0.0,0.0,0.0,0.0,0.0,0.0,0.0,0.0,0.0,0.0,0.0,0.0,0.0,0.0,0.0,0.0,0.0,0.0,0.0,0.0,0.0,0.0,0.3204,0.3326,0.3575,0.3903,0.3903,0.4668,0.6169,0.6728,0.7186,0.0,0.0,0.0,0.0,0.0,0.0,0.0,0.0,0.0,0.0,0.0,0.0,0.0,0.0,0.0,0.0,0.0,0.0,0.0,0.0,0.0,0.0,0.0,0.0,0.0,0.0,0.0,0.0,0.0,0.0,0.0,0.0,0.0,0.0,0.0,0.0,0.0,0.0,0.0,0.0,0.0,0.3628,0.3672,0.4284,0.463,0.0,0.0,0.4844,0.4373,0.4853,0.4931,0.4079,0.0,0.0,0.0,0.0,0.0,0.0,0.0,0.0,0.0,0.0,0.0,0.0,0.0,0.0,0.0,0.0,0.0,0.0,0.0,0.0,0.0,0.0,0.0,0.0,0.0,0.0,0.0,0.0,0.0,0.0,0.0,0.0,0.0,0.0,0.0,0.0,0.0,0.0,0.0,0.0,0.0,0.0,0.0,0.0,0.0,0.0,0.0,0.0,0.0,0.0,0.0,0.0,0.0,0.3076,0.3208,0.3372,0.3671,0.4091,0.3833,0.4117,0.5093,0.7229,0.8095,0.0,0.0,0.0,0.0,0.0,0.0,0.0,0.0,0.0,0.0,0.0,0.0,0.0,0.0,0.0,0.0,0.0,0.0,0.0,0.0,0.0,0.0,0.0,0.0,0.0,0.0,0.0,0.0,0.4394,0.4118,0.3953,0.0,0.0,0.0,0.0,0.0,0.0,0.0,0.0,0.0,0.0,0.383,0.4294,0.4622,0.0,0.0,0.4755,0.4918,0.4887,0.4978,0.482,0.4235,0.4156,0.0,0.0,0.0,0.0,0.0,0.0,0.0,0.0,0.0,0.0,0.0,0.0,0.0,0.0,0.0,0.0,0.0,0.0,0.0,0.0,0.0,0.0,0.0,0.0,0.0,0.0,0.0,0.0,0.0,0.0,0.0,0.0,0.0,0.0,0.0,0.0,0.0,0.0,0.0,0.0,0.0,0.0,0.0,0.0,0.0,0.0,0.0,0.0,0.0,0.0,0.0,0.0,0.3127,0.3208,0.3297,0.3664,0.4269,0.379,0.423,0.5781,0.806,0.9129,0.0,0.0,0.0,0.0,0.0,0.0,0.0,0.0,0.0,0.0,0.0,0.0,0.0,0.0,0.0,0.0,0.0,0.0,0.0,0.0,0.0,0.0,0.0,0.0,0.0,0.0,0.0,0.0,0.4347,0.4087,0.4694,0.0,0.0,0.0,0.0,0.0,0.0,0.0,0.0,0.0,0.0,0.4144,0.4718,0.4897,0.4909,0.4682,0.4853,0.5023,0.5112,0.5064,0.4849,0.4491,0.0,0.0,0.0,0.0,0.0,0.0,0.0,0.0,0.0,0.0,0.0,0.0,0.0,0.0,0.0,0.0,0.0,0.0,0.0,0.0,0.0,0.0,0.0,0.0,0.0,0.0,0.0,0.0,0.0,0.0,0.4818,0.0,0.0,0.0,0.0,0.0,0.0,0.0,0.0,0.0,0.0,0.0,0.0,0.0,0.0,0.0,0.0,0.0,0.0,0.0,0.0,0.0,0.0,0.3024,0.3212,0.3097,0.3433,0.4247,0.3767,0.5267,0.883,0.9234,1.0175,1.1968,0.0,0.0,0.0,0.0,0.0,0.0,0.0,0.0,0.0,0.0,0.0,0.0,0.0,0.0,0.0,0.0,0.0,0.0,0.0,0.0,0.0,0.0,0.0,0.0,0.0,0.0,0.3246,0.309,0.3577,0.0,0.0,0.0,0.0,0.0,0.0,0.0,0.0,0.0,0.0,0.4188,0.4792,0.4808,0.506,0.5209,0.5084,0.5165,0.5165,0.4881,0.5052,0.5165,0.0,0.0,0.0,0.0,0.0,0.0,0.0,0.0,0.0,0.0,0.0,0.0,0.0,0.0,0.0,0.0,0.0,0.0,0.0,0.0,0.0,0.0,0.0,0.0,0.0,0.0,0.0,0.5067,0.5073,0.0,0.0,0.0,0.0,0.0,0.0,0.0,0.0,0.0,0.0,0.0,0.3165,0.3342,0.0,0.0,0.0,0.0,0.0,0.0,0.0,0.0,0.0,0.0,0.0,0.0,0.298,0.3324,0.3304,0.3595,0.4258,0.3946,0.446,0.5939,0.7046,0.8257,0.9533,0.0,0.0,0.0,0.0,0.0,0.0,0.0,0.0,0.0,0.0,0.0,0.0,0.0,0.0,0.0,0.0,0.0,0.0,0.0,0.0,0.0,0.0,0.0,0.0,0.0,0.3246,0.0,0.0,0.0,0.0,0.0,0.0,0.0,0.0,0.0,0.0,0.0,0.3636,0.3976,0.4439,0.4849,0.497,0.5198,0.5233,0.0,0.0,0.0,0.0,0.0,0.0,0.0,0.0,0.0,0.0,0.0,0.0,0.0,0.0,0.4385,0.324,0.3104,0.3278,0.3571,0.0,0.0,0.0,0.0,0.0,0.0,0.0,0.0,0.0,0.0,0.0,0.0,0.0,0.0,0.0,0.0,0.5236,0.0,0.0,0.0,0.0,0.0,0.0,0.0,0.0,0.4074,0.3855,0.3463,0.3606,0.3453,0.0,0.285,0.2824,0.0,0.0,0.0,0.0,0.0,0.0,0.0,0.0,0.3018,0.3464,0.3504,0.3849,0.4502,0.4215,0.4468,0.5397,0.7095,0.8273,0.8888,1.0189,1.0383,0.0,0.0,0.0,0.0,0.0,0.0,0.0,0.0,0.0,0.0,0.0,0.0,0.0,0.0,0.0,0.0,0.0,0.0,0.0,0.0,0.0,0.0,0.0,0.4209,0.0,0.0,0.0,0.0,0.0,0.0,0.0,0.0,0.0,0.3854,0.3883,0.4085,0.4465,0.4743,0.4942,0.5064,0.0,0.0,0.0,0.0,0.0,0.0,0.0,0.4972,0.5104,0.5197,0.5221,0.4876,0.4936,0.5024,0.508,0.0,0.0,0.3748,0.3671,0.3886,0.4383,0.4244,0.402,0.3961,0.4093,0.4257,0.0,0.0,0.0,0.0,0.0,0.0,0.0,0.0,0.5408,0.5471,0.0,0.5389,0.0,0.0,0.0,0.0,0.0,0.5477,0.0,0.0,0.4689,0.424,0.3331,0.3299,0.3096,0.2769,0.2649,0.2711,0.2951,0.2957,0.0,0.0,0.0,0.0,0.0,0.0,0.3236,0.3694,0.3742,0.4142,0.4958,0.458,0.53,0.7296,0.9093,0.9984,0.9971,0.9008,0.8948,1.0072,0.8094,0.0,0.0,0.0,0.0,0.0,0.0,0.0,0.0,0.0,0.0,0.0,0.0,0.0,0.0,0.0,0.0,0.0,0.0,0.0,0.0,0.5952,0.0,0.0,0.0,0.0,0.0,0.0,0.0,0.0,0.0,0.0,0.4378,0.4367,0.4566,0.495,0.0,0.0,0.0,0.0,0.5237,0.5117,0.5185,0.5297,0.5297,0.5293,0.5293,0.5293,0.0,0.0,0.5297,0.5152,0.504,0.5088,0.4966,0.482,0.4775,0.496,0.5136,0.4867,0.5008,0.5058,0.4594,0.4809,0.5192,0.4505,0.0,0.0,0.0,0.0,0.618,0.6202,0.587,0.6101,0.5996,0.5772,0.5657,0.0,0.0,0.0,0.0,0.0,0.0,0.5021,0.4871,0.4922,0.4851,0.4689,0.4223,0.4061,0.4152,0.3587,0.3433,0.3741,0.3524,0.3217,0.2909,0.0,0.0,0.0,0.0,0.3285,0.3818,0.4069,0.4482,0.4996,0.4866,0.5113,0.5729,0.7389,0.7923,0.7196,0.8763,0.911,0.7994,0.828,0.0,0.0,0.0,0.0,0.0,0.0,0.0,0.0,0.0,0.0,0.0,0.0,0.0,0.0,0.0,0.0,0.0,0.0,0.0,0.4596,0.496,0.5079,0.0,0.0,0.0,0.0,0.0,0.0,0.0,0.0,0.0,0.4972,0.4807,0.4747,0.0,0.0,0.508,0.508,0.5185,0.5281,0.5229,0.0,0.0,0.0,0.5301,0.5301,0.5301,0.5301,0.5301,0.5301,0.5257,0.5221,0.5221,0.523,0.5144,0.5132,0.5,0.5027,0.5104,0.5233,0.523,0.512,0.5173,0.5349,0.5392,0.597,0.5826,0.592,0.6165,0.6656,0.6619,0.622,0.6451,0.6363,0.5991,0.6203,0.6219,0.6155,0.5991,0.0,0.0,0.0,0.5337,0.5345,0.5281,0.5242,0.5126,0.4776,0.4574,0.4539,0.3917,0.3693,0.3913,0.3693,0.3476,0.317,0.0,0.0,0.3126,0.3127,0.3563,0.4295,0.4494,0.4788,0.5244,0.5289,0.524,0.5176,0.6253,0.6551,0.5984,0.7608,0.8262,0.7692,0.8063,0.8773,0.0,0.0,0.0,0.0,0.0,0.0,0.0,0.0,0.0,0.0,0.0,0.5721,0.0,0.0,0.0,0.0,0.6282,0.587,0.5958,0.5723,0.0,0.0,0.0,0.0,0.0,0.0,0.0,0.4805,0.486,0.5008,0.5265,0.5108,0.5015,0.4999,0.5108,0.519,0.519,0.0,0.5301,0.5301,0.5301,0.5301,0.5301,0.5301,0.5301,0.5301,0.5301,0.5301,0.5301,0.5301,0.5301,0.5301,0.5301,0.5301,0.5301,0.5116,0.508,0.5249,0.5301,0.5301,0.5301,0.5517,0.5732,0.6599,0.7282,0.6581,0.664,0.7165,0.7363,0.7078,0.6563,0.675,0.658,0.6333,0.6774,0.6778,0.6434,0.641,0.0,0.5863,0.5938,0.589,0.5723,0.5723,0.5458,0.5053,0.5009,0.4792,0.436,0.3873,0.3642,0.3632,0.3646,0.3646,0.3591,0.3223,0.3188,0.348,0.3521,0.4025,0.4957,0.4912,0.5121,0.5669,0.5723,0.5609,0.5346,0.5629,0.5836,0.5976,0.5976,0.6803,0.8423,0.7565,0.8216,1.0723,0.0,0.0,0.0,0.0,0.0,0.0,0.0,0.0,0.0,0.0,0.0,0.0,0.0,0.0,0.0,0.8168,0.0,0.8615,0.7279,0.0,0.0,0.0,0.4317,0.4501,0.4736,0.4901,0.4956,0.0,0.0,0.5301,0.0,0.5221,0.5052,0.5165,0.5301,0.5301,0.5297,0.5301,0.5301,0.5301,0.5301,0.5301,0.5301,0.5301,0.5301,0.5301,0.5301,0.5301,0.5301,0.5301,0.5301,0.5301,0.5301,0.5301,0.5336,0.5352,0.5403,0.5356,0.5352,0.5407,0.5782,0.6105,0.6848,0.7602,0.7419,0.7379,0.7556,0.8172,0.7954,0.7167,0.7482,0.709,0.623,0.6556,0.6725,0.6772,0.6527,0.6349,0.6248,0.5962,0.5798,0.5723,0.5723,0.5631,0.5545,0.5183,0.4918,0.4792,0.4355,0.4069,0.3989,0.4073,0.4022,0.3868,0.4066,0.4134,0.41,0.4362,0.466,0.5009,0.5315,0.5578,0.568,0.5723,0.569,0.5593,0.569,0.5761,0.5766,0.5933,0.6381,0.7204,0.7185,0.7958,0.9762,0.8644,0.0,0.0,0.0,0.0,0.0,0.0,0.0,0.0,0.0,0.6564,0.6615,0.0,0.6146,0.0,0.8175,0.7433,0.625,0.5808,0.0,0.0,0.4638,0.4532,0.4787,0.4842,0.4959,0.5187,0.5242,0.5301,0.5301,0.5301,0.5281,0.5225,0.5261,0.5301,0.5301,0.5301,0.5301,0.5301,0.5301,0.5301,0.5301,0.5301,0.5301,0.5301,0.5301,0.5301,0.5301,0.5301,0.5301,0.5301,0.5301,0.5301,0.5297,0.5466,0.5732,0.5941,0.5887,0.5727,0.5778,0.5996,0.6263,0.7288,0.7898,0.782,0.7811,0.7862,0.828,0.793,0.7065,0.7607,0.7276,0.6361,0.6747,0.7098,0.7325,0.6801,0.6462,0.6368,0.6229,0.6062,0.583,0.5825,0.5777,0.568,0.5453,0.5368,0.5415,0.4882,0.4697,0.4794,0.4481,0.4428,0.471,0.4842,0.5042,0.5213,0.5204,0.5341,0.5621,0.586,0.5943,0.5841,0.5938,0.5949,0.5836,0.5943,0.6043,0.6083,0.6129,0.6439,0.7002,0.7136,0.7868,0.9371,0.8459,0.8044,0.0,0.0,0.0,0.0,0.0,0.0,0.0,0.0,0.0,0.0,0.0,0.6211,0.0,0.7621,0.7225,0.5159,0.4952,0.4846,0.4632,0.4577,0.4684,0.4901,0.4956,0.5069,0.5187,0.5242,0.5301,0.5301,0.5301,0.5301,0.5301,0.5301,0.5301,0.5301,0.5301,0.5301,0.5301,0.5301,0.5301,0.5301,0.5301,0.5301,0.5301,0.5301,0.5301,0.5301,0.5301,0.5352,0.5466,0.5517,0.5517,0.5567,0.5782,0.6109,0.6431,0.6431,0.6213,0.605,0.6209,0.6485,0.768,0.8038,0.7898,0.7891,0.8071,0.8071,0.7502,0.6724,0.7478,0.7333,0.6527,0.7091,0.7475,0.7659,0.6955,0.6523,0.6395,0.6459,0.6321,0.5981,0.5976,0.5873,0.5728,0.5723,0.5738,0.5869,0.5272,0.5195,0.5495,0.4807,0.4833,0.5533,0.5429,0.5701,0.6281,0.5957,0.5997,0.6396,0.6396,0.6288,0.6078,0.6283,0.6288,0.6089,0.6277,0.6444,0.6579,0.6487,0.6695,0.7222,0.7251,0.7849,0.9167,0.8427,0.8305,0.0,0.8427,0.0,0.0,0.0,0.0,0.0,0.0,0.0,0.0,0.6923,0.6213,0.4956,0.6936,0.731,0.4957,0.468,0.4629,0.4688,0.4688,0.4739,0.4901,0.5014,0.5073,0.5128,0.5242,0.5305,0.5345,0.5337,0.5333,0.5382,0.5361,0.5306,0.5369,0.5417,0.5405,0.5329,0.5309,0.5301,0.5301,0.5301,0.5301,0.5301,0.5356,0.5356,0.5411,0.5407,0.5517,0.5791,0.5845,0.5896,0.5941,0.6159,0.6431,0.6972,0.6864,0.6647,0.6426,0.6539,0.6815,0.7102,0.7395,0.7485,0.7605,0.7791,0.7793,0.7473,0.7034,0.7585,0.7272,0.6464,0.6882,0.7002,0.6798,0.6363,0.6181,0.6233,0.599,0.5831,0.5744,0.5744,0.5723,0.5723,0.5723,0.5522,0.5198,0.5067,0.4868,0.4674,0.4952,0.4987,0.4824,0.5439,0.5863,0.5962,0.0,0.0,0.0,0.6396,0.6374,0.6326,0.6369,0.6374,0.6326,0.6363,0.0,0.6439,0.6487,0.6794,0.7189,0.7251,0.0,0.0,0.0,0.0,0.0,0.0,0.0,0.0,0.0,0.0,0.0,0.7794,0.7735,0.7735,0.6864,0.6376,0.6588,0.6649,0.646,0.5919,0.5445,0.5007,0.4574,0.4519,0.4629,0.4846,0.4956,0.5014,0.5242,0.5301,0.5374,0.5596,0.5592,0.562,0.5742,0.5536,0.5451,0.5758,0.5764,0.5743,0.5555,0.5402,0.5305,0.5301,0.5305,0.5301,0.5356,0.5572,0.5681,0.574,0.5896,0.5996,0.6159,0.6105,0.6159,0.6332,0.6485,0.6701,0.7031,0.7031,0.7025,0.6918,0.6977,0.7031,0.6863,0.0,0.7152,0.721,0.0,0.7519,0.7146,0.6514,0.704,0.6924,0.6379,0.6948,0.6996,0.6611,0.6351,0.6254,0.6302,0.613,0.5965,0.5847,0.5847,0.5787,0.5723,0.5723,0.5651,0.5475,0.5374,0.5341,0.5356,0.5219,0.5276,0.5481,0.5552,0.5799,0.6167,0.6322,0.6535,0.6735,0.6735,0.6681,0.6523,0.6676,0.6681,0.6518,0.0,0.0,0.0,0.0,0.0,0.0,0.0,0.0,0.0,0.0,0.0,0.7901,0.7901,0.7901,0.7901,0.7901,0.7901,0.7901,0.7681,0.7521,0.7521,0.6869,0.6431,0.6209,0.5664,0.5391,0.5336,0.5117,0.4791,0.4632,0.4632,0.4684,0.4853,0.5031,0.5265,0.5466,0.5518,0.5669,0.5778,0.5766,0.5811,0.5937,0.5779,0.5656,0.5848,0.591,0.5897,0.585,0.5539,0.5345,0.543,0.5357,0.5356,0.5517,0.5686,0.5845,0.6005,0.6105,0.6209,0.6426,0.6426,0.6485,0.6761,0.6869,0.6923,0.7085,0.7133,0.7133,0.7133,0.7133,0.7133,0.6616,0.6895,0.6848,0.684,0.6873,0.7195,0.6695,0.5783,0.0,0.0,0.0,0.686,0.6901,0.6435,0.6261,0.6219,0.6224,0.6272,0.6112,0.5874,0.5914,0.5884,0.5744,0.5739,0.5841,0.6003,0.5786,0.592,0.6369,0.552,0.5477,0.6105,0.563,0.5683,0.6365,0.6651,0.6891,0.7074,0.7133,0.6988,0.6701,0.6929,0.6988,0.6691,0.6977,0.7133,0.7133,0.7133,0.7192,0.7311,0.7413,0.7568,0.7723,0.7842,0.7901,0.7901,0.7901,0.7901,0.7901,0.7901,0.7866,0.7794,0.7405,0.7171,0.7149,0.7084,0.6723,0.5766,0.5393,0.5187,0.5094,0.5068,0.5072,0.5098,0.5162,0.5218,0.5218,0.5449,0.5681,0.5734,0.5811,0.59,0.5929,0.5937,0.5986,0.6075,0.608,0.5998,0.5981,0.6011,0.6019,0.6096,0.5839,0.562,0.5628,0.5498,0.5478,0.5686,0.5845,0.595,0.6209,0.6317,0.648,0.6701,0.6756,0.6864,0.7025,0.7085,0.7133,0.7133,0.7133,0.7133,0.7133,0.7133,0.7133,0.6108,0.647,0.6213,0.6278,0.6539,0.6545,0.6191,0.558,0.5887,0.5716,0.5217,0.5895,0.596,0.5468,0.5468,0.5468,0.5468,0.5694,0.5673,0.0,0.5636,0.5814,0.597,0.597,0.5986,0.5973,0.5804,0.5935,0.631,0.577,0.5508,0.5477,0.5663,0.5926,0.6231,0.6747,0.7052,0.7133,0.7133,0.7069,0.7031,0.7069,0.7069,0.7042,0.7063,0.7133,0.7133,0.7133,0.7139,0.7311,0.7413,0.7568,0.767,0.7788,0.7901,0.7901,0.7901,0.7901,0.7901,0.7901,0.7775,0.7421,0.7512,0.7469,0.7133,0.7845,0.7971,0.7279,0.7491,0.7772,0.7465,0.7146,0.682,0.6637,0.6797,0.6747,0.6189,0.6283,0.6258,0.5924,0.5876,0.6022,0.615,0.6174,0.6172,0.6294,0.6256,0.63,0.63,0.622,0.6219,0.6314,0.6319,0.6111,0.5803,0.551,0.5512,0.574,0.6014,0.6232,0.6544,0.6761,0.6918,0.7031,0.7025,0.7025,0.7133,0.7133,0.7133,0.7133,0.7133,0.7133,0.7133,0.7133,0.7133,0.5991,0.6265,0.599,0.6056,0.6313,0.6142,0.5836,0.5507,0.5345,0.506,0.4692,0.5341,0.5365,0.4941,0.5138,0.5217,0.5169,0.5444,0.5484,0.5295,0.5636,0.5836,0.5976,0.6129,0.6129,0.5934,0.5839,0.5894,0.6039,0.5496,0.539,0.5873,0.6037,0.6191,0.635,0.6676,0.6896,0.6896,0.702,0.7133,0.7133,0.7133,0.7133,0.7133,0.7133,0.7133,0.7133,0.7133,0.7139,0.7192,0.7306,0.7467,0.7568,0.7729,0.7842,0.7901,0.7901,0.7901,0.7901,0.7695,0.7706,0.8005,0.7544,0.7346,0.754,0.7937,0.8074,0.7739,0.7714,0.764,0.7408,0.7267,0.7188,0.7047,0.6768,0.6538,0.631,0.6214,0.608,0.5976,0.6057,0.6205,0.6282,0.629,0.6314,0.6392,0.633,0.6311,0.6398,0.6269,0.6269,0.6375,0.6416,0.629,0.5986,0.5774,0.5735,0.5914,0.6164,0.6442,0.6688,0.6918,0.7079,0.7133,0.7133,0.7133,0.7133,0.7133,0.7133,0.7133,0.7133,0.7133,0.7133,0.7133,0.7133,0.5952,0.6151,0.5897,0.5922,0.6142,0.6007,0.575,0.5404,0.5058,0.4692,0.4413,0.4854,0.4874,0.4635,0.5002,0.5061,0.5028,0.5339,0.5413,0.524,0.5668,0.5922,0.6022,0.6269,0.6224,0.6022,0.5873,0.5873,0.5868,0.5218,0.539,0.6242,0.6297,0.6352,0.6552,0.6724,0.681,0.6826,0.6993,0.7133,0.7133,0.7133,0.7133,0.7133,0.7133,0.7133,0.7133,0.7133,0.7133,0.7133,0.7252,0.7365,0.7467,0.7568,0.7753,0.7925,0.7937,0.7961,0.8032,0.7683,0.7777,0.845,0.7728,0.7456,0.7941,0.8188,0.8154,0.799,0.7735,0.7576,0.7633,0.7401,0.727,0.7315,0.6786,0.6415,0.6267,0.6091,0.599,0.599,0.6149,0.6359,0.6396,0.6347,0.6282,0.6318,0.6236,0.6156,0.625,0.6168,0.6164,0.6262,0.6359,0.6282,0.6154,0.5945,0.5897,0.6063,0.6167,0.6416,0.6633,0.6864,0.7031,0.7085,0.7133,0.7133,0.7133,0.7133,0.7133,0.7133,0.7133,0.7133,0.7133,0.7133,0.7117,0.6054,0.6134,0.5886,0.5847,0.6073,0.6319,0.5927,0.5188,0.5221,0.4941,0.4387,0.439,0.4499,0.46,0.4837,0.4921,0.4954,0.5307,0.5408,0.5287,0.5692,0.6047,0.6232,0.6294,0.6294,0.6191,0.578,0.578,0.614,0.5466,0.5501,0.6133,0.5995,0.6245,0.6908,0.7031,0.7047,0.7047,0.7074,0.7133,0.7133,0.7133,0.7133,0.7133,0.7133,0.7133,0.7133,0.7133,0.7085,0.7133,0.7203,0.7311,0.7317,0.7473,0.7678,0.8064,0.8093,0.8244,0.8527,0.8242,0.8065,0.8118,0.8285,0.8334,0.8468,0.9,0.904,0.8471,0.8661,0.8815,0.9156,0.8425,0.7991,0.8085,0.7663,0.725,0.6543,0.6775,0.6772,0.5978,0.6117,0.6297,0.6335,0.6164,0.6047,0.615,0.6022,0.5929,0.5851,0.588,0.5912,0.5994,0.6189,0.6168,0.5848,0.5807,0.5851,0.5871,0.5835,0.6096,0.651,0.6701,0.681,0.7085,0.7133,0.7133,0.7133,0.7133,0.7133,0.7133,0.7133,0.7133,0.7133,0.7133,0.7149,0.6326,0.6471,0.6291,0.6282,0.6381,0.6591,0.6062,0.5154,0.5281,0.4916,0.4278,0.4392,0.4542,0.4734,0.4922,0.4952,0.4868,0.5204,0.528,0.52,0.56,0.5919,0.5984,0.6197,0.6149,0.5989,0.5779,0.5784,0.594,0.5824,0.5918,0.6145,0.61,0.6317,0.681,0.6869,0.6869,0.6864,0.7031,0.7133,0.7133,0.7133,0.7133,0.7133,0.7133,0.7133,0.7133,0.7133,0.7155,0.7273,0.722,0.7318,0.7516,0.7688,0.7839,0.8072,0.8333,0.8509,0.8675,0.8315,0.8264,0.8634,0.8546,0.8689,0.9017,0.9017,0.8773,0.8493,0.8466,0.8648,0.8796,0.8142,0.7747,0.7762,0.7316,0.6824,0.6638,0.633,0.6029,0.5907,0.5962,0.6093,0.618,0.6083,0.6137,0.6186,0.6009,0.5719,0.5671,0.5735,0.5726,0.5746,0.5884,0.5933,0.5778,0.5758,0.5748,0.5734,0.5845,0.6104,0.6292,0.6593,0.6761,0.7031,0.7085,0.7133,0.7133,0.7133,0.7133,0.7133,0.7133,0.7133,0.7133,0.7133,0.717,0.6347,0.6412,0.6404,0.6493,0.6566,0.6636,0.6052,0.5174,0.5226,0.4834,0.4168,0.4395,0.462,0.482,0.4946,0.4926,0.4849,0.508,0.5194,0.521,0.5515,0.5738,0.5786,0.6,0.6,0.5782,0.5675,0.5604,0.5666,0.5932,0.61,0.6154,0.6105,0.6322,0.6652,0.6707,0.6707,0.6701,0.6918,0.6977,0.6977,0.6972,0.7025,0.7079,0.7133,0.7133,0.7133,0.7133,0.7198,0.7373,0.7279,0.735,0.7698,0.7823,0.7971,0.8242,0.8634,0.8896,0.8902,0.8646,0.868,0.9128,0.8914,0.8888,0.9087,0.8753,0.8361,0.8156,0.7707,0.7507,0.8032,0.7582,0.7125,0.712,0.6662,0.6388,0.6201,0.5864,0.5822,0.5761,0.5824,0.5927,0.6042,0.603,0.6055,0.615,0.5916,0.5627,0.5652,0.5635,0.5616,0.5608,0.5616,0.5632,0.5718,0.5657,0.5584,0.5559,0.5684,0.5853,0.6078,0.6386,0.6707,0.6869,0.7031,0.7133,0.7133,0.7133,0.7133,0.7133,0.709,0.7095,0.7133,0.7085,0.7178,0.5916,0.5804,0.594,0.6219,0.6424,0.6425,0.5912,0.5009,0.5038,0.4736,0.4229,0.4193,0.4466,0.478,0.48,0.4812,0.4804,0.4849,0.5035,0.5279,0.5443,0.5619,0.5786,0.5791,0.5795,0.5723,0.5354,0.5161,0.5222,0.5595,0.595,0.6209,0.595,0.6119,0.6598,0.6652,0.6707,0.6647,0.6756,0.6756,0.6756,0.6761,0.6864,0.7085,0.7079,0.7085,0.7095,0.7139,0.7203,0.7394,0.7378,0.7474,0.7752,0.7785,0.8061,0.8594,0.9017,0.9279,0.9394,0.9354,0.9366,0.9442,0.932,0.9151,0.8683,0.8226,0.7837,0.7521,0.6404,0.621,0.7125,0.6924,0.6597,0.6597,0.6465,0.6071,0.536,0.6036,0.6145,0.5683,0.5727,0.5903,0.5945,0.5928,0.5956,0.5969,0.5828,0.5704,0.5701,0.5644,0.5636,0.5608,0.5523,0.5329,0.5337,0.5382,0.5357,0.5401,0.5528,0.5542,0.585,0.6159,0.649,0.6766,0.6977,0.7085,0.7085,0.7133,0.7133,0.7095,0.7128,0.7128,0.7116,0.7117,0.7165,0.626,0.6272,0.6446,0.6499,0.6554,0.6612,0.6029,0.5024,0.5063,0.4726,0.4104,0.4142,0.4296,0.4471,0.4538,0.465,0.4812,0.4922,0.5056,0.5182,0.5338,0.54,0.5458,0.5462,0.5462,0.5437,0.5222,0.508,0.51,0.5371,0.5732,0.6046,0.5727,0.5786,0.6268,0.6372,0.6372,0.6426,0.6756,0.6869,0.6686,0.6869,0.6923,0.6864,0.7031,0.716,0.7311,0.7171,0.7332,0.7871,0.7565,0.757,0.8034,0.8149,0.8382,0.8862,0.9163,0.9273,0.9143,0.9388,0.94,0.925,0.8995,0.8753,0.8355,0.7642,0.6924,0.6666,0.5947,0.5756,0.6017,0.6272,0.6597,0.6924,0.6658,0.631,0.599,0.5952,0.5747,0.552,0.572,0.5968,0.6129,0.6197,0.6225,0.6208,0.6026,0.5876,0.5879,0.585,0.5787,0.5783,0.5738,0.5665,0.5518,0.5382,0.5356,0.5462,0.5576,0.5758,0.6028,0.627,0.6554,0.6858,0.6997,0.7106,0.7112,0.7133,0.7139,0.7095,0.7133,0.7154,0.72,0.7189,0.7213,0.6249,0.6393,0.6509,0.6516,0.6469,0.6433,0.5858,0.4985,0.4938,0.4476,0.3935,0.3976,0.4133,0.4232,0.4274,0.4427,0.4646,0.482,0.5003,0.5165,0.5238,0.5328,0.5361,0.5325,0.5329,0.5349,0.5255,0.5145,0.5104,0.5267,0.5563,0.6,0.5567,0.5567,0.5996,0.6154,0.6185,0.6236,0.6546,0.6617,0.6403,0.6405,0.6488,0.6503,0.6714,0.6991,0.7266,0.7165,0.7332,0.7795,0.7688,0.7779,0.8272,0.84,0.8598,0.893,0.9145,0.9209,0.9131,0.9319,0.9336,0.897,0.8648,0.8355,0.7832,0.692,0.64,0.6079,0.5947,0.5752,0.5885,0.6338,0.6732,0.6798,0.6531,0.6268,0.6137,0.5917,0.5788,0.5751,0.5951,0.6137,0.6359,0.6404,0.6424,0.6378,0.6191,0.6117,0.6113,0.6035,0.5969,0.5965,0.5908,0.5932,0.5883,0.5768,0.5677,0.5762,0.5884,0.6018,0.6207,0.6384,0.6612,0.69,0.7025,0.7067,0.7122,0.709,0.709,0.7101,0.7139,0.7154,0.7186,0.7234,0.7294,0.5825,0.6021,0.5996,0.6113,0.6163,0.5919,0.5371,0.4868,0.4512,0.4156,0.3751,0.3725,0.3873,0.4072,0.4155,0.4188,0.4406,0.4564,0.4811,0.5181,0.5173,0.5291,0.5543,0.5361,0.5369,0.5547,0.5365,0.5259,0.5121,0.5287,0.5542,0.569,0.55,0.5479,0.5837,0.6054,0.6076,0.6001,0.6061,0.5979,0.5602,0.5477,0.5584,0.6025,0.6177,0.6544,0.7101,0.709,0.7235,0.7464,0.7693,0.8016,0.8404,0.8484,0.863,0.8882,0.9017,0.9151,0.9402,0.9472,0.921,0.8645,0.8484,0.7902,0.6985,0.6461,0.6137,0.5947,0.6079,0.6334,0.64,0.6798,0.6863,0.5818,0.6141,0.6141,0.5815,0.6145,0.6535,0.6252,0.6233,0.6408,0.642,0.642,0.64,0.6388,0.6363,0.6306,0.624,0.6211,0.6211,0.6182,0.6079,0.6104,0.6158,0.6252,0.6177,0.613,0.6261,0.637,0.6506,0.6672,0.6827,0.7055,0.712,0.7149,0.7112,0.709,0.7128,0.7095,0.7127,0.7149,0.7265,0.7289,0.7335,0.5723,0.5815,0.5831,0.5985,0.6129,0.5722,0.535,0.4979,0.4511,0.4096,0.3744,0.366,0.3799,0.405,0.4138,0.4342,0.4637,0.4706,0.482,0.4995,0.5173,0.5265,0.5357,0.5329,0.5329,0.5365,0.5325,0.5273,0.5253,0.5437,0.5647,0.5745,0.5494,0.5483,0.5589,0.5868,0.5896,0.5753,0.6096,0.6127,0.5848,0.5663,0.5811,0.6105,0.618,0.648,0.7031,0.7133,0.7415,0.7871,0.7844,0.8016,0.8409,0.8517,0.8646,0.8835,0.8952,0.9081,0.9338,0.9408,0.9215,0.856,0.8037,0.7577,0.7055,0.621,0.6145,0.6474,0.6601,0.6396,0.6465,0.6531,0.6666,0.6732,0.6597,0.6334,0.6075,0.6148,0.6222,0.6156,0.6288,0.642,0.642,0.642,0.642,0.642,0.642,0.6379,0.6347,0.631,0.6331,0.6319,0.6266,0.6281,0.6472,0.6586,0.663,0.6621,0.666,0.6734,0.6829,0.6871,0.7038,0.7096,0.7175,0.7161,0.7127,0.7095,0.7133,0.7118,0.7172,0.7254,0.732,0.7394,0.7407,0.5809,0.5814,0.6035,0.6156,0.6241,0.5895,0.5641,0.5363,0.4802,0.4379,0.4142,0.3816,0.3872,0.4153,0.4209,0.4407,0.48,0.4873,0.4905,0.4934,0.5121,0.5344,0.5442,0.5418,0.5349,0.5305,0.5301,0.5301,0.5305,0.5398,0.5518,0.5563,0.5449,0.5356,0.5392,0.5631,0.5661,0.5558,0.5816,0.5794,0.5512,0.5347,0.5371,0.5535,0.5621,0.6036,0.6707,0.6743,0.6991,0.7459,0.7531,0.7814,0.8404,0.8517,0.8576,0.8829,0.8958,0.9081,0.9344,0.9478,0.9215,0.8554,0.7837,0.7386,0.719,0.6342,0.6338,0.706,0.7391,0.7065,0.6552,0.68,0.6862,0.6609,0.6272,0.6075,0.6075,0.6017,0.6024,0.6094,0.6288,0.6354,0.642,0.642,0.642,0.642,0.642,0.642,0.642,0.6416,0.6416,0.6412,0.6384,0.6498,0.6789,0.6907,0.708,0.7095,0.711,0.7119,0.711,0.7163,0.7274,0.721,0.7257,0.7208,0.712,0.7128,0.7122,0.7175,0.7238,0.729,0.7363,0.7384,0.7404,0.604,0.6067,0.6426,0.6471,0.6401,0.6213,0.6062,0.5898,0.5229,0.482,0.4601,0.4047,0.4017,0.4297,0.4289,0.448,0.4783,0.4983,0.5076,0.508,0.5141,0.532,0.5669,0.5559,0.545,0.5349,0.5313,0.5309,0.5341,0.5357,0.5309,0.5352,0.5307,0.5247,0.5193,0.5375,0.5449,0.5353,0.5367,0.5232,0.4768,0.454,0.4466,0.4583,0.488,0.5399,0.6229,0.6288,0.6348,0.6527,0.6988,0.7643,0.8339,0.8517,0.8641,0.8952,0.9022,0.9151,0.9414,0.9478,0.9215,0.849,0.7902,0.7405,0.7311,0.6924,0.6911,0.771,0.8235,0.8061,0.7025,0.7015,0.6911,0.5751,0.5586,0.5561,0.5617,0.5686,0.5822,0.6024,0.6288,0.642,0.642,0.642,0.642,0.642,0.642,0.642,0.6408,0.64,0.6396,0.6379,0.6347,0.6448,0.6668,0.6665,0.6845,0.7107,0.7158,0.7168,0.7234,0.7316,0.7375,0.7318,0.7239,0.7198,0.717,0.7136,0.7162,0.7193,0.7259,0.7318,0.7351,0.7448,0.7433,0.6293,0.6304,0.6412,0.6536,0.6555,0.6263,0.5992,0.5696,0.5164,0.4737,0.4257,0.4028,0.408,0.4278,0.4506,0.4664,0.4849,0.5052,0.5165,0.5242,0.5137,0.5226,0.5409,0.532,0.5348,0.5486,0.5353,0.5361,0.5535,0.5462,0.541,0.5293,0.5338,0.5303,0.5164,0.5237,0.5351,0.5476,0.5541,0.54,0.5069,0.4779,0.4652,0.4646,0.5046,0.569,0.6337,0.6207,0.6327,0.6885,0.7229,0.7723,0.8371,0.8517,0.8641,0.8894,0.9022,0.9151,0.9414,0.9478,0.9081,0.8361,0.8252,0.7936,0.7405,0.7432,0.8019,0.8764,0.8689,0.8015,0.7423,0.7116,0.6555,0.586,0.5644,0.5452,0.5512,0.5554,0.5686,0.5958,0.609,0.6308,0.6354,0.6448,0.6436,0.6428,0.6432,0.6424,0.6412,0.6335,0.631,0.6225,0.6244,0.6346,0.6408,0.6441,0.6601,0.6988,0.7045,0.7007,0.7092,0.7168,0.7288,0.733,0.7161,0.7099,0.7182,0.7192,0.7192,0.7231,0.7318,0.7404,0.7462,0.7474,0.7464,0.6436,0.6497,0.6643,0.6756,0.6864,0.6735,0.6447,0.6001,0.56,0.513,0.4588,0.4113,0.4144,0.4414,0.4529,0.4702,0.4908,0.5024,0.5137,0.5214,0.521,0.5217,0.5261,0.5234,0.5311,0.541,0.5353,0.5357,0.5426,0.5446,0.5386,0.5356,0.5354,0.5263,0.5124,0.5249,0.5397,0.5615,0.5716,0.5678,0.5388,0.5021,0.4703,0.4707,0.5094,0.5665,0.609,0.6071,0.6295,0.6693,0.7001,0.7326,0.7987,0.8382,0.8641,0.8894,0.8958,0.9151,0.9344,0.9478,0.9332,0.8946,0.8838,0.8647,0.8569,0.8531,0.9001,0.9695,0.9284,0.8869,0.8314,0.7679,0.7176,0.6875,0.6402,0.5953,0.561,0.5696,0.5752,0.5836,0.6067,0.636,0.6398,0.6546,0.6542,0.6485,0.6501,0.6473,0.6432,0.6323,0.6258,0.6241,0.6227,0.6333,0.6408,0.6454,0.6461,0.681,0.6917,0.6875,0.6969,0.7064,0.7183,0.7186,0.7091,0.708,0.7143,0.7216,0.7277,0.7345,0.7448,0.7488,0.7512,0.7526,0.7526,0.6509,0.6789,0.6999,0.7133,0.7128,0.7348,0.6988,0.6524,0.6176,0.5738,0.5089,0.4385,0.4337,0.4666,0.4614,0.4684,0.4863,0.5028,0.5108,0.5186,0.5263,0.5301,0.5345,0.5337,0.5321,0.5345,0.5329,0.5365,0.5394,0.5361,0.5341,0.5333,0.5313,0.5213,0.5206,0.5336,0.5502,0.5667,0.5854,0.5837,0.5544,0.518,0.4824,0.4663,0.519,0.558,0.579,0.5894,0.6069,0.6294,0.6322,0.6924,0.7591,0.8252,0.8576,0.877,0.8964,0.9092,0.9327,0.9497,0.9634,0.9675,0.9332,0.9417,0.9927,0.971,0.9735,1.0305,1.0515,0.9822,0.9145,0.8528,0.8132,0.7883,0.7418,0.6964,0.6198,0.6043,0.5916,0.5681,0.6301,0.6406,0.6656,0.6725,0.6855,0.683,0.6769,0.6656,0.6599,0.6505,0.6461,0.644,0.6387,0.6362,0.6412,0.6494,0.6492,0.6587,0.6688,0.6707,0.6861,0.6932,0.6997,0.707,0.7091,0.7195,0.726,0.729,0.7325,0.7323,0.7404,0.7455,0.7526,0.7526,0.7526,0.6742,0.7015,0.7063,0.7133,0.7139,0.7354,0.6918,0.6046,0.615,0.566,0.4824,0.4551,0.4559,0.4556,0.4681,0.4784,0.4748,0.4976,0.5153,0.5241,0.5273,0.5386,0.5527,0.5555,0.5486,0.541,0.5536,0.5564,0.5534,0.5441,0.538,0.549,0.5398,0.5281,0.5295,0.5288,0.5413,0.5712,0.593,0.5939,0.5681,0.5356,0.5059,0.4956,0.5749,0.6019,0.5945,0.5958,0.584,0.5706,0.6116,0.6902,0.7912,0.8371,0.8565,0.8776,0.8975,0.9179,0.9544,0.9718,0.991,1.0061,1.0063,1.0231,1.0797,1.0587,1.0438,1.0504,1.0185,0.9763,0.913,0.9109,0.8807,0.837,0.847,0.8368,0.7347,0.646,0.6399,0.6682,0.6674,0.666,0.7183,0.6989,0.7062,0.7151,0.7062,0.6903,0.6781,0.6676,0.6639,0.6603,0.6432,0.6415,0.6612,0.6647,0.6753,0.6763,0.6795,0.6768,0.6917,0.6987,0.7101,0.7191,0.7196,0.7252,0.7323,0.7333,0.7363,0.7361,0.7404,0.751,0.7526,0.7526,0.7649,0.6701,0.7085,0.7133,0.7133,0.7139,0.7354,0.6972,0.6263,0.6209,0.5719,0.4933,0.4725,0.4631,0.4667,0.4729,0.4743,0.4872,0.4996,0.5129,0.5251,0.5372,0.5531,0.5644,0.5766,0.5778,0.5661,0.5715,0.5747,0.5699,0.562,0.5679,0.5742,0.564,0.5567,0.5486,0.5478,0.5723,0.6018,0.6236,0.6313,0.6344,0.5612,0.5329,0.5361,0.5892,0.603,0.5932,0.5953,0.5821,0.5744,0.605,0.6776,0.7807,0.8286,0.8531,0.8759,0.9088,0.93,0.9655,0.9932,1.0194,1.0363,1.0466,1.0719,1.0985,1.0972,1.0924,1.0833,1.0539,1.0166,0.9791,0.9933,0.9723,0.9461,0.942,0.9335,0.8628,0.775,0.699,0.7194,0.7092,0.7226,0.7397,0.7434,0.7208,0.7249,0.7265,0.7114,0.6867,0.6777,0.6769,0.67,0.6526,0.647,0.6689,0.6879,0.7058,0.7116,0.7163,0.715,0.7168,0.7255,0.7269,0.7293,0.7255,0.7312,0.739,0.7395,0.7409,0.7442,0.7455,0.7507,0.7635,0.7773,0.7903,0.6519,0.7036,0.7031,0.7015,0.7041,0.7329,0.7041,0.6478,0.6367,0.5864,0.5255,0.4741,0.4688,0.4729,0.4704,0.4824,0.5044,0.5101,0.5125,0.5275,0.5535,0.5677,0.5795,0.5998,0.6103,0.5977,0.6006,0.5982,0.5941,0.5929,0.5921,0.5921,0.588,0.5742,0.5694,0.5829,0.5975,0.6138,0.6449,0.6814,0.6981,0.607,0.5579,0.5661,0.5823,0.5912,0.5889,0.5856,0.582,0.582,0.6034,0.6659,0.7352,0.7968,0.8439,0.8879,0.9202,0.9501,0.9879,1.0164,1.0496,1.0749,1.0779,1.087,1.1045,1.1093,1.1081,1.1087,1.0926,1.0926,1.1105,1.0926,1.0858,1.0657,1.0212,1.0051,0.9788,0.9261,0.8454,0.752,0.7722,0.8014,0.7996,0.7957,0.7637,0.7413,0.7347,0.7314,0.7136,0.6903,0.6907,0.6936,0.6806,0.6725,0.6886,0.7688,0.7787,0.7333,0.7443,0.7409,0.7412,0.7369,0.737,0.7351,0.7316,0.7369,0.7412,0.7416,0.745,0.7521,0.7663,0.7802,0.7927,0.8043,0.82,0.643,0.6742,0.6742,0.6686,0.6607,0.703,0.6804,0.6152,0.6473,0.5954,0.5088,0.4984,0.4801,0.4624,0.4731,0.4881,0.5017,0.5128,0.5242,0.547,0.5722,0.5864,0.6034,0.6217,0.6319,0.6343,0.6298,0.6221,0.6128,0.6099,0.6103,0.6137,0.6043,0.5827,0.5701,0.5674,0.593,0.6203,0.6483,0.6874,0.7076,0.6443,0.5746,0.5893,0.5988,0.5949,0.5781,0.5735,0.5562,0.5222,0.5732,0.654,0.745,0.8115,0.8619,0.9069,0.9344,0.9748,1.0249,1.0545,1.0791,1.0972,1.1021,1.1015,1.1081,1.1111,1.1117,1.1117,1.1117,1.1117,1.1117,1.1117,1.0743,1.0438,1.0576,1.0502,0.9979,0.9895,0.9881,0.9075,0.8931,0.8615,0.8417,0.8342,0.8295,0.8061,0.7856,0.7801,0.7721,0.7402,0.7074,0.7119,0.7151,0.709,0.7041,0.8099,0.8592,0.7697,0.7548,0.7505,0.7483,0.7493,0.7469,0.7416,0.7416,0.7464,0.7502,0.7526,0.7569,0.7668,0.785,0.8112,0.8235,0.8437,0.8699,0.631,0.6689,0.6735,0.6606,0.6602,0.694,0.6907,0.6488,0.6627,0.6151,0.5517,0.5288,0.5077,0.4742,0.4605,0.4775,0.4946,0.5165,0.5364,0.5616,0.5803,0.5977,0.6219,0.6339,0.6404,0.6416,0.6408,0.6379,0.6294,0.6286,0.6278,0.627,0.6193,0.6071,0.5933,0.5965,0.6122,0.6425,0.6637,0.7032,0.7588,0.6682,0.6088,0.5951,0.5961,0.5959,0.5856,0.5848,0.577,0.564,0.5935,0.6753,0.7649,0.8339,0.8816,0.9243,0.9605,1.0049,1.0557,1.0755,1.0991,1.1075,1.1111,1.1033,1.0991,1.1009,1.1105,1.1117,1.1117,1.1117,1.1117,1.1117,1.0887,1.0738,1.0887,1.0757,1.0391,1.0633,1.0516,1.0239,0.9757,0.915,0.8645,0.8697,0.8929,0.8771,0.8427,0.8293,0.8236,0.7699,0.7182,0.75,0.7505,0.7415,0.7284,0.7858,0.873,0.8054,0.7758,0.772,0.7635,0.771,0.7611,0.7497,0.7521,0.7564,0.7531,0.7531,0.7673,0.7841,0.8107,0.8373,0.8602,0.8865,0.9129,0.6126,0.6539,0.6595,0.6509,0.6538,0.6838,0.689,0.6752,0.6717,0.6269,0.5557,0.543,0.517,0.4804,0.4654,0.469,0.4966,0.5307,0.5523,0.5746,0.5888,0.61,0.6205,0.6323,0.642,0.642,0.642,0.642,0.64,0.6396,0.6412,0.6392,0.6408,0.6327,0.6215,0.615,0.6458,0.6605,0.6894,0.7308,0.7399,0.6961,0.6279,0.6026,0.5912,0.5924,0.599,0.5724,0.5677,0.5747,0.6185,0.6919,0.7975,0.857,0.898,0.9484,0.9921,1.0266,1.0671,1.0773,1.087,1.0979,1.1015,1.0912,1.0876,1.096,1.1117,1.1117,1.1117,1.1117,1.1117,1.1117,1.1111,1.1037,1.1025,1.1027,1.0785,1.0713,1.0653,1.0426,1.0084,0.9789,0.9341,0.9691,1.0041,0.9129,0.8781,0.8609,0.8393,0.7669,0.7377,0.778,0.7944,0.7737,0.7604,0.7353,0.8024,0.8064,0.8033,0.8164,0.8011,0.7935,0.7854,0.7878,0.7697,0.7721,0.7663,0.7692,0.7996,0.827,0.8413,0.8578,0.8831,0.9139,0.9484,0.5808,0.611,0.6214,0.6112,0.5996,0.6441,0.6525,0.6349,0.6647,0.6187,0.526,0.5274,0.4951,0.4498,0.465,0.5048,0.536,0.5502,0.5689,0.6006,0.61,0.6164,0.6351,0.6392,0.642,0.6408,0.6408,0.642,0.6404,0.64,0.642,0.642,0.6408,0.6335,0.6264,0.6316,0.6299,0.6549,0.6955,0.707,0.6819,0.6981,0.6795,0.6455,0.6141,0.6031,0.6087,0.5784,0.5523,0.5519,0.61,0.6841,0.7702,0.852,0.9108,0.9533,0.9785,1.003,1.0503,1.0592,1.0521,1.0731,1.0767,1.0743,1.0743,1.0846,1.1003,1.1117,1.1111,1.1117,1.1117,1.1117,1.1117,1.1117,1.1111,1.0972,1.0816,1.0858,1.0779,1.0682,1.0407,1.0425,1.0256,1.0755,1.1101,1.0014,0.9174,0.8938,0.8727,0.8191,0.7596,0.8088,0.8216,0.8,0.7762,0.7559,0.7981,0.8186,0.846,0.8721,0.8529,0.8477,0.8538,0.847,0.8273,0.8,0.7971,0.8127,0.8453,0.8624,0.8745,0.8903,0.9073,0.9411,0.9868,0.5743,0.5841,0.6127,0.6074,0.5972,0.6371,0.647,0.6409,0.6639,0.6169,0.5361,0.542,0.5066,0.4546,0.4775,0.5072,0.5303,0.5378,0.5665,0.601,0.6034,0.6156,0.6363,0.642,0.642,0.6371,0.6319,0.6254,0.6286,0.6363,0.642,0.6408,0.6416,0.6396,0.6326,0.6488,0.6637,0.6977,0.7365,0.7375,0.7039,0.7173,0.7223,0.6846,0.6749,0.6604,0.633,0.6593,0.6175,0.6159,0.6655,0.7428,0.8153,0.8712,0.91,0.9373,0.9521,0.9843,1.0311,1.0357,1.0399,1.0383,1.0502,1.0496,1.0508,1.0538,1.0689,1.087,1.1033,1.1105,1.1117,1.1117,1.1117,1.1117,1.1117,1.0972,1.0864,1.093,1.09,1.0779,1.0722,1.0846,1.0923,1.1062,1.1121,1.0263,0.9552,0.9306,0.9399,0.9303,0.8764,0.8391,0.8341,0.827,0.7933,0.7719,0.8607,0.8964,0.9408,0.949,0.9173,0.9072,0.9114,0.9027,0.8805,0.8583,0.8413,0.8433,0.8619,0.8882,0.9073,0.9343,0.9701,0.9938,1.0313,0.5703,0.5744,0.6016,0.6107,0.6042,0.6363,0.6466,0.6453,0.6617,0.6096,0.5306,0.5221,0.4969,0.4741,0.4881,0.5076,0.5247,0.5356,0.5628,0.5843,0.5945,0.6075,0.6229,0.631,0.6266,0.629,0.614,0.6087,0.612,0.6185,0.625,0.629,0.6427,0.6452,0.6526,0.6711,0.6917,0.7274,0.7629,0.7568,0.7321,0.7577,0.7507,0.7386,0.7321,0.7256,0.6885,0.6892,0.6751,0.6986,0.7025,0.7763,0.8598,0.891,0.9186,0.9385,0.952,0.9706,0.9994,1.0077,1.0176,1.023,1.0351,1.0429,1.0562,1.0339,1.0345,1.084,1.0997,1.1099,1.1117,1.1117,1.1117,1.1117,1.1111,1.0979,1.0888,1.0972,1.1027,1.0924,1.1004,1.1242,1.1279,1.1253,1.1,1.0386,0.9971,0.9731,0.9892,1.0122,1.0006,0.9548,0.9223,0.9105,0.8827,0.8762,0.9433,0.9789,1.0166,0.999,0.9548,0.9526,0.9592,0.9509,0.9295,0.9574,0.9625,0.9188,0.8786,0.9135,0.9548,1.006,1.0388,1.0634,1.0914,0.5703,0.5728,0.593,0.601,0.6024,0.63,0.6398,0.6416,0.6447,0.5967,0.5106,0.4582,0.4541,0.4727,0.4853,0.5104,0.5543,0.5584,0.5766,0.5921,0.5994,0.6014,0.6091,0.6059,0.5973,0.5969,0.5917,0.5908,0.5908,0.599,0.6006,0.6002,0.6371,0.6598,0.6724,0.6867,0.7231,0.7524,0.7752,0.7653,0.7698,0.7937,0.8062,0.7671,0.7531,0.7461,0.74,0.7109,0.6999,0.7288,0.7381,0.7851,0.8776,0.9028,0.9227,0.9473,0.9544,0.9724,0.9922,0.982,0.973,0.9892,1.0131,1.0478,1.0707,1.0502,1.0604,1.093,1.1039,1.1099,1.1117,1.1117,1.1117,1.1117,1.1117,1.1081,1.1015,1.1039,1.1087,1.1087,1.1168,1.1335,1.1558,1.149,1.1215,1.0612,1.0499,1.0249,1.0664,1.0886,1.1114,1.0931,1.042,1.0236,1.0001,1.0099,1.0156,1.0515,1.0965,1.0391,0.9681,0.9775,1.0237,0.9957,0.9813,1.029,1.0672,1.0256,0.9941,0.9873,1.0116,1.0835,1.151,1.2001,1.2103,0.6107,0.6129,0.6134,0.6073,0.6019,0.6282,0.641,0.641,0.641,0.5964,0.5178,0.4552,0.4429,0.4727,0.4824,0.5035,0.5378,0.5575,0.5705,0.5803,0.5856,0.5921,0.5945,0.5925,0.5896,0.5852,0.5783,0.5722,0.5718,0.5893,0.5925,0.6048,0.6445,0.6608,0.6737,0.7145,0.7666,0.8052,0.807,0.7939,0.8184,0.8315,0.8521,0.8599,0.8223,0.8097,0.7967,0.7839,0.7702,0.7707,0.7846,0.8392,0.8905,0.911,0.9385,0.9682,0.9706,0.9862,0.997,0.9772,0.9616,0.9856,1.0113,1.0377,1.0743,1.0532,1.0598,1.0828,1.1039,1.1111,1.1117,1.1117,1.1117,1.1117,1.1117,1.1117,1.1117,1.1117,1.1111,1.1099,1.118,1.1341,1.1564,1.1687,1.1272,1.0875,1.0785,1.0844,1.1274,1.1572,1.1682,1.174,1.1223,1.119,1.1087,1.0912,1.0791,1.1223,1.1665,1.0965,1.0265,1.0783,1.107,1.064,1.0517,1.1193,1.1501,1.1259,1.1091,1.1121,1.1443,1.1994,1.2628,1.3157,1.3212,0.6433,0.6455,0.6346,0.6164,0.6047,0.6322,0.644,0.6416,0.6276,0.5841,0.5091,0.4548,0.4471,0.4727,0.4816,0.5011,0.5257,0.5414,0.5551,0.5624,0.5689,0.5758,0.5774,0.5746,0.5677,0.5693,0.5628,0.5539,0.5709,0.588,0.6041,0.6253,0.6602,0.6871,0.7064,0.7466,0.8111,0.8489,0.8517,0.8425,0.8576,0.862,0.8743,0.8967,0.8759,0.8622,0.8559,0.8441,0.8394,0.8312,0.8388,0.8722,0.8998,0.932,0.958,0.9838,1.0037,1.0176,1.0248,1.0036,0.985,1.0218,1.0351,1.0496,1.0568,1.0671,1.0834,1.087,1.1033,1.1117,1.1117,1.1117,1.1117,1.1117,1.1117,1.1117,1.1117,1.1117,1.1117,1.1111,1.1192,1.1267,1.1645,1.1874,1.189,1.1522,1.1503,1.1576,1.1747,1.1985,1.2091,1.2012,1.1799,1.1924,1.2063,1.1771,1.1493,1.1665,1.1883,1.152,1.1254,1.167,1.1608,1.0995,1.1183,1.2041,1.2447,1.2459,1.2411,1.2375,1.2868,1.336,1.3205,1.3722,1.4069,0.6519,0.6659,0.6454,0.6253,0.6076,0.6377,0.6508,0.641,0.6007,0.5491,0.4937,0.4508,0.4525,0.48,0.4878,0.5099,0.535,0.5393,0.5406,0.549,0.5539,0.5531,0.5523,0.5454,0.5422,0.5333,0.5417,0.5561,0.5771,0.5947,0.6155,0.6592,0.7077,0.738,0.744,0.7926,0.8285,0.8495,0.8538,0.8708,0.897,0.8974,0.9001,0.9098,0.8974,0.8943,0.9066,0.8959,0.8853,0.8942,0.8865,0.9017,0.9225,0.9734,0.9976,1.0031,1.0224,1.0441,1.0647,1.0365,1.0447,1.0562,1.0635,1.0773,1.0991,1.1069,1.1033,1.1015,1.1093,1.1117,1.1117,1.1117,1.1117,1.1117,1.1117,1.1117,1.1117,1.1117,1.1117,1.1117,1.1192,1.1267,1.1726,1.2109,1.2284,1.2244,1.2231,1.2311,1.2325,1.2325,1.2325,1.2304,1.2155,1.2236,1.2317,1.2325,1.2211,1.2305,1.2203,1.1877,1.1734,1.1923,1.1686,1.1278,1.1914,1.291,1.3416,1.381,1.3676,1.3604,1.4285,1.4728,1.4365,1.4193,1.4608,0.658,0.6844,0.636,0.6248,0.641,0.6627,0.6647,0.6422,0.5879,0.5448,0.5184,0.4705,0.4807,0.5167,0.52,0.5318,0.5751,0.5551,0.5563,0.5382,0.5466,0.541,0.539,0.5401,0.5356,0.5333,0.5433,0.5613,0.5804,0.6137,0.6501,0.6942,0.7555,0.7984,0.8122,0.8404,0.8565,0.8872,0.8888,0.9026,0.9433,0.9314,0.9206,0.9498,0.9287,0.927,0.9567,0.9281,0.9232,0.9416,0.9332,0.9394,0.9682,1.0215,1.0399,1.0423,1.058,1.0707,1.0894,1.0864,1.0791,1.0822,1.0876,1.0991,1.1111,1.1117,1.1111,1.1117,1.1117,1.1117,1.1117,1.1117,1.1117,1.1117,1.1117,1.1117,1.1117,1.1117,1.1117,1.1117,1.1117,1.1384,1.1789,1.2306,1.2503,1.2552,1.2532,1.2432,1.2412,1.2378,1.2371,1.2472,1.2512,1.2512,1.2498,1.2518,1.2472,1.2458,1.2388,1.224,1.219,1.2324,1.2264,1.2024,1.2942,1.3796,1.3978,1.4275,1.4607,1.4928,1.5187,1.5253,1.4954,1.4856,1.5108,0.659,0.6806,0.6332,0.6293,0.6566,0.6618,0.6558,0.6257,0.5793,0.5614,0.5538,0.5089,0.53,0.5769,0.5691,0.5597,0.6105,0.5725,0.5438,0.5317,0.5398,0.5489,0.5495,0.5462,0.5626,0.5622,0.5841,0.6054,0.6318,0.6606,0.7036,0.7504,0.8008,0.8244,0.8458,0.8533,0.8775,0.9071,0.9163,0.9287,0.9563,0.9601,0.9536,0.9639,0.9612,0.9513,0.969,0.9694,0.9608,0.9785,0.9808,0.9742,1.0154,1.0449,1.0653,1.0707,1.084,1.093,1.1045,1.1087,1.0979,1.0906,1.1039,1.1099,1.1117,1.1117,1.1117,1.1117,1.1117,1.1117,1.1117,1.1117,1.1117,1.1117,1.1117,1.1117,1.1135,1.1141,1.122,1.1208,1.1419,1.1665,1.1961,1.2394,1.2846,1.2806,1.2759,1.2748,1.2599,1.2579,1.2605,1.2712,1.2792,1.2819,1.2826,1.2806,1.2739,1.2632,1.2586,1.2576,1.2687,1.2831,1.2849,1.2885,1.3567,1.4063,1.4385,1.4641,1.4849,1.5022,1.5119,1.5267,1.5416,1.5431,1.5431,0.6533,0.6571,0.6446,0.6435,0.6504,0.6544,0.6342,0.6024,0.5793,0.582,0.6032,0.555,0.5894,0.6542,0.6174,0.6039,0.6072,0.5639,0.5423,0.5305,0.5389,0.5525,0.569,0.5795,0.5872,0.6151,0.6384,0.6601,0.6969,0.7282,0.7667,0.8035,0.8312,0.849,0.8549,0.8603,0.8867,0.913,0.9206,0.9308,0.954,0.9577,0.9556,0.9666,0.9572,0.9572,0.9721,0.9728,0.9802,0.989,0.999,1.0044,1.0231,1.0527,1.0689,1.0803,1.0985,1.1057,1.1099,1.1111,1.1111,1.1039,1.1087,1.1117,1.1117,1.1117,1.1117,1.1117,1.1117,1.1117,1.1117,1.1117,1.1117,1.1117,1.1117,1.1135,1.1166,1.1232,1.1341,1.1496,1.1747,1.206,1.2511,1.2942,1.3227,1.32,1.3206,1.336,1.3259,1.2999,1.3033,1.312,1.3173,1.3186,1.3173,1.3126,1.3019,1.2919,1.308,1.3147,1.3253,1.3333,1.3345,1.3477,1.3931,1.4302,1.4386,1.458,1.4873,1.5039,1.517,1.5274,1.5347,1.5431,1.5445,0.6574,0.6667,0.6209,0.6366,0.6942,0.693,0.6603,0.6116,0.583,0.587,0.6054,0.5766,0.6314,0.7291,0.6528,0.6464,0.6293,0.595,0.5631,0.5517,0.5407,0.5677,0.5845,0.5973,0.6147,0.6407,0.6726,0.6964,0.7318,0.7683,0.7921,0.8167,0.8404,0.8571,0.8624,0.8592,0.8813,0.8974,0.9007,0.9211,0.9378,0.9383,0.9416,0.941,0.941,0.9498,0.9564,0.9696,0.9777,0.9944,1.0207,1.0307,1.0557,1.0773,1.0997,1.1003,1.1081,1.1111,1.1117,1.1117,1.1117,1.1117,1.1117,1.1117,1.1117,1.1117,1.1117,1.1117,1.1117,1.1123,1.1141,1.1148,1.1196,1.1244,1.1244,1.1262,1.131,1.1431,1.1552,1.1969,1.222,1.2479,1.2946,1.3411,1.3674,1.3634,1.3641,1.3796,1.3776,1.3487,1.342,1.3494,1.35,1.3494,1.348,1.3447,1.332,1.324,1.3407,1.3527,1.3506,1.3585,1.3761,1.3834,1.3991,1.4072,1.4132,1.4405,1.4741,1.4992,1.5054,1.5242,1.5347,1.5362,1.554,0.6597,0.6464,0.6095,0.6425,0.705,0.7032,0.6724,0.6395,0.6085,0.6223,0.6695,0.6332,0.6801,0.7639,0.6911,0.6501,0.6723,0.5864,0.5466,0.5626,0.5576,0.595,0.6173,0.6363,0.6585,0.687,0.7125,0.7349,0.7626,0.7905,0.8229,0.8318,0.8468,0.8576,0.863,0.8581,0.8592,0.8727,0.884,0.899,0.9098,0.9184,0.92,0.919,0.9265,0.934,0.9491,0.9561,0.9765,0.9979,1.0237,1.048,1.0707,1.0954,1.1099,1.1099,1.1105,1.1117,1.1117,1.1117,1.1117,1.1117,1.1117,1.1117,1.1117,1.1117,1.1117,1.1117,1.1123,1.1135,1.1166,1.1208,1.1317,1.1419,1.1419,1.1419,1.1534,1.1661,1.2001,1.2444,1.2725,1.2977,1.3309,1.3794,1.4062,1.3928,1.3881,1.3928,1.3921,1.3808,1.3761,1.3808,1.3794,1.3781,1.3761,1.3734,1.3667,1.3621,1.3728,1.3828,1.3854,1.3854,1.3895,1.3881,1.3868,1.3961,1.4146,1.4314,1.4559,1.4734,1.5027,1.5259,1.5351,1.5413,1.5558,0.6581,0.6085,0.6208,0.6574,0.7001,0.6899,0.6843,0.6828,0.6575,0.6906,0.7463,0.7111,0.7323,0.7797,0.7155,0.6655,0.645,0.5815,0.5572,0.5841,0.5736,0.6073,0.6668,0.688,0.6981,0.737,0.7613,0.7649,0.7843,0.8097,0.8339,0.8506,0.8511,0.8549,0.8549,0.8544,0.8549,0.8587,0.8716,0.8867,0.9017,0.912,0.9163,0.9152,0.928,0.9414,0.9505,0.9725,0.9927,1.0002,1.0224,1.0401,1.0779,1.0966,1.1081,1.1117,1.1117,1.1117,1.1117,1.1117,1.1117,1.1117,1.1117,1.1117,1.1117,1.1117,1.1117,1.1117,1.1123,1.1244,1.1304,1.1329,1.1407,1.1564,1.1648,1.1727,1.1866,1.2085,1.25,1.2845,1.3176,1.3336,1.3631,1.4088,1.4088,1.4055,1.4055,1.4082,1.4048,1.3988,1.3968,1.3988,1.3981,1.3948,1.3968,1.3955,1.4008,1.4028,1.4015,1.3941,1.3834,1.3895,1.4001,1.3955,1.3901,1.3981,1.4139,1.423,1.4314,1.4482,1.4797,1.517,1.5367,1.5445,1.5791,0.6696,0.6422,0.6655,0.6767,0.6867,0.7276,0.7406,0.7327,0.7262,0.7122,0.7074,0.7124,0.7361,0.7658,0.7343,0.6867,0.6317,0.588,0.5919,0.5928,0.5928,0.6325,0.6982,0.7048,0.7297,0.7565,0.7801,0.7876,0.8011,0.8237,0.8431,0.8506,0.8517,0.8517,0.8517,0.8517,0.8517,0.8528,0.8587,0.8662,0.8732,0.8737,0.8737,0.8885,0.9063,0.9271,0.9332,0.947,0.9716,0.9849,1.0161,1.0556,1.0991,1.1069,1.1111,1.1117,1.1117,1.1117,1.1117,1.1117,1.1117,1.1117,1.1117,1.1117,1.1117,1.1117,1.1117,1.1117,1.1202,1.1353,1.1455,1.1473,1.1558,1.1739,1.1896,1.2041,1.2192,1.2514,1.2931,1.318,1.3522,1.3808,1.3997,1.4088,1.4088,1.4082,1.4082,1.4082,1.4048,1.4001,1.3921,1.3948,1.4048,1.4055,1.4088,1.4015,1.3981,1.4001,1.3975,1.3895,1.3814,1.3828,1.3874,1.3935,1.3948,1.4008,1.4055,1.4075,1.4243,1.4321,1.4608,1.4972,1.5511,1.564,1.6177,0.695,0.6538,0.6681,0.6787,0.6937,0.7231,0.7478,0.7642,0.7574,0.7406,0.7236,0.7197,0.7351,0.7513,0.7218,0.685,0.6253,0.5836,0.5925,0.6043,0.6187,0.6593,0.6949,0.7233,0.7317,0.7576,0.7763,0.7887,0.8038,0.8215,0.835,0.8484,0.8517,0.8517,0.8517,0.8576,0.8576,0.8517,0.8576,0.8646,0.8652,0.8679,0.8832,0.8981,0.9102,0.9323,0.9516,0.9614,0.9783,1.0042,1.0311,1.0568,1.0888,1.1033,1.1099,1.1117,1.1117,1.1117,1.1117,1.1117,1.1117,1.1117,1.1117,1.1117,1.126,1.126,1.1186,1.1222,1.1498,1.1679,1.1781,1.1806,1.198,1.2198,1.2198,1.224,1.2391,1.2632,1.2965,1.3334,1.3646,1.3906,1.4088,1.4088,1.4088,1.4088,1.4088,1.3981,1.3968,1.4001,1.3928,1.3908,1.4015,1.4075,1.4082,1.3955,1.3814,1.3848,1.3881,1.3928,1.3881,1.3768,1.3734,1.3895,1.3988,1.4001,1.4041,1.4075,1.4082,1.4243,1.4446,1.4761,1.5227,1.5713,1.6082,0.7201,0.6526,0.6532,0.6743,0.7026,0.6998,0.73,0.7749,0.7589,0.7669,0.7829,0.7337,0.7452,0.7288,0.7068,0.6566,0.6244,0.6067,0.6136,0.6221,0.6343,0.672,0.7065,0.7298,0.7389,0.7474,0.7639,0.7747,0.7855,0.8081,0.8301,0.8468,0.8517,0.8517,0.8576,0.8641,0.8705,0.8641,0.8711,0.8863,0.8868,0.8891,0.9119,0.9285,0.9484,0.9655,0.9941,1.0069,1.0095,1.0299,1.0616,1.0767,1.0876,1.1027,1.1081,1.1117,1.1117,1.1117,1.1117,1.1117,1.1117,1.1117,1.1117,1.1204,1.1291,1.1496,1.1427,1.1624,1.1903,1.2074,1.2178,1.2271,1.2471,1.2602,1.2541,1.2504,1.2656,1.2784,1.3045,1.3398,1.3743,1.4082,1.4088,1.4088,1.4088,1.4088,1.4028,1.3901,1.3841,1.3921,1.3928,1.3921,1.3981,1.4028,1.4001,1.3901,1.3714,1.3607,1.3654,1.3834,1.3935,1.3794,1.3794,1.3988,1.4062,1.4048,1.4048,1.4082,1.4082,1.4166,1.4271,1.4501,1.4977,1.5467,1.5877,0.7074,0.641,0.6581,0.6704,0.6853,0.7207,0.7462,0.7535,0.756,0.7809,0.8051,0.7768,0.7524,0.7279,0.7734,0.7278,0.6176,0.6214,0.6263,0.6329,0.6482,0.689,0.7173,0.7327,0.7367,0.7415,0.7464,0.7623,0.7806,0.8038,0.8269,0.8501,0.8517,0.8517,0.8517,0.8641,0.8835,0.877,0.8927,0.9091,0.9357,0.9365,0.9417,0.9639,0.988,1.0108,1.0284,1.0236,1.0377,1.0635,1.0852,1.0966,1.1021,1.1057,1.1099,1.1117,1.1117,1.1117,1.1117,1.1117,1.1117,1.1117,1.1154,1.1338,1.1651,1.2139,1.2202,1.2518,1.2715,1.2743,1.2868,1.2789,1.2927,1.309,1.3121,1.3121,1.319,1.3137,1.3228,1.3568,1.3822,1.3997,1.4088,1.4088,1.4088,1.4088,1.4088,1.3968,1.3888,1.3908,1.3921,1.3895,1.3901,1.3794,1.3687,1.3761,1.3634,1.3494,1.3487,1.3794,1.3915,1.3794,1.3841,1.4028,1.4088,1.4075,1.4088,1.4088,1.4088,1.4082,1.4088,1.4331,1.4799,1.5123,1.5444]}]]